[[{"header":{"parameterUnit":"m.s-1","parameterCategory":1,"la1":30.6,"la2":29.2853,"lo1":-89.7004,"lo2":-87.6739,"dy":0.0162,"dx":0.0183,"nx":112,"ny":82,"refTime":"2023-10-03T06:00:00:Z","depth":0,"parameterNumber":2,"parameterNumberName":"U-component_of_WINDS"},"data":[0.0,0.0,0.0,0.0,0.0,0.0,0.0,0.0,0.0,0.0,0.0,0.0,0.0,0.0,0.0,0.0,0.0,0.0,0.0,0.0,0.0,0.0,0.0,0.0,0.0,0.0,0.0,0.0,0.0,0.0,0.0,0.0,0.0,0.0,0.0,0.0,0.0,0.0,0.0,0.0,0.0,0.0,0.0,0.0,0.0,0.0,0.0,0.0,0.0,0.0,0.0,0.0,0.0,0.0,0.0,0.0,0.0,0.0,0.0,0.0,0.0,0.0,0.0,0.0,0.0,0.0,0.0,0.0,0.0,0.0,0.0,0.0,0.0,0.0,0.0,0.0,0.0,0.0,0.0,0.0,0.0,0.0,0.0,0.0,0.0,0.0,0.0,0.0,0.0,0.0,0.0,-2.3857,-2.3842,-2.3873,-2.3991,-2.3496,-2.2506,-2.0928,0.0,0.0,0.0,0.0,0.0,0.0,0.0,0.0,0.0,0.0,0.0,0.0,0.0,0.0,0.0,0.0,0.0,0.0,0.0,0.0,0.0,0.0,0.0,0.0,0.0,0.0,0.0,0.0,0.0,0.0,0.0,0.0,0.0,0.0,0.0,0.0,0.0,0.0,0.0,0.0,0.0,0.0,0.0,0.0,0.0,0.0,0.0,0.0,0.0,0.0,0.0,0.0,0.0,0.0,0.0,0.0,0.0,0.0,0.0,0.0,0.0,0.0,0.0,0.0,0.0,0.0,0.0,0.0,0.0,0.0,0.0,0.0,0.0,0.0,0.0,0.0,0.0,0.0,0.0,0.0,0.0,0.0,0.0,0.0,0.0,0.0,0.0,0.0,0.0,0.0,0.0,0.0,0.0,0.0,0.0,0.0,0.0,0.0,0.0,0.0,0.0,0.0,0.0,0.0,-2.416,-2.4372,-2.3592,-2.3324,-2.3954,-2.3898,-2.3147,-2.1481,0.0,0.0,0.0,0.0,0.0,0.0,0.0,0.0,0.0,0.0,0.0,0.0,0.0,0.0,0.0,0.0,0.0,0.0,0.0,0.0,0.0,0.0,0.0,0.0,0.0,0.0,0.0,0.0,0.0,0.0,0.0,0.0,0.0,0.0,0.0,0.0,0.0,0.0,0.0,0.0,0.0,0.0,0.0,0.0,0.0,0.0,0.0,0.0,0.0,0.0,0.0,0.0,0.0,0.0,0.0,0.0,0.0,0.0,0.0,0.0,0.0,0.0,0.0,0.0,0.0,0.0,0.0,0.0,0.0,0.0,0.0,0.0,0.0,0.0,0.0,0.0,0.0,0.0,0.0,0.0,0.0,0.0,0.0,0.0,0.0,0.0,0.0,0.0,0.0,0.0,0.0,0.0,0.0,0.0,0.0,0.0,0.0,0.0,0.0,0.0,0.0,0.0,0.0,-2.3616,-2.3781,-2.3942,-2.3381,-2.3285,-2.3954,-2.4268,-2.3602,-2.1606,-2.1542,0.0,0.0,0.0,0.0,0.0,0.0,0.0,0.0,0.0,0.0,0.0,0.0,0.0,0.0,0.0,0.0,0.0,0.0,0.0,0.0,0.0,0.0,0.0,0.0,0.0,0.0,0.0,0.0,0.0,0.0,0.0,0.0,0.0,0.0,0.0,0.0,0.0,0.0,0.0,0.0,0.0,0.0,0.0,0.0,0.0,0.0,0.0,0.0,0.0,0.0,0.0,0.0,0.0,0.0,0.0,0.0,0.0,0.0,0.0,0.0,0.0,0.0,0.0,0.0,0.0,0.0,0.0,0.0,0.0,0.0,0.0,0.0,0.0,0.0,0.0,0.0,0.0,0.0,0.0,0.0,0.0,0.0,0.0,0.0,0.0,0.0,0.0,0.0,0.0,0.0,0.0,0.0,0.0,0.0,0.0,0.0,0.0,0.0,0.0,0.0,0.0,0.0,-2.381,-2.3528,-2.3438,-2.3139,-2.3231,-2.4004,-2.4216,-2.361,-2.1938,-2.2364,0.0,0.0,0.0,0.0,0.0,0.0,0.0,0.0,0.0,0.0,0.0,0.0,0.0,0.0,0.0,0.0,0.0,0.0,0.0,0.0,0.0,0.0,0.0,0.0,0.0,0.0,0.0,0.0,0.0,0.0,0.0,0.0,0.0,0.0,0.0,0.0,0.0,0.0,0.0,0.0,0.0,0.0,0.0,0.0,0.0,0.0,0.0,0.0,0.0,0.0,0.0,0.0,0.0,0.0,0.0,0.0,0.0,0.0,0.0,0.0,0.0,0.0,0.0,0.0,0.0,0.0,0.0,0.0,0.0,0.0,0.0,0.0,0.0,0.0,0.0,0.0,0.0,0.0,0.0,0.0,0.0,0.0,0.0,0.0,0.0,0.0,0.0,0.0,0.0,0.0,0.0,0.0,0.0,0.0,0.0,0.0,0.0,0.0,0.0,0.0,0.0,0.0,-2.3493,-2.3651,-2.3271,-2.2767,-2.294,-2.4185,-2.3416,-2.2818,-2.2809,-2.1944,0.0,0.0,0.0,0.0,0.0,0.0,0.0,0.0,0.0,0.0,0.0,0.0,0.0,0.0,0.0,0.0,0.0,0.0,0.0,0.0,0.0,0.0,0.0,0.0,0.0,0.0,0.0,0.0,0.0,0.0,0.0,0.0,0.0,0.0,0.0,0.0,0.0,0.0,0.0,0.0,0.0,0.0,0.0,0.0,0.0,0.0,0.0,0.0,0.0,0.0,0.0,0.0,0.0,0.0,0.0,0.0,0.0,0.0,0.0,0.0,0.0,0.0,0.0,0.0,0.0,0.0,0.0,0.0,0.0,0.0,0.0,0.0,0.0,0.0,0.0,0.0,0.0,0.0,0.0,0.0,0.0,0.0,0.0,0.0,0.0,0.0,0.0,0.0,0.0,0.0,0.0,0.0,0.0,0.0,0.0,0.0,0.0,0.0,0.0,0.0,0.0,0.0,-2.3039,-2.3256,0.0,-2.294,-2.3426,-2.4239,-2.4239,-2.3791,-2.2831,0.0,0.0,0.0,0.0,0.0,0.0,0.0,0.0,0.0,0.0,0.0,0.0,0.0,0.0,0.0,0.0,0.0,0.0,0.0,0.0,0.0,0.0,0.0,0.0,0.0,0.0,0.0,0.0,0.0,0.0,0.0,0.0,0.0,0.0,0.0,0.0,0.0,0.0,0.0,0.0,0.0,0.0,0.0,0.0,0.0,0.0,0.0,0.0,0.0,0.0,0.0,0.0,0.0,0.0,0.0,0.0,0.0,0.0,0.0,0.0,0.0,0.0,0.0,0.0,0.0,0.0,0.0,0.0,0.0,0.0,0.0,0.0,0.0,0.0,0.0,0.0,0.0,0.0,0.0,0.0,0.0,0.0,0.0,0.0,0.0,0.0,0.0,0.0,0.0,0.0,0.0,0.0,0.0,0.0,0.0,0.0,0.0,0.0,0.0,0.0,0.0,0.0,-2.2416,-2.2927,-2.3099,0.0,-2.3048,-2.355,-2.4087,-2.416,-2.3729,-2.269,0.0,0.0,0.0,0.0,0.0,0.0,0.0,0.0,0.0,0.0,0.0,0.0,0.0,0.0,0.0,0.0,0.0,0.0,0.0,0.0,0.0,0.0,0.0,0.0,0.0,0.0,0.0,0.0,0.0,0.0,0.0,0.0,0.0,0.0,0.0,0.0,0.0,0.0,0.0,0.0,0.0,0.0,0.0,0.0,0.0,0.0,0.0,0.0,0.0,0.0,0.0,0.0,0.0,0.0,0.0,0.0,0.0,0.0,0.0,0.0,0.0,0.0,0.0,0.0,0.0,0.0,0.0,0.0,0.0,0.0,0.0,0.0,0.0,0.0,0.0,0.0,0.0,0.0,0.0,0.0,0.0,0.0,0.0,0.0,0.0,0.0,0.0,0.0,0.0,0.0,0.0,0.0,0.0,0.0,0.0,0.0,0.0,0.0,0.0,0.0,0.0,0.0,-2.2749,-2.3161,-2.337,-2.3039,-2.2991,-2.322,-2.377,-2.2823,-2.2271,0.0,0.0,0.0,0.0,0.0,0.0,0.0,0.0,0.0,0.0,0.0,0.0,0.0,0.0,0.0,0.0,0.0,0.0,0.0,0.0,0.0,0.0,0.0,0.0,0.0,0.0,0.0,0.0,0.0,0.0,0.0,0.0,0.0,0.0,0.0,0.0,0.0,0.0,0.0,0.0,0.0,0.0,0.0,0.0,0.0,0.0,0.0,0.0,0.0,0.0,0.0,0.0,0.0,0.0,0.0,0.0,0.0,0.0,0.0,0.0,0.0,0.0,0.0,0.0,0.0,0.0,0.0,0.0,0.0,0.0,0.0,0.0,0.0,0.0,0.0,0.0,0.0,0.0,0.0,0.0,0.0,0.0,0.0,0.0,0.0,0.0,0.0,0.0,0.0,0.0,0.0,0.0,0.0,0.0,0.0,0.0,0.0,0.0,0.0,0.0,0.0,0.0,0.0,-2.2542,-2.3282,-2.3658,-2.3205,-2.3477,-2.3761,-2.3915,-2.3643,-2.3157,-2.2455,0.0,0.0,0.0,0.0,0.0,0.0,0.0,0.0,0.0,0.0,0.0,0.0,0.0,0.0,0.0,0.0,0.0,0.0,0.0,0.0,0.0,0.0,0.0,0.0,0.0,0.0,0.0,0.0,0.0,0.0,0.0,0.0,0.0,0.0,0.0,0.0,0.0,0.0,0.0,0.0,0.0,0.0,0.0,0.0,0.0,0.0,0.0,0.0,0.0,0.0,0.0,0.0,0.0,0.0,0.0,0.0,0.0,0.0,0.0,0.0,0.0,0.0,0.0,0.0,0.0,0.0,0.0,0.0,0.0,0.0,0.0,0.0,0.0,0.0,0.0,0.0,0.0,0.0,0.0,0.0,0.0,0.0,0.0,0.0,0.0,0.0,0.0,0.0,0.0,0.0,0.0,0.0,0.0,0.0,0.0,0.0,0.0,0.0,0.0,0.0,0.0,0.0,-2.2928,-2.3488,-2.3792,-2.3544,-2.3825,-2.4013,-2.399,-2.399,-2.337,-2.1869,0.0,0.0,0.0,0.0,0.0,0.0,0.0,0.0,0.0,0.0,0.0,0.0,0.0,0.0,0.0,0.0,0.0,0.0,0.0,0.0,0.0,0.0,0.0,0.0,0.0,0.0,0.0,0.0,0.0,0.0,0.0,0.0,0.0,0.0,0.0,0.0,0.0,0.0,0.0,0.0,0.0,0.0,0.0,0.0,0.0,0.0,0.0,0.0,0.0,0.0,0.0,0.0,0.0,0.0,0.0,0.0,0.0,0.0,0.0,0.0,0.0,0.0,0.0,0.0,0.0,0.0,0.0,0.0,0.0,0.0,0.0,0.0,0.0,0.0,0.0,0.0,0.0,0.0,0.0,0.0,0.0,0.0,0.0,0.0,0.0,0.0,0.0,0.0,0.0,0.0,0.0,0.0,0.0,0.0,0.0,0.0,0.0,0.0,0.0,0.0,0.0,0.0,-2.3665,-2.3793,-2.3898,-2.405,-2.4038,-2.4026,-2.4015,-2.3956,-2.3073,-2.0999,0.0,0.0,0.0,0.0,0.0,0.0,0.0,0.0,0.0,0.0,0.0,0.0,0.0,0.0,0.0,0.0,0.0,0.0,0.0,0.0,0.0,0.0,0.0,0.0,0.0,0.0,0.0,0.0,0.0,0.0,0.0,0.0,0.0,0.0,0.0,0.0,0.0,0.0,0.0,0.0,0.0,0.0,0.0,0.0,0.0,0.0,0.0,0.0,0.0,0.0,0.0,0.0,0.0,0.0,0.0,0.0,0.0,0.0,0.0,0.0,-2.9587,0.0,0.0,0.0,0.0,0.0,0.0,0.0,0.0,0.0,0.0,0.0,0.0,0.0,0.0,0.0,0.0,0.0,0.0,0.0,0.0,0.0,0.0,0.0,0.0,0.0,0.0,0.0,0.0,0.0,0.0,0.0,0.0,0.0,0.0,0.0,0.0,0.0,0.0,0.0,0.0,0.0,-2.4089,-2.4409,-2.4676,-2.4701,-2.4367,-2.4148,-2.4148,-2.3779,-2.2947,-2.1516,-2.0787,0.0,0.0,0.0,0.0,0.0,0.0,0.0,0.0,0.0,0.0,0.0,0.0,0.0,0.0,0.0,0.0,0.0,0.0,0.0,0.0,0.0,0.0,0.0,0.0,0.0,0.0,0.0,0.0,0.0,0.0,0.0,0.0,0.0,0.0,0.0,0.0,0.0,0.0,0.0,0.0,0.0,0.0,0.0,0.0,0.0,0.0,0.0,0.0,0.0,0.0,0.0,0.0,0.0,0.0,0.0,0.0,0.0,0.0,0.0,0.0,-2.9057,0.0,0.0,0.0,0.0,0.0,0.0,0.0,0.0,0.0,0.0,0.0,0.0,0.0,0.0,0.0,0.0,0.0,0.0,0.0,0.0,0.0,0.0,0.0,0.0,0.0,0.0,0.0,0.0,0.0,0.0,0.0,0.0,0.0,0.0,0.0,0.0,0.0,0.0,0.0,0.0,-2.3361,-2.3544,-2.3559,-2.3371,-2.3134,-2.2934,-2.2745,-2.2459,-2.1679,-2.0313,-2.0211,0.0,0.0,0.0,0.0,0.0,0.0,0.0,0.0,0.0,0.0,0.0,0.0,0.0,0.0,0.0,0.0,0.0,0.0,0.0,0.0,0.0,0.0,0.0,0.0,0.0,0.0,0.0,0.0,0.0,0.0,0.0,0.0,0.0,0.0,0.0,0.0,0.0,0.0,0.0,0.0,0.0,0.0,0.0,0.0,0.0,0.0,0.0,0.0,0.0,0.0,0.0,0.0,0.0,-2.9358,-2.9873,-3.0233,-3.0439,-3.0151,-2.9479,-2.9937,-2.9688,-2.8884,0.0,0.0,0.0,0.0,0.0,0.0,0.0,0.0,0.0,0.0,0.0,0.0,0.0,0.0,0.0,0.0,0.0,0.0,0.0,0.0,0.0,0.0,0.0,0.0,0.0,-2.2528,-2.2299,0.0,0.0,0.0,0.0,0.0,0.0,0.0,0.0,0.0,0.0,0.0,0.0,-2.2554,-2.2481,-2.2229,-2.186,-2.1749,-2.1558,-2.1135,-2.1094,-2.045,-1.8907,-1.9678,-1.8993,0.0,0.0,0.0,0.0,0.0,0.0,0.0,0.0,0.0,0.0,0.0,0.0,0.0,0.0,0.0,0.0,0.0,0.0,0.0,0.0,0.0,0.0,0.0,0.0,0.0,0.0,0.0,0.0,0.0,0.0,0.0,0.0,-2.2922,-2.2919,0.0,0.0,0.0,0.0,0.0,0.0,0.0,0.0,0.0,0.0,0.0,0.0,0.0,-2.8618,-2.9247,-3.0412,-3.0677,-2.9993,-3.1536,-3.2147,-3.1781,-3.156,-3.1399,-3.1252,-3.0959,0.0,-2.7311,-2.7761,0.0,0.0,0.0,0.0,0.0,0.0,0.0,0.0,0.0,0.0,0.0,0.0,0.0,0.0,0.0,0.0,0.0,0.0,0.0,0.0,0.0,0.0,-2.1707,-2.1174,-2.1342,-2.143,0.0,-2.1377,-2.1687,-2.0548,0.0,0.0,0.0,0.0,0.0,0.0,0.0,0.0,-2.2912,-2.2932,-2.2752,-2.2331,-2.196,-2.1558,-2.1135,-2.1094,-2.0551,-1.9307,-1.9373,-1.8929,-1.7834,-1.7632,0.0,0.0,0.0,0.0,0.0,0.0,0.0,0.0,0.0,0.0,0.0,0.0,0.0,0.0,0.0,0.0,0.0,0.0,0.0,0.0,0.0,0.0,0.0,0.0,0.0,0.0,0.0,0.0,0.0,-2.0844,-2.1555,-2.1808,-2.2611,-2.3032,0.0,0.0,0.0,0.0,0.0,0.0,0.0,0.0,0.0,-2.7213,-2.7962,-2.8466,-2.8817,-2.9789,-3.022,-3.0036,-3.0796,-3.0822,-3.0224,-3.0066,-2.9687,-2.909,-2.8918,-2.7963,-2.6593,-2.7972,-2.8026,-2.7258,0.0,0.0,0.0,0.0,-2.4774,-2.4183,-2.4344,-2.4122,0.0,0.0,0.0,0.0,0.0,0.0,0.0,0.0,0.0,0.0,0.0,0.0,0.0,-2.0877,-2.1102,-2.1094,-2.0069,-2.0193,-2.0569,0.0,-2.1114,-2.1223,-2.0962,0.0,0.0,0.0,0.0,-2.1475,-2.1699,-2.1595,-2.1259,-2.0656,-2.0403,-2.0044,-1.939,-1.9374,-1.9113,-1.8614,-1.8565,-1.831,-1.7787,-1.7991,-1.789,0.0,0.0,0.0,0.0,0.0,0.0,0.0,0.0,0.0,0.0,0.0,0.0,0.0,0.0,0.0,0.0,0.0,0.0,0.0,0.0,0.0,0.0,0.0,0.0,0.0,0.0,0.0,0.0,-2.0408,-2.0984,-2.1089,-2.2639,-2.3246,0.0,0.0,0.0,0.0,0.0,0.0,-2.5354,-2.5445,-2.5727,-2.6335,-2.728,-2.7894,-2.8046,-2.8652,-2.9059,-2.9345,-2.9446,-2.916,-2.8505,-2.8482,-2.7919,-2.7057,-2.697,-2.6628,-2.6256,-2.7608,-2.7876,-2.7344,-2.6668,-2.5878,-2.5133,-2.5153,-2.4503,-2.3698,-2.4071,-2.4097,-2.3771,-2.3158,0.0,-2.1959,-2.0635,0.0,0.0,0.0,0.0,-1.9637,-2.0211,-2.0136,-1.9941,-1.985,-2.0012,-1.9863,-1.8709,-1.8468,-1.8851,0.0,-2.0515,-2.0645,-2.0309,0.0,0.0,0.0,0.0,-2.0251,-2.0574,-2.0342,-1.9898,-1.9282,-1.9127,-1.8751,-1.8051,-1.8,-1.7959,-1.7838,-1.7838,-1.7671,-1.7304,-1.7817,-1.7688,-1.678,0.0,0.0,0.0,0.0,0.0,0.0,0.0,0.0,0.0,0.0,0.0,0.0,0.0,0.0,0.0,0.0,0.0,0.0,0.0,0.0,0.0,0.0,0.0,0.0,0.0,0.0,0.0,0.0,0.0,-2.1773,-2.3779,0.0,0.0,0.0,0.0,-2.3233,-2.3539,-2.4335,-2.581,-2.5596,-2.608,-2.755,-2.7036,-2.7028,-2.7729,-2.7737,-2.7813,-2.7837,-2.8188,-2.8172,-2.7837,-2.7493,-2.715,-2.6799,-2.6399,-2.624,-2.6176,-2.5857,-2.5352,-2.4679,-2.4303,-2.4159,-2.405,-2.409,-2.4221,-2.4348,-2.3747,-2.3581,-2.3566,-2.3232,-2.1846,-2.0308,-2.0069,-1.9623,0.0,0.0,-1.8605,-1.8646,-1.766,-1.7414,-1.7337,-1.7138,-1.7093,-1.7022,-1.6724,-1.6782,-1.7114,0.0,-1.7582,-1.7603,-1.8388,0.0,-1.8894,-2.0138,-2.032,-2.032,-2.0337,-1.9984,-1.9571,-1.9256,-1.8845,-1.8459,-1.8034,-1.8,-1.7838,-1.7432,-1.7432,-1.7221,-1.6747,-1.6779,-1.6779,-1.6706,-1.6706,0.0,0.0,0.0,0.0,0.0,0.0,0.0,0.0,0.0,0.0,0.0,0.0,0.0,0.0,0.0,0.0,0.0,0.0,0.0,0.0,0.0,0.0,0.0,0.0,0.0,0.0,0.0,0.0,-2.0822,-2.1878,0.0,-2.1165,-2.1047,-2.1364,-2.1979,-2.1686,-2.219,-2.3732,-2.3276,-2.337,-2.415,-2.462,-2.4996,-2.5218,-2.5699,-2.6324,-2.7031,-2.6725,-2.6661,-2.6747,-2.618,-2.5593,-2.5023,-2.4902,-2.4736,-2.4524,-2.434,-2.4718,-2.5206,-2.4865,-2.456,-2.4371,-2.4147,-2.4024,-2.3811,-2.313,-2.2554,-2.185,-2.0588,-1.9403,-1.851,-1.8279,-1.7913,-1.7553,-1.7589,-1.753,-1.7378,-1.7064,-1.6849,-1.648,-1.5679,-1.5457,-1.5282,-1.4466,-1.4383,-1.4465,-1.4545,-1.5917,-1.7193,-1.7508,-1.7366,-1.7328,-1.7801,-1.828,-1.8619,-1.8619,-1.8736,-1.8656,-1.8333,-1.7965,-1.7605,-1.7212,-1.7139,-1.7098,-1.6943,-1.6943,-1.6965,-1.7022,-1.6645,-1.6519,-1.6626,-1.5573,-1.4948,0.0,0.0,0.0,0.0,0.0,0.0,0.0,0.0,0.0,0.0,0.0,0.0,0.0,0.0,0.0,0.0,0.0,0.0,0.0,0.0,0.0,0.0,0.0,0.0,0.0,0.0,-2.0024,-2.0035,-2.1111,-2.1507,-2.0574,-2.0883,-2.126,-2.1747,-2.1459,-2.1701,-2.2621,-2.2223,-2.2052,-2.2211,-2.2786,-2.3183,-2.3183,-2.366,-2.4282,-2.4984,-2.447,-2.4245,-2.4405,-2.3876,-2.3321,-2.2777,-2.2777,-2.2601,-2.2405,-2.2405,-2.297,-2.3832,-2.4254,-2.4307,-2.4036,-2.3436,-2.3046,-2.2677,-2.1841,-2.1107,-2.0347,-1.8823,-1.7894,-1.7279,-1.7095,-1.6668,-1.6342,-1.6582,-1.6448,-1.6252,-1.6039,-1.5779,-1.5305,-1.4481,-1.4252,-1.397,-1.3188,-1.299,-1.2947,-1.284,-1.4316,-1.5776,-1.621,-1.6048,-1.6021,-1.6445,-1.6969,-1.7304,-1.7304,-1.7438,-1.7423,-1.7195,-1.6868,-1.6533,-1.6164,-1.6133,-1.605,-1.5932,-1.5827,-1.5875,-1.5991,-1.5655,-1.5483,-1.5634,-1.4331,-1.3722,-1.3968,0.0,0.0,0.0,0.0,0.0,0.0,0.0,0.0,0.0,0.0,0.0,0.0,0.0,0.0,0.0,0.0,0.0,0.0,0.0,0.0,0.0,0.0,0.0,-1.8263,-1.9834,-2.0561,-1.9687,-2.1715,-2.2551,-2.0953,-2.1932,-2.2589,-2.2371,-2.2844,-2.298,-2.2586,-2.2489,-2.2356,-2.2071,-2.1798,-2.159,-2.159,-2.159,-2.1584,-2.164,-2.1442,-2.1162,-2.0882,-2.0674,-2.04,-2.0075,-2.0075,-2.0075,-2.0075,-2.0075,-2.0075,-2.0265,-2.2223,-2.2988,-2.287,-2.1915,-2.1389,-2.0944,-1.9739,-1.9338,-1.9191,-1.8231,-1.7393,-1.6735,-1.6661,-1.6092,-1.5458,-1.5458,-1.5458,-1.5244,-1.4385,-1.3992,-1.375,-1.3513,-1.327,-1.3034,-1.2862,-1.2813,-1.2813,-1.2813,-1.2813,-1.319,-1.4322,-1.4555,-1.4978,-1.621,-1.6398,0.0,-1.6398,-1.6128,-1.594,-1.594,-1.5611,-1.5255,-1.5009,-1.4988,-1.4815,-1.4389,-1.413,-1.3897,-1.3711,-1.3667,-1.3667,-1.3636,-1.3009,-1.2835,-1.3053,0.0,0.0,0.0,0.0,0.0,0.0,0.0,0.0,0.0,0.0,0.0,0.0,0.0,0.0,0.0,0.0,0.0,0.0,0.0,0.0,0.0,0.0,-1.644,-1.7816,-1.8519,-1.9018,-1.9463,-1.9825,-1.9942,-1.9646,-1.9882,-2.0005,-1.9817,-1.9925,-2.0014,-1.9878,-1.9702,-1.9507,-1.9433,-1.9366,-1.9326,-1.9326,-1.9326,-1.9646,-2.0283,-2.0019,-2.0153,-2.0668,-2.0387,-2.0215,-2.0075,-2.0075,-2.0075,-2.0075,-2.0075,-2.0075,-2.0138,-2.0709,-2.1089,-2.1228,-2.0496,-1.9957,-1.9393,-1.8354,-1.7841,-1.7463,-1.6178,-1.5597,-1.5383,-1.4995,-1.4719,-1.4563,-1.4563,-1.4563,-1.4426,-1.3818,-1.3626,-1.347,-1.311,-1.2953,-1.2889,-1.2824,-1.2813,-1.2813,-1.2813,-1.2813,-1.2905,-1.3238,-1.3286,-1.3426,-1.3757,-1.428,0.0,-1.4609,-1.4837,-1.4989,-1.4989,-1.4683,-1.4436,-1.4352,-1.4352,-1.4224,-1.3892,-1.3809,-1.3849,-1.4046,-1.3371,-1.2827,-1.253,-1.2852,-1.2796,0.0,0.0,0.0,0.0,0.0,0.0,0.0,0.0,0.0,0.0,0.0,0.0,0.0,0.0,0.0,0.0,0.0,0.0,0.0,0.0,0.0,0.0,-1.5172,-1.601,-1.6877,-1.7667,-1.8377,-1.8911,-1.8812,-1.8774,-1.921,-1.9001,-1.8827,-1.8955,-1.9031,-1.895,-1.8654,-1.86,-1.8535,-1.8368,-1.8433,-1.8433,-1.8433,-1.8433,-1.8593,-1.9033,-1.8778,-1.8855,-1.9256,-1.8923,-1.8798,0.0,-1.8798,-1.8798,-1.8798,-1.8798,-1.8798,0.0,0.0,0.0,0.0,0.0,-1.8416,-1.7695,-1.6943,-1.6598,-1.6275,-1.5208,-1.4885,-1.4799,-1.4336,-1.4196,-1.4196,-1.4196,-1.4196,-1.4105,-1.3723,-1.355,-1.3383,-1.2996,-1.2883,-1.2813,-1.2813,-1.2813,-1.2813,-1.2813,0.0,0.0,-1.2813,-1.2813,-1.2813,-1.2813,-1.3147,-1.3431,-1.3431,-1.3677,-1.3874,-1.3874,-1.3684,-1.3501,-1.3395,-1.3389,0.0,0.0,0.0,-1.3162,-1.3429,-1.2649,0.0,0.0,0.0,-1.2104,-1.1733,0.0,0.0,0.0,-1.1596,-1.1452,0.0,0.0,0.0,0.0,0.0,0.0,0.0,0.0,0.0,0.0,0.0,0.0,0.0,0.0,0.0,0.0,-1.5001,-1.5808,-1.5593,-1.6944,-1.8011,-1.811,-1.8169,-1.8451,-1.9117,-1.8625,-1.8379,-1.8684,-1.8974,-1.8899,-1.8293,0.0,0.0,0.0,0.0,-1.8433,-1.8433,-1.8433,-1.832,-1.8094,-1.7841,-1.7599,-1.7367,-1.712,-1.7001,-1.7001,-1.7001,-1.6936,-1.6872,-1.6872,-1.6812,-1.6936,-1.899,-1.9719,-1.948,-1.8117,-1.6999,-1.6049,-1.5627,0.0,0.0,-1.4839,-1.4731,-1.4692,-1.4254,-1.4158,-1.4196,-1.4196,-1.4137,-1.403,-1.3831,-1.3565,-1.3289,-1.3068,-1.2849,-1.2699,-1.2619,-1.2662,-1.2716,-1.2613,-1.2619,-1.2613,-1.2716,-1.2764,-1.2813,-1.2813,-1.2813,-1.2813,-1.2813,-1.2813,-1.2813,-1.2813,0.0,0.0,-1.2379,-1.231,-1.2252,-1.2225,-1.207,-1.2044,-1.2215,-1.1772,-1.1682,-1.1927,-1.1438,-1.1194,-1.1194,-1.1149,-1.1096,-1.1096,-1.1096,-1.1096,0.0,0.0,0.0,0.0,0.0,0.0,0.0,0.0,0.0,0.0,0.0,0.0,0.0,0.0,0.0,-1.3604,-1.4268,-1.4773,-1.4848,-1.5467,-1.6227,-1.7051,-1.6995,-1.6894,-1.7039,-1.7116,-1.6986,-1.6571,-1.6893,-1.7117,-1.7264,-1.7458,0.0,-1.8368,-1.8433,-1.8433,-1.8433,-1.8433,-1.832,-1.8094,0.0,0.0,-1.7367,-1.712,-1.7001,-1.7001,-1.7001,-1.6683,-1.6164,-1.6164,-1.5839,-1.5448,-1.6996,-1.7343,-1.6992,-1.6712,-1.5876,-1.4931,-1.4839,-1.4456,-1.4004,-1.3737,-1.3831,-1.404,-1.377,-1.3954,0.0,-1.4196,-1.3867,-1.3534,-1.372,-1.3099,-1.2382,-1.2445,-1.2374,-1.2153,-1.1624,-1.1834,-1.2029,-1.1585,-1.1487,-1.1639,-1.2078,-1.2516,-1.2813,-1.2813,-1.2813,-1.2813,-1.2813,-1.2813,-1.2813,-1.2813,-1.2419,-1.2106,-1.2065,-1.1672,-1.1356,-1.1139,-1.1086,-1.1086,-1.1129,-1.124,-1.1302,-1.134,-1.1243,-1.1194,-1.1194,-1.0757,-1.0556,-1.0556,-1.0556,-1.0556,0.0,0.0,0.0,0.0,0.0,0.0,0.0,0.0,0.0,0.0,0.0,-1.2564,0.0,0.0,-1.349,-1.3851,-1.4205,-1.4432,-1.444,-1.4653,-1.5177,-1.5976,-1.5872,-1.5896,-1.6334,-1.6044,-1.5884,-1.6037,-1.6083,-1.6223,-1.6578,-1.6578,-1.6837,-1.7303,-1.7308,-1.7308,-1.7308,-1.7192,-1.703,-1.6808,-1.6581,-1.6353,-1.6141,-1.6025,-1.5969,-1.5969,-1.5969,-1.5774,-1.5453,-1.5453,-1.5257,-1.4996,-1.5644,-1.5837,-1.5556,-1.5393,-1.4918,-1.4451,-1.4235,-1.3923,-1.3655,-1.3374,-1.3466,-1.3576,-1.3362,-1.3371,-1.3477,-1.3477,-1.3178,-1.2876,-1.2921,-1.2543,-1.2092,-1.2035,-1.1935,-1.1738,-1.1428,-1.1471,-1.1536,-1.1243,-1.1194,-1.1292,-1.1536,-1.1829,-1.2078,-1.237,-1.2175,-1.198,-1.198,-1.198,-1.198,-1.198,-1.178,-1.1585,-1.1585,-1.134,-1.1151,-1.1003,-1.0994,-1.0994,-1.0994,-1.0849,-1.0801,-1.0801,-1.056,-1.0413,-1.0413,-1.0117,-1.0019,-1.0019,-1.0019,-1.0019,0.0,0.0,0.0,0.0,0.0,0.0,0.0,-1.2,-1.228,-1.2605,-1.3063,-1.3433,-1.3514,-1.3677,-1.3892,-1.418,-1.4314,-1.4335,-1.4196,-1.4265,-1.4493,-1.5,-1.4882,-1.4978,-1.5623,-1.5021,-1.4832,-1.5625,-1.5395,-1.5367,-1.5887,-1.5747,-1.5821,-1.6174,-1.6141,-1.6141,-1.6183,-1.5928,-1.5734,-1.5611,-1.5356,-1.5219,-1.4993,-1.495,-1.4866,-1.4866,-1.4735,-1.4735,-1.467,-1.4539,-1.4473,-1.4473,-1.4473,-1.445,-1.4433,-1.4323,-1.4198,-1.3952,-1.3621,-1.3449,-1.3301,-1.3072,-1.3048,-1.3091,-1.2892,-1.2796,-1.2674,-1.2636,-1.2454,-1.2236,-1.217,-1.1963,-1.1806,-1.166,-1.1513,-1.136,-1.1222,-1.1096,-1.0998,-1.09,-1.0904,-1.09,-1.1047,-1.0916,-1.1098,-1.1727,-1.1487,-1.1194,-1.1194,-1.1194,-1.1194,-1.1194,-1.1096,-1.0998,-1.0904,-1.0904,-1.0904,-1.0904,-1.0904,-1.0904,-1.0904,-1.0462,-1.0216,-1.0216,-0.9821,-0.9579,-0.9579,-0.9579,-0.9579,-0.9579,-0.943,-0.9377,-1.0712,-1.0968,-1.1487,-1.2,-1.217,-1.2479,0.0,-1.3754,-1.3721,-1.3928,-1.4265,-1.4436,-1.4144,-1.4229,-1.4359,-1.4395,-1.4294,-1.42,-1.418,-1.4054,-1.3953,-1.4075,-1.3849,-1.3813,-1.3883,-1.3714,-1.3615,-1.3704,-1.3667,-1.4009,-1.4915,-1.4906,-1.5332,-1.6174,-1.5994,-1.5989,-1.6178,-1.5846,-1.5727,-1.5819,-1.5495,-1.5291,-1.5262,-1.5016,-1.4866,-1.4866,-1.4272,-1.401,-1.3945,-1.3293,-1.3034,-1.3034,-1.3034,-1.2931,-1.2955,-1.3951,-1.3701,-1.2902,-1.2857,-1.2487,-1.2014,-1.1993,-1.2226,-1.2462,-1.2259,-1.2456,-1.2645,-1.2467,-1.2078,-1.1782,-1.2245,-1.1642,-1.0941,-1.1283,-1.1146,-1.0802,-1.0226,-1.0295,-1.0364,-0.9871,-0.9776,-0.992,-1.0413,-0.9976,-0.9969,-1.1116,-1.1243,-1.1194,-1.1194,-1.1194,-1.1194,-1.1194,-1.0757,-1.0314,-0.9826,-0.9776,-0.9776,-0.9776,-0.9776,-0.9776,-0.9776,-0.9727,-0.9677,-0.9677,-0.9628,-0.9579,-0.9579,-0.9579,-0.9579,-0.9579,-0.8878,-0.8531,-1.165,-1.1683,-1.1841,-1.2462,-1.2771,-1.3092,-1.3725,-1.3969,-1.4144,-1.4428,-1.4684,-1.4781,-1.4533,-1.394,-1.3394,0.0,-1.2673,-1.2188,-1.2011,-1.2583,-1.2744,-1.1917,-1.2837,-1.3685,-1.3782,-1.3539,-1.3457,-1.3664,-1.3388,-1.3518,-1.4264,-1.4083,-1.424,-1.4817,-1.4644,-1.4583,-1.4666,-1.4462,-1.4305,-1.4266,-1.4001,-1.387,-1.387,-1.3721,-1.3687,-1.3687,-1.3358,-1.3293,-1.3227,-1.2902,-1.277,-1.277,-1.277,-1.2661,-1.2469,-1.296,-1.276,-1.2268,-1.2224,-1.2014,-1.1776,-1.1776,-1.1904,-1.2064,-1.1925,-1.1861,-1.1829,-1.1751,-1.1407,-1.1131,-1.135,-1.1076,-1.0726,-1.0921,-1.0766,-1.0509,-1.0273,-1.0131,-1.0025,-0.9828,-0.9697,-0.9677,-0.9875,-0.971,-0.9719,-1.0345,-1.0334,-1.0222,-1.0158,-1.0336,-1.0382,-1.0274,-1.0068,-0.9821,-0.9628,-0.9579,-0.9579,-0.9579,-0.9579,-0.9579,-0.9579,-0.9579,-0.9579,-0.9579,-0.9579,-0.9579,-0.9579,-0.913,-0.8882,-0.8882,-0.8084,-0.7437,-1.1888,-1.1904,-1.1858,-1.2435,-1.2843,-1.3241,-1.3444,-1.3813,-1.419,-1.4111,-1.4263,-1.4306,-1.3881,-1.2982,-1.2258,-1.1995,-1.127,-1.0638,-1.0411,-1.1221,-1.1472,-1.0414,-1.1696,-1.2717,-1.288,-1.3199,-1.3359,-1.3373,-1.293,-1.2899,-1.3373,-1.3114,-1.33,-1.3892,-1.3734,-1.3598,-1.3713,-1.3486,-1.3303,-1.3169,-1.299,-1.2881,-1.277,-1.277,-1.277,-1.277,-1.277,-1.277,-1.277,-1.277,-1.277,-1.2832,-1.2783,-1.2576,-1.23,-1.2247,-1.2113,-1.1943,-1.1817,-1.1776,-1.1776,-1.1776,-1.1776,-1.1756,-1.1654,-1.1435,-1.12,-1.1102,-1.0891,-1.0692,-1.0692,-1.0692,-1.0692,-1.0692,-1.0562,-1.0366,-1.0371,-1.0107,-0.9884,-0.9884,-0.9746,-0.9661,-0.9758,-0.9693,-0.9685,-0.986,-0.9823,-0.9709,-0.9571,-0.9685,-0.9766,-0.964,-0.9579,-0.9579,-0.9579,-0.9579,-0.9579,-0.9579,-0.9579,-0.9579,-0.9579,-0.9579,-0.9579,-0.9579,-0.9381,-0.9278,-0.9278,-0.8482,-0.8084,-0.8035,-0.7238,-0.6539,-1.0491,-1.0868,-1.1265,-1.1858,-1.2268,-1.2637,-1.3122,-1.366,-1.3828,-1.2769,-1.2874,-1.2793,-1.1628,-1.1213,-1.1008,-1.0865,-1.0733,-1.0529,-1.0399,-1.0414,-1.0327,-1.0321,-1.0271,-1.0316,0.0,-1.2223,-1.3027,-1.2001,-1.1795,-1.1842,-1.2234,-1.209,-1.257,-1.3896,-1.3734,-1.3721,-1.3892,-1.3547,-1.3368,-1.336,-1.3173,-1.2999,-1.277,-1.277,-1.277,-1.277,-1.277,-1.277,-1.277,-1.277,-1.277,-1.282,-1.2641,-1.2462,-1.2284,-1.2105,-1.1931,-1.1784,-1.178,-1.1776,-1.1776,-1.1776,-1.1776,-1.1707,-1.135,-1.1232,-1.1151,-1.0806,-1.07,-1.0692,-1.0692,-1.0692,-1.0692,-1.0692,-1.0562,-1.0387,-1.0209,-1.0018,-0.9884,-0.9884,-0.9746,-0.9738,-1.0083,-0.986,-0.9685,-0.986,-1.0086,-1.0131,-0.9892,-0.9734,-0.9583,-0.9579,-0.9579,-0.9579,-0.9579,-0.9579,-0.9579,-0.9579,-0.9579,-0.9579,-0.9579,-0.9579,-0.9579,-0.9579,-0.8832,-0.8432,-0.8432,-0.7637,-0.7235,-0.7238,-0.6389,-0.6042,-0.8277,-0.8335,-0.8497,-0.9049,-0.9408,-0.9646,-0.9861,-1.0219,-1.0381,-1.0047,-1.0378,-1.0555,-1.019,-0.9866,-0.9612,-0.9568,-0.8864,-0.8288,-0.8181,-0.8806,-0.8892,-0.8043,-0.9318,0.0,0.0,0.0,0.0,-1.1006,-1.1456,-1.16,-1.1015,-1.1598,-1.215,-1.2745,-1.331,-1.3612,-1.3551,-1.3429,-1.325,-1.3015,-1.2954,-1.2893,-1.277,-1.277,-1.277,-1.277,-1.277,-1.277,-1.277,-1.277,-1.2767,-1.2649,-1.2653,-1.2381,-1.2113,-1.199,-1.1922,-1.1776,-1.1776,-1.1776,-1.1776,-1.1776,-1.1776,-1.1732,-1.1484,-1.1321,-1.1175,-1.094,-1.0789,-1.0692,-1.0692,-1.0692,-1.0692,-1.0692,-1.0647,-1.059,-1.0526,-1.0375,-1.0249,-1.0249,-1.0103,-1.0022,-1.0192,-1.0114,-0.992,-0.9742,-0.9766,-0.9916,-1.0213,-0.9884,-0.9669,-0.9786,-0.9697,-0.9579,-0.9579,-0.9579,-0.9579,-0.9579,-0.9579,-0.9377,-0.8832,-0.8779,-0.8531,-0.8035,-0.7736,-0.7584,-0.7584,-0.6789,-0.6389,-0.6389,-0.5586,-0.5037,-0.6691,-0.6677,-0.6744,-0.7307,-0.7479,-0.7687,-0.7866,-0.8151,-0.8257,-0.7851,-0.8172,-0.8333,-0.7937,-0.7576,-0.7497,-0.7748,-0.711,-0.6601,-0.6631,-0.7181,-0.7153,-0.6116,-0.7567,-0.8316,0.0,0.0,0.0,-0.9795,-1.0385,-1.0547,-0.9798,-1.0435,-1.1213,-1.2176,-1.2794,-1.3255,-1.3563,-1.3498,-1.3287,-1.2929,-1.2798,-1.277,-1.277,-1.277,-1.277,-1.277,-1.277,-1.2568,-1.2235,-1.2634,-1.253,-1.204,-1.1974,-1.1779,-1.146,-1.1402,-1.113,-1.0857,-1.153,-1.1776,-1.1776,-1.1776,-1.1732,-1.1582,-1.1099,-1.0806,-1.0516,-1.007,-0.9832,-0.9746,-0.9746,-0.9746,-0.9746,-0.9746,-0.9746,-0.9731,-0.9676,-0.9587,-0.9459,-0.9459,-0.9326,-0.9249,-0.9416,-0.9439,-0.9312,-0.905,-0.8973,-0.9225,-0.9935,-0.9746,-0.9571,-0.9735,-0.9543,-0.9316,-0.9131,-0.9086,-0.9015,-0.8775,-0.8574,-0.8223,-0.7726,-0.7478,-0.7229,-0.6933,-0.6434,-0.6284,-0.6484,-0.5486,-0.4989,-0.4989,-0.4485,-0.4033,-0.5631,-0.5724,-0.5919,-0.6365,-0.65,-0.6568,-0.6892,-0.7242,-0.7197,-0.6115,-0.6208,-0.6127,-0.4917,-0.4769,-0.4967,-0.5536,-0.5669,-0.5752,-0.5682,-0.5567,-0.5315,0.0,0.0,0.0,0.0,0.0,0.0,-0.8424,0.0,-0.8839,-0.8659,-0.8652,-0.9732,-1.1961,-1.2105,-1.2674,-1.38,-1.3552,-1.3287,-1.2941,-1.2714,-1.2638,-1.2638,-1.2638,-1.2638,-1.2638,-1.2638,-1.2037,-1.1233,-1.2235,-1.1938,-1.0926,-1.0767,-1.0671,-1.0511,-1.03,-0.9633,-0.9079,-1.0978,-1.1655,-1.1651,-1.1643,-1.1519,-1.1165,-1.0157,-0.9656,-0.9342,-0.8291,-0.7974,-0.7974,-0.7974,-0.7974,-0.7974,-0.7974,-0.7974,-0.7941,-0.7822,-0.7795,-0.7795,-0.7795,-0.7636,-0.7624,-0.7932,-0.7968,-0.7907,-0.7907,-0.7801,-0.8069,-0.9209,-0.93,-0.9288,-0.9248,-0.908,-0.8698,-0.8131,-0.8045,-0.7816,-0.7167,-0.6623,-0.6323,-0.6323,-0.5824,-0.5772,-0.6224,-0.4977,-0.458,-0.5081,-0.3831,-0.318,-0.318,-0.318,-0.318,-0.319,-0.3106,-0.3201,-0.3304,-0.3338,-0.3372,-0.3477,-0.3583,-0.3532,-0.3229,-0.3644,-0.3903,-0.3522,-0.3976,-0.4517,-0.4685,-0.4865,0.0,-0.501,-0.4953,0.0,-0.4592,0.0,-0.4873,-0.4724,-0.5392,0.0,0.0,-0.7637,-0.8509,-0.7532,-0.8333,-0.9095,-0.9585,-1.0449,-1.1281,-1.2183,-1.1961,-1.1375,-1.0495,-1.0459,-1.0442,-1.0442,-1.0442,-1.0442,-1.0442,-1.0442,-1.024,-1.0041,-1.0309,-1.0159,-0.9818,-0.9681,-0.9541,-0.9398,-0.9255,-0.9022,-0.8897,-0.9387,-0.9572,-0.9552,-0.9503,-0.944,-0.9301,-0.8877,-0.8663,-0.8546,-0.8125,-0.7974,-0.7974,-0.7974,-0.7974,-0.7974,-0.7974,-0.7974,-0.7965,-0.7932,-0.7926,-0.7926,-0.7926,-0.7895,-0.7783,-0.7406,-0.7229,-0.7002,-0.6565,-0.6368,-0.6744,-0.8191,-0.8078,-0.7769,-0.7516,-0.7223,-0.6888,-0.6289,-0.6244,-0.6209,-0.5997,-0.5879,-0.5525,-0.4929,-0.4778,-0.4479,-0.4031,-0.3681,-0.358,-0.3731,-0.338,-0.318,-0.318,-0.318,-0.2977,-0.2167,-0.2095,-0.2138,-0.2218,-0.2168,-0.2176,-0.2163,-0.2183,-0.2193,-0.2149,-0.2442,-0.2663,-0.2562,-0.3007,-0.348,-0.3801,0.0,0.0,-0.419,-0.4158,-0.3977,0.0,-0.395,0.0,-0.4029,-0.4427,-0.471,0.0,-0.6213,-0.6827,-0.6091,-0.6675,-0.7221,-0.7702,-0.8278,-0.9056,-0.9986,-0.9775,-0.937,-0.8647,-0.8659,-0.8701,-0.8701,-0.8701,-0.8701,-0.8701,0.0,-0.8435,-0.8041,-0.8501,-0.8299,-0.7727,-0.7683,-0.7575,-0.7463,-0.735,-0.7001,-0.6696,-0.7126,-0.7001,-0.6869,-0.8262,-0.8644,-0.8463,-0.791,-0.7675,-0.7519,-0.7004,-0.6874,-0.6874,-0.6874,-0.6874,-0.6816,-0.6533,-0.6478,-0.6366,-0.6144,-0.6089,-0.6089,-0.6089,-0.6089,-0.5977,-0.5644,-0.5486,-0.5343,-0.5013,-0.4865,-0.5089,-0.5961,-0.6348,-0.6421,-0.623,-0.5977,-0.5579,-0.504,-0.5005,-0.4854,-0.4553,-0.4351,-0.3976,-0.3525,-0.3275,-0.3075,-0.2876,-0.2625,-0.2625,-0.2826,-0.2625,-0.2474,-0.2474,-0.2474,-0.2323,-0.2081,-0.2112,-0.2121,-0.2143,-0.2218,-0.2213,-0.2111,-0.2127,-0.2197,-0.213,-0.2055,-0.2048,-0.2018,-0.2063,-0.2313,-0.296,0.0,-0.325,-0.3337,-0.3321,-0.3018,-0.2455,-0.2952,-0.3386,-0.3347,-0.4027,-0.4422,-0.4458,-0.4513,-0.4651,-0.4687,-0.4681,-0.5163,-0.6165,-0.6306,-0.669,-0.7435,-0.7488,-0.7392,-0.7084,-0.7067,-0.7093,-0.7093,-0.7093,-0.7093,-0.7093,0.0,0.0,-0.5769,-0.6696,-0.6442,-0.5443,-0.5494,-0.5416,-0.5276,-0.5259,-0.4677,-0.4004,-0.4923,-0.4616,-0.437,-0.7213,-0.7971,-0.7619,-0.6889,-0.6467,-0.6156,-0.538,-0.5156,-0.5156,-0.5156,-0.5156,-0.5044,-0.448,-0.4369,-0.4257,-0.3699,-0.3587,-0.3587,-0.3587,-0.3587,-0.3587,-0.3475,-0.3475,-0.3475,-0.3363,-0.3363,-0.3363,-0.3363,-0.44,-0.5097,-0.5045,-0.4878,-0.4502,-0.392,-0.3859,-0.3595,-0.3003,-0.2561,-0.2312,-0.2312,-0.1866,-0.1818,-0.227,-0.1818,-0.1818,-0.227,-0.1818,-0.1617,-0.1617,-0.1621,-0.1623,-0.2104,-0.2128,-0.2142,-0.2122,-0.2136,-0.2207,-0.2084,-0.2095,-0.2093,-0.2009,-0.201,-0.2018,-0.1989,-0.2032,-0.2164,-0.2315,-0.2458,-0.2537,-0.2554,-0.2562,-0.2561,0.0,-0.2486,-0.256,-0.2565,-0.2743,0.0,0.0,0.0,-0.3434,-0.4687,-0.4755,-0.485,-0.4876,-0.5723,-0.5796,-0.5042,-0.5848,-0.5733,-0.4852,-0.4839,-0.4833,-0.4833,-0.4833,-0.4833,-0.4833,-0.4833,0.0,-0.4568,-0.4768,-0.473,-0.4537,-0.4406,-0.4341,-0.434,-0.4213,-0.4066,-0.3944,-0.4127,-0.4066,-0.3989,-0.4485,-0.4609,-0.4566,-0.4273,-0.4164,-0.4089,-0.3979,-0.3923,-0.3923,-0.3923,-0.3923,-0.3867,-0.3755,-0.3755,-0.3699,-0.3643,-0.3587,-0.3587,-0.3587,-0.3587,-0.3419,-0.2917,-0.2862,-0.2692,-0.2187,-0.2131,-0.2131,-0.2131,-0.313,-0.3625,-0.314,-0.2989,-0.2707,-0.2122,-0.2034,-0.2001,-0.1783,-0.1761,-0.1727,-0.1727,-0.1653,-0.1667,-0.1717,-0.1667,-0.1667,-0.1717,-0.1667,-0.1617,-0.1618,-0.1643,-0.1706,-0.2101,-0.212,-0.2131,-0.2133,-0.2132,-0.2115,-0.2054,-0.2052,-0.2041,-0.1968,-0.1976,-0.1988,-0.1958,-0.2014,-0.2143,-0.2122,-0.2206,-0.2288,-0.2346,-0.238,-0.24,-0.24,-0.24,-0.2406,-0.2422,-0.2423,0.0,0.0,0.0,-0.2785,-0.3494,-0.3522,-0.3489,-0.3394,-0.3845,-0.3807,-0.3297,-0.3732,-0.3693,-0.3196,-0.3239,-0.3228,-0.3228,-0.3228,-0.3228,-0.3228,-0.3228,0.0,-0.3227,-0.3203,-0.3181,-0.3155,-0.3022,-0.2983,-0.3022,-0.2916,-0.29,-0.29,-0.29,-0.29,-0.2889,-0.2825,-0.3261,-0.3816,-0.37,-0.3638,-0.3587,-0.3587,-0.3587,-0.3587,-0.3587,-0.3587,-0.3531,-0.3197,-0.2915,-0.2635,-0.2635,-0.2635,-0.2635,-0.2635,-0.2635,-0.2579,-0.23,-0.2244,-0.2132,-0.1851,-0.1795,-0.1795,-0.1795,-0.2283,-0.2493,-0.2217,-0.2166,-0.202,-0.174,-0.1658,-0.1635,-0.162,-0.1633,-0.1634,-0.167,-0.1633,-0.1633,-0.1617,-0.1617,-0.1617,-0.1617,-0.1617,-0.1617,-0.1618,-0.1648,-0.1714,-0.2098,-0.2114,-0.2123,-0.2141,-0.2132,-0.21,-0.2026,-0.2019,-0.2006,-0.1928,-0.1941,-0.196,-0.1936,-0.1988,-0.2044,-0.2069,-0.2148,-0.2226,-0.2283,-0.2335,-0.2371,-0.2378,-0.239,0.0,-0.2422,-0.2402,0.0,0.0,0.0,0.0,-0.236,-0.2316,-0.2295,-0.2304,-0.2195,-0.2251,-0.2262,-0.2221,-0.2197,-0.219,-0.2166,-0.2222,-0.2222,-0.2222,-0.2222,-0.2222,-0.2222,0.0,0.0,-0.2122,-0.2106,-0.2094,-0.2039,-0.2015,-0.2007,-0.1984,-0.1977,-0.1977,-0.1977,-0.1977,-0.1973,-0.1949,-0.2573,-0.3414,-0.3402,-0.3272,-0.3195,-0.3195,-0.3195,-0.3195,-0.3195,-0.3204,-0.3103,-0.2663,-0.2149,-0.1806,-0.1813,-0.1814,-0.1812,-0.1806,-0.1805,-0.1803,-0.1796,-0.1795,-0.1795,-0.1795,-0.1795,-0.1795,-0.1795,-0.1795,-0.1795,-0.1795,-0.1774,-0.1811,-0.1805,-0.1722,-0.1699,-0.1686,-0.1685,-0.1673,-0.1695,-0.17,-0.1641,-0.1617,-0.1617,-0.1617,-0.1617,-0.1617,-0.1617,-0.1618,-0.1648,-0.1717,-0.2115,-0.2129,-0.2144,-0.212,-0.2132,-0.2187,-0.2006,-0.2022,-0.202,-0.1819,-0.1836,-0.1934,-0.1871,-0.1938,-0.1979,-0.2088,-0.2091,-0.213,-0.2271,-0.2318,-0.2347,-0.2375,0.0,0.0,-0.2426,-0.2421,0.0,0.0,0.0,0.0,-0.23,-0.2294,-0.2266,-0.2214,-0.2234,-0.222,-0.2235,-0.2189,-0.2186,-0.2226,-0.2223,-0.2222,-0.2222,-0.2222,-0.2222,-0.2222,-0.2222,0.0,0.0,-0.2122,-0.2093,-0.2065,-0.2031,-0.2003,-0.198,-0.1977,-0.1977,-0.1977,-0.1977,-0.1977,-0.1976,-0.1973,-0.2054,-0.2057,-0.2026,-0.1992,-0.1963,-0.1963,-0.1963,-0.1963,-0.1963,-0.1985,-0.1958,-0.1988,-0.1857,-0.1844,-0.1871,-0.1877,-0.1869,-0.1784,-0.1779,-0.1827,-0.18,-0.1795,-0.1795,-0.1795,-0.1795,-0.1795,-0.1795,-0.1795,-0.1795,-0.1795,-0.1793,-0.178,-0.1807,-0.1722,-0.1682,-0.1628,-0.1625,-0.1611,-0.163,-0.1607,-0.162,-0.1617,-0.1617,-0.1617,-0.1617,-0.1617,-0.1617,-0.1618,-0.1648,-0.1676,-0.2103,-0.2131,-0.2219,-0.214,-0.2118,-0.2082,-0.2017,-0.2007,-0.1984,-0.1887,-0.1902,-0.1926,-0.1907,-0.1919,-0.1947,-0.1994,-0.2022,-0.2064,-0.2143,-0.2211,-0.2271,-0.232,-0.2362,0.0,0.0,0.0,0.0,0.0,0.0,0.0,-0.2238,-0.2253,-0.2252,-0.2228,-0.2204,-0.2188,-0.2182,-0.2176,-0.2166,-0.2222,-0.2222,-0.2222,-0.2222,-0.2222,-0.2222,-0.2222,-0.2222,0.0,0.0,-0.2095,-0.2064,-0.2033,-0.2005,-0.1986,-0.1977,-0.1977,-0.1977,-0.1977,-0.1977,-0.1977,-0.1973,-0.1955,-0.192,-0.1883,-0.1871,-0.1847,-0.1819,-0.18,-0.1795,-0.1795,-0.1795,-0.1818,-0.179,-0.1879,-0.1877,-0.1871,-0.1883,-0.1886,-0.1882,-0.187,-0.1853,-0.1779,-0.1824,-0.1807,-0.1795,-0.1795,-0.1795,-0.1795,-0.1795,-0.1795,-0.1795,-0.1795,-0.1795,-0.179,-0.1778,-0.1765,-0.1749,-0.1725,-0.1724,-0.171,-0.1733,-0.1743,-0.1688,-0.167,-0.1653,-0.1644,-0.1644,-0.1626,-0.1626,-0.1645,-0.1674,-0.1693,-0.2106,-0.2138,-0.2224,-0.2233,-0.2122,-0.2065,-0.2017,-0.1997,-0.1967,-0.1889,-0.1904,-0.1924,-0.1903,-0.1917,-0.1934,-0.1943,-0.1979,-0.2022,-0.2071,-0.214,-0.2206,-0.2258,0.0,0.0,0.0,0.0,0.0,0.0,0.0,0.0,0.0,-0.222,-0.2228,-0.2219,-0.2177,-0.2232,-0.2187,-0.2233,-0.2222,-0.2222,-0.2222,-0.2222,-0.2222,-0.2222,-0.2222,-0.2222,0.0,0.0,0.0,-0.2067,-0.2037,-0.2016,-0.1988,-0.1977,-0.1977,-0.1977,-0.1977,-0.1977,-0.1977,-0.1977,-0.1973,-0.1952,-0.193,-0.1911,-0.1902,-0.1872,-0.178,-0.1825,-0.1815,-0.181,-0.1819,-0.1831,-0.1795,-0.1901,-0.1906,-0.1902,-0.1911,-0.1913,-0.191,-0.1901,-0.1874,-0.1851,-0.1784,-0.1815,-0.1795,-0.1795,-0.1795,-0.1795,-0.1795,-0.1795,-0.1795,-0.1795,-0.1795,-0.1795,-0.1795,-0.1795,-0.1791,-0.1782,-0.1782,-0.1767,-0.1792,-0.179,-0.1726,-0.1705,-0.1677,-0.1714,-0.1714,-0.1632,-0.1628,-0.165,-0.1678,-0.1696,-0.2204,-0.2222,-0.223,-0.2192,-0.2154,-0.2086,-0.1997,-0.1998,-0.1984,-0.1807,-0.183,-0.1871,-0.1871,-0.1871,-0.1941,-0.1971,-0.1977,-0.2008,-0.2096,-0.2136,-0.2166,0.0,0.0,0.0,0.0,0.0,0.0,0.0,0.0,0.0,0.0,-0.22,-0.2187,-0.2224,-0.2223,-0.2222,-0.2223,-0.2222,-0.2222,-0.2222,-0.2222,-0.2222,-0.2222,-0.2222,-0.2222,0.0,0.0,0.0,0.0,-0.2044,-0.2019,-0.2016,-0.1988,-0.1977,-0.1977,-0.1977,-0.1977,-0.1977,-0.1977,-0.1977,-0.1977,-0.1976,-0.1976,-0.197,-0.194,-0.183,-0.1789,-0.1877,-0.1863,-0.179,-0.1877,-0.1863,-0.1863,-0.1954,-0.1952,-0.1939,-0.1969,-0.1975,-0.1967,-0.1937,-0.1906,-0.1876,-0.1788,-0.1815,-0.1795,-0.1795,-0.1795,-0.1795,-0.1795,-0.1795,-0.1795,-0.1795,-0.1795,-0.1795,-0.1795,-0.1795,-0.1782,-0.1807,-0.1804,-0.179,-0.1706,-0.1705,-0.1705,-0.1704,-0.1677,-0.1714,-0.1714,-0.1632,-0.1617,-0.1618,-0.1649,-0.1677,-0.3512,-0.3372,-0.3203,-0.2367,-0.2063,-0.2006,-0.1956,-0.1937,-0.1905,-0.1825,-0.1841,-0.1817,-0.1896,-0.19,-0.1923,-0.1994,-0.2005,-0.2022,-0.2071,0.0,0.0,-0.2196,-0.2253,0.0,0.0,0.0,0.0,0.0,0.0,0.0,0.0,-0.2169,-0.2232,-0.2223,-0.2222,-0.2222,-0.2222,-0.2222,-0.2222,-0.2222,-0.2222,-0.2222,-0.2222,-0.2222,0.0,0.0,0.0,0.0,0.0,-0.2035,-0.2007,-0.1989,-0.198,-0.1977,-0.1977,-0.1977,-0.1977,-0.1977,-0.1977,-0.1977,-0.1973,-0.1952,-0.1945,-0.1944,-0.1934,-0.1903,-0.1869,-0.1857,-0.1863,-0.1879,-0.1909,-0.1909,-0.1915,-0.1964,-0.1969,-0.1964,-0.1975,-0.1977,-0.1974,-0.1964,-0.1937,-0.1913,-0.1844,-0.1877,-0.1857,-0.1857,-0.1839,-0.1834,-0.1854,-0.1821,-0.1803,-0.1823,-0.1808,-0.1795,-0.1795,-0.1795,-0.1791,-0.1781,-0.178,-0.1776,-0.1767,-0.1766,-0.1766,-0.1766,-0.1791,-0.1776,-0.1776,-0.1691,-0.1687,-0.1761,-0.1771,-0.178,-0.4883,-0.4525,-0.4378,-0.3659,-0.3387,-0.3231,-0.2779,-0.262,-0.2455,-0.1936,-0.1836,-0.1867,-0.1897,-0.1903,-0.1925,-0.1992,-0.2003,-0.2017,-0.2122,0.0,0.0,-0.2195,0.0,0.0,0.0,0.0,0.0,0.0,0.0,0.0,0.0,-0.2222,-0.2222,-0.2222,-0.2222,-0.2222,-0.2222,-0.2222,-0.2222,-0.2222,-0.2222,-0.2222,-0.2222,-0.2222,0.0,0.0,0.0,0.0,0.0,-0.2015,-0.1992,-0.1977,-0.1977,-0.1977,-0.1977,-0.1977,-0.1977,-0.1977,-0.1977,-0.1977,-0.1973,-0.1954,-0.1948,-0.1946,-0.1934,-0.1926,-0.1913,-0.1883,-0.1888,-0.1907,-0.1926,-0.1871,-0.1939,-0.1969,-0.1977,-0.1977,-0.1977,-0.1977,-0.1977,-0.1977,-0.1952,-0.1871,-0.1871,-0.1906,-0.1886,-0.1886,-0.187,-0.1864,-0.1883,-0.1842,-0.1819,-0.1781,-0.1813,-0.1795,-0.1795,-0.1795,-0.1795,-0.1795,-0.1795,-0.1795,-0.1795,-0.1795,-0.1795,-0.1795,-0.182,-0.1804,-0.1804,-0.1719,-0.172,-0.1804,-0.1792,-0.1793,0.0,-0.5691,-0.5677,-0.5772,-0.5629,-0.5212,-0.4258,-0.3852,0.0,-0.2302,-0.1976,-0.1948,-0.1982,-0.1926,-0.1937,-0.1973,-0.1978,-0.1998,0.0,-0.2095,0.0,0.0,0.0,0.0,0.0,0.0,0.0,0.0,0.0,0.0,0.0,-0.2222,-0.2222,-0.2222,-0.2222,-0.2222,-0.2222,-0.2222,-0.2222,-0.2222,-0.2222,-0.2222,-0.2222,-0.2222,0.0,0.0,0.0,0.0,0.0,-0.1988,-0.1977,-0.1977,-0.1977,-0.1977,-0.1977,-0.1977,-0.1977,-0.1976,-0.1974,-0.1975,-0.1977,-0.1977,-0.1977,-0.1971,-0.1943,-0.1954,-0.197,-0.194,-0.1932,-0.1934,-0.1934,-0.1934,-0.1941,-0.197,-0.1977,-0.1977,-0.1977,-0.1977,-0.1977,-0.1977,-0.1954,-0.1934,-0.1934,-0.1911,-0.1892,-0.1892,-0.189,-0.1889,-0.1892,-0.1864,-0.1786,-0.1786,-0.1817,-0.1797,-0.1739,-0.1795,-0.1795,-0.1795,-0.1795,-0.1795,-0.1795,-0.1795,-0.1795,-0.1795,-0.1822,-0.1807,-0.1807,-0.1725,-0.1725,-0.1807,-0.1724,-0.1726,-0.8263,0.0,-0.6712,-0.5807,-0.5481,-0.5328,0.0,-0.4294,-0.3788,-0.4445,-0.3107,-0.2118,-0.3119,-0.2462,-0.1834,-0.1992,-0.199,-0.2005,-0.2087,0.0,0.0,0.0,0.0,0.0,0.0,0.0,0.0,0.0,0.0,0.0,0.0,-0.2222,-0.2222,-0.2222,-0.2222,-0.2222,-0.2222,-0.2222,-0.2222,-0.2222,-0.2222,-0.2222,-0.2222,-0.2222,0.0,0.0,0.0,0.0,-0.2016,-0.1988,-0.1977,-0.1977,-0.1977,-0.1977,-0.1977,-0.1977,-0.1977,-0.1973,-0.195,-0.1957,-0.1977,-0.1977,-0.1977,-0.1975,-0.1968,-0.1971,-0.197,-0.194,-0.1948,-0.1966,-0.1966,-0.1966,-0.1968,-0.1975,-0.1977,-0.1977,-0.1977,-0.1977,-0.1977,-0.1977,-0.1971,-0.1966,-0.1966,-0.196,-0.1955,-0.1955,-0.1935,-0.1929,-0.1952,-0.1909,-0.1875,-0.1875,-0.1848,-0.1706,-0.146,-0.1627,-0.1795,-0.1795,-0.1795,-0.1795,-0.1795,-0.157,-0.1514,-0.1795,-0.1788,-0.1784,-0.1784,-0.1777,-0.1777,-0.1784,-0.1499,-0.1388,-0.8885,-0.8589,-0.8071,-0.7431,-0.7237,-0.6995,-0.6529,-0.5799,-0.5087,-0.4639,-0.3525,-0.266,-0.2866,-0.2339,-0.1892,-0.1984,-0.1997,0.0,0.0,0.0,0.0,0.0,0.0,0.0,0.0,0.0,0.0,0.0,0.0,0.0,0.0,-0.2222,-0.2222,-0.2222,-0.2222,-0.2222,-0.2222,-0.2222,-0.2222,-0.2222,-0.2222,-0.2214,-0.2133,-0.2133,-0.211,0.0,0.0,0.0,-0.1998,-0.1983,-0.1977,-0.1975,-0.1961,-0.1964,-0.1973,-0.1945,-0.1944,-0.1952,-0.1921,-0.193,-0.1958,-0.1972,-0.1915,-0.1791,-0.1791,-0.1667,-0.1603,-0.1895,-0.1964,-0.1977,-0.1977,-0.1977,-0.1977,-0.1977,-0.1977,-0.1977,-0.1977,-0.1977,-0.1977,-0.1977,-0.1977,-0.1977,-0.1977,-0.1977,-0.1977,-0.1977,-0.1962,-0.1896,-0.1789,-0.1693,-0.1609,-0.143,-0.14,-0.1318,-0.1135,-0.1295,-0.1402,-0.1402,-0.1402,-0.1402,-0.1402,-0.1234,-0.1177,-0.1402,-0.1402,-0.1402,-0.1402,-0.1402,-0.1402,-0.1402,-0.1177,-0.1121,-0.8875,-0.9076,-0.9296,-0.93,-0.9215,-0.8924,-0.8008,-0.7296,-0.6369,-0.4751,-0.3811,-0.312,-0.2576,-0.2125,-0.1913,-0.1973,0.0,0.0,-0.2137,0.0,0.0,0.0,0.0,0.0,0.0,0.0,0.0,0.0,0.0,0.0,0.0,-0.2217,-0.2215,-0.2215,-0.221,-0.2208,-0.2208,-0.2217,-0.2222,-0.2222,-0.2217,-0.2134,-0.2109,-0.2104,-0.2071,0.0,0.0,0.0,-0.1977,-0.1977,-0.1977,-0.1974,-0.1887,-0.189,-0.1902,-0.1797,-0.1791,-0.1741,-0.1781,-0.173,-0.1754,-0.1844,-0.1667,-0.142,-0.142,-0.1235,-0.1111,-0.1667,-0.1915,-0.1915,-0.1915,-0.1977,-0.1977,-0.1915,-0.1977,-0.1977,-0.1977,-0.1977,-0.1915,-0.1915,-0.1853,-0.1853,-0.1853,-0.1853,-0.1853,-0.1853,-0.1853,-0.1729,-0.1482,-0.1404,-0.121,-0.0905,-0.0883,-0.0868,-0.0808,-0.0798,-0.0791,-0.0791,-0.0844,-0.0897,-0.0841,-0.0897,-0.0897,-0.0841,-0.0897,-0.0897,-0.0897,-0.0897,-0.0897,-0.0897,-0.0841,-0.0841,-0.8848,-0.9232,-0.9456,-0.9096,-0.8988,-0.8922,-0.8719,-0.7118,-0.6142,-0.7765,-0.4863,-0.2647,-0.4564,-0.3271,-0.1943,-0.2003,0.0,-0.21,0.0,0.0,0.0,0.0,0.0,0.0,0.0,0.0,0.0,0.0,0.0,0.0,0.0,-0.213,-0.2116,-0.2116,-0.2091,-0.2143,-0.2143,-0.2195,-0.2222,-0.2222,-0.2129,-0.2114,-0.2108,-0.2082,-0.2052,0.0,0.0,-0.2003,-0.1977,-0.1977,-0.1977,-0.1976,-0.1663,-0.159,-0.1516,-0.1222,-0.1148,-0.1125,-0.1138,-0.1084,-0.1089,-0.1106,-0.1111,-0.105,-0.105,-0.105,-0.105,-0.1111,-0.1359,-0.1606,-0.1606,-0.1791,-0.1915,-0.1667,-0.1791,-0.1977,-0.1977,-0.1791,-0.1606,-0.1606,-0.1359,-0.1173,-0.1173,-0.1173,-0.1173,-0.1173,-0.1173,-0.1112,-0.1111,-0.1047,-0.1041,-0.0906,-0.0901,-0.0774,-0.0529,-0.0469,-0.0351,-0.0175,-0.0627,-0.0785,-0.0505,-0.0729,-0.0785,-0.0505,-0.0729,-0.0897,-0.0897,-0.0897,-0.0897,-0.0897,-0.0617,-0.0505,-0.8774,-0.8967,-0.913,-0.9167,-0.9296,-0.9182,-0.842,-0.7367,-0.645,-0.6163,-0.4334,-0.2903,-0.3247,-0.2369,-0.1609,-0.1477,0.0,0.0,0.0,0.0,0.0,0.0,0.0,0.0,0.0,0.0,0.0,0.0,0.0,0.0,0.0,0.0,-0.2109,-0.2109,-0.208,-0.2128,-0.2128,-0.2157,-0.2171,-0.2171,-0.2091,-0.2076,-0.206,-0.2046,-0.2023,-0.1996,0.0,-0.1926,-0.1729,-0.1729,-0.1598,-0.1464,-0.122,-0.1214,-0.1208,-0.1034,-0.0956,-0.0934,-0.0957,-0.0905,-0.0907,-0.0983,-0.0864,-0.0741,-0.0741,-0.0617,-0.0494,-0.0679,-0.0988,-0.1235,-0.1235,-0.1359,-0.142,-0.1297,-0.1359,-0.1482,-0.1482,-0.1359,-0.1235,-0.1235,-0.1111,-0.0988,-0.0988,-0.0988,-0.0988,-0.0988,-0.0988,-0.0926,-0.0741,-0.0741,-0.0677,-0.0428,-0.0424,-0.0361,-0.0179,-0.0178,-0.0118,0.0,-0.0288,-0.0341,-0.0171,-0.0338,-0.0336,-0.0168,-0.0336,-0.0393,-0.0393,-0.0393,-0.0393,-0.0393,-0.028,-0.0168,-0.8615,-0.8733,-0.8896,-0.9242,-0.9445,-0.9198,-0.7991,-0.7266,-0.6323,-0.4425,-0.3529,-0.2748,-0.1848,-0.149,0.0,-0.1048,-0.0991,0.0,0.0,0.0,0.0,0.0,0.0,0.0,0.0,0.0,0.0,0.0,0.0,0.0,0.0,0.0,-0.1833,-0.1828,-0.1866,-0.1851,-0.1851,-0.1851,-0.1922,-0.2128,-0.1992,-0.191,-0.1883,-0.182,-0.174,-0.1772,-0.1785,-0.1599,-0.1406,-0.1354,-0.1221,-0.096,-0.0843,-0.0784,-0.0784,-0.0721,-0.0712,-0.0704,-0.0719,-0.0665,-0.0669,-0.0738,-0.0617,-0.037,-0.037,-0.0185,-0.0062,-0.0309,-0.0556,-0.0803,-0.0864,-0.0926,-0.0988,-0.0926,-0.0926,-0.0988,-0.0988,-0.0926,-0.0864,-0.0864,-0.0803,-0.0741,-0.0741,-0.0741,-0.0741,-0.0741,-0.0741,-0.0679,-0.0432,-0.037,-0.0309,0.0,0.0,0.0,0.0,0.0,0.0,0.0,0.0,0.0,0.0,0.0,0.0,0.0,0.0,0.0,0.0,0.0,0.0,0.0,0.0,0.0,-0.8459,-0.8859,-0.9183,-0.9217,-0.8977,-0.8614,-0.7869,-0.6237,-0.4913,-0.4959,-0.2952,-0.1379,-0.2408,-0.1766,-0.1034,-0.1117,0.0,0.0,0.0,0.0,0.0,0.0,0.0,0.0,0.0,0.0,0.0,0.0,0.0,0.0,0.0,0.0,0.0,-0.1077,-0.1062,-0.1053,-0.1053,-0.1053,-0.1444,-0.2128,-0.1717,-0.1568,-0.1547,-0.1237,-0.1095,-0.1066,-0.1098,-0.1033,-0.1007,-0.1037,-0.1031,-0.0946,-0.066,-0.0362,-0.006,-0.0059,-0.006,-0.0061,-0.0061,-0.0061,-0.0062,-0.0062,-0.0062,-0.0062,-0.0062,0.0,0.0,0.0,-0.0062,-0.0123,-0.0432,-0.0741,-0.0926,-0.0617,-0.0803,-0.0988,-0.0988,-0.0741,-0.0556,-0.0556,-0.0309,-0.0062,-0.0062,-0.0062,-0.0062,-0.0062,-0.0062,-0.0062,-0.0062,-0.0062,0.0,0.0,0.0,0.0,0.0,0.0,0.0,0.0,0.0,0.0,0.0,0.0,0.0,0.0,0.0,0.0,0.0,0.0,0.0,0.0,0.0,0.0,-0.8309,-0.8679,-0.9042,-0.9187,-0.9125,-0.877,-0.7726,-0.6238,-0.48,-0.4042,-0.2333,-0.1033,-0.1272,0.0,-0.0393,-0.0395,0.0,0.0,0.0,0.0,0.0,0.0,0.0,0.0,0.0,0.0,0.0,0.0,0.0,0.0,0.0,0.0,0.0,-0.1011,-0.0996,-0.0988,-0.0988,-0.0979,-0.1163,-0.1424,-0.1243,-0.1173,-0.1156,-0.1035,-0.1023,-0.1003,-0.1025,-0.0902,-0.0708,-0.0664,-0.0538,-0.0349,-0.0236,-0.0119,0.0,0.0,0.0,0.0,0.0,0.0,0.0,0.0,0.0,0.0,0.0,0.0,0.0,0.0,0.0,0.0,-0.0185,-0.0309,-0.037,-0.0247,-0.0309,-0.037,-0.037,-0.0309,-0.0185,-0.0185,-0.0062,0.0,0.0,0.0,0.0,0.0,0.0,0.0,0.0,0.0,0.0,0.0,0.0,0.0,0.0,0.0,0.0,0.0,0.0,0.0,0.0,0.0,0.0,0.0,0.0,0.0,0.0,0.0,0.0,0.0,0.0,0.0,-0.8241,-0.8564,-0.8903,-0.9049,-0.8831,-0.832,-0.7436,-0.599,-0.4395,-0.2693,-0.1449,-0.0588,-0.0388,-0.013,0.0,0.0,0.0,0.0,0.0,0.0,0.0,0.0,0.0,0.0,0.0,0.0,0.0,0.0,0.0,0.0,0.0,0.0,0.0,0.0,-0.0683,-0.0679,-0.0679,-0.0669,-0.0664,-0.0664,-0.0667,-0.0724,-0.0832,-0.0717,-0.071,-0.0697,-0.0712,-0.0532,-0.0349,-0.0356,-0.0236,0.0,0.0,0.0,0.0,0.0,0.0,0.0,0.0,0.0,0.0,0.0,0.0,0.0,0.0,0.0,0.0,0.0,0.0,0.0,0.0,0.0,0.0,0.0,0.0,0.0,0.0,0.0,0.0,0.0,0.0,0.0,0.0,0.0,0.0,0.0,0.0,0.0,0.0,0.0,0.0,0.0,0.0,0.0,0.0,0.0,0.0,0.0,0.0,0.0,0.0,0.0,0.0,0.0,0.0,0.0,0.0,0.0,0.0,0.0,0.0,0.0,-0.832,-0.8486,-0.8747,-0.8841,-0.8027,-0.7101,-0.681,-0.5399,-0.35,-0.106,-0.0263,0.0,0.0,0.0,0.0,0.0,0.0,0.0,0.0,0.0,0.0,0.0,0.0,0.0,0.0,0.0,0.0,0.0,0.0,0.0,0.0,0.0,0.0,0.0,0.0,0.0,0.0,0.0,0.0,0.0,0.0,-0.0175,-0.046,-0.0175,0.0,0.0,0.0,0.0,0.0,0.0,0.0,0.0,0.0,0.0,0.0,0.0,0.0,0.0,0.0,0.0,0.0,0.0,0.0,0.0,0.0,0.0,0.0,0.0,0.0,0.0,0.0,0.0,0.0,0.0,0.0,0.0,0.0,0.0,0.0,0.0,0.0,0.0,0.0,0.0,0.0,0.0,0.0,0.0,0.0,0.0,0.0,0.0,0.0,0.0,0.0,0.0,0.0,0.0,0.0,0.0,0.0,0.0,0.0,0.0,0.0,0.0,0.0,0.0,0.0,0.0,0.0,0.0,-0.8167,-0.8404,-0.8501,-0.756,-0.7185,-0.6421,-0.4366,-0.3507,-0.2579,-0.0591,-0.0065,0.0,0.0,0.0,0.0,0.0,0.0,0.0,0.0,0.0,0.0,0.0,0.0,0.0,0.0,0.0,0.0,0.0,0.0,0.0,0.0,0.0,0.0,0.0,0.0,0.0,0.0,0.0,0.0,0.0,0.0,-0.0057,-0.0173,-0.0058,0.0,0.0,0.0,0.0,0.0,0.0,0.0,0.0,0.0,0.0,0.0,0.0,0.0,0.0,0.0,0.0,0.0,0.0,0.0,0.0,0.0,0.0,0.0,0.0,0.0,0.0,0.0,0.0,0.0,0.0,0.0,0.0,0.0,0.0,0.0,0.0,0.0,0.0,0.0,0.0,0.0,0.0,0.0,0.0,0.0,0.0,0.0,0.0,0.0,0.0,0.0,0.0,0.0,0.0,0.0,0.0,0.0,0.0,0.0,0.0,0.0,0.0,0.0,0.0,0.0,0.0,0.0,0.0,-0.8359,-0.8257,-0.791,-0.7057,-0.6127,-0.4821,-0.2384,-0.1742,-0.1333,-0.0195,0.0,0.0,0.0,0.0,0.0,0.0,0.0,0.0,0.0,0.0,0.0,0.0,0.0,0.0,0.0,0.0,0.0,0.0,0.0,0.0,0.0,0.0,0.0,0.0,0.0,0.0,0.0,-0.047,-0.0696,-0.0747,-0.1186,-0.1182,-0.0683,-0.0228,0.0,0.0,0.0,0.0,0.0,0.0,0.0,0.0,0.0,0.0,0.0,0.0,0.0,0.0,0.0,0.0,0.0,0.0,0.0,0.0,0.0,0.0,0.0,0.0,0.0,0.0,0.0,0.0,0.0,0.0,0.0,0.0,0.0,0.0,0.0,0.0,0.0,0.0,0.0,0.0,0.0,0.0,0.0,0.0,0.0,0.0,0.0,0.0,0.0,0.0,0.0,0.0,0.0,0.0,0.0,0.0,0.0,0.0,0.0,0.0,0.0,0.0,0.0,0.0,0.0,0.0,0.0,0.0,-0.8688,-0.7941,-0.7049,-0.6781,-0.4811,-0.2493,-0.0815,-0.0189,0.0,0.0,0.0,0.0,0.0,0.0,0.0,0.0,0.0,0.0,0.0,0.0,0.0,0.0,0.0,0.0,0.0,0.0,0.0,0.0,0.0,0.0,0.0,0.0,0.0,0.0,-0.0181,-0.0239,-0.0353,-0.1389,-0.195,0.0,-0.31,-0.2966,-0.1735,-0.0672,-0.0112,0.0,0.0,0.0,0.0,0.0,0.0,0.0,0.0,0.0,0.0,0.0,0.0,0.0,0.0,0.0,0.0,0.0,0.0,0.0,0.0,0.0,0.0,0.0,0.0,0.0,0.0,0.0,0.0,0.0,0.0,0.0,0.0,0.0,0.0,0.0,0.0,0.0,0.0,0.0,0.0,0.0,0.0,0.0,0.0,0.0,0.0,0.0,0.0,0.0,0.0,0.0,0.0,0.0,0.0,0.0,0.0,0.0,0.0,0.0,0.0,0.0,0.0,0.0,0.0,0.0,0.0,0.0,-0.7468,-0.6751,-0.587,-0.4252,-0.249,-0.0925,-0.0252,-0.0063,0.0,0.0,0.0,0.0,0.0,0.0,0.0,0.0,0.0,0.0,0.0,0.0,0.0,0.0,0.0,0.0,0.0,0.0,0.0,0.0,0.0,0.0,0.0,0.0,0.0,-0.136,-0.1419,-0.1877,-0.2827,-0.3103,-0.3192,0.0,-0.3475,-0.2966,-0.1791,-0.1512,-0.0896,0.0,0.0,0.0,0.0,0.0,0.0,0.0,0.0,0.0,0.0,0.0,0.0,0.0,0.0,0.0,0.0,0.0,0.0,0.0,0.0,0.0,0.0,0.0,0.0,0.0,0.0,0.0,0.0,0.0,0.0,0.0,0.0,0.0,0.0,0.0,0.0,0.0,0.0,0.0,0.0,0.0,0.0,0.0,0.0,0.0,0.0,0.0,0.0,0.0,0.0,0.0,0.0,0.0,0.0,0.0,0.0,0.0,0.0,0.0,0.0,0.0,0.0,0.0,0.0,0.0,0.0,0.0,-0.6916,-0.5723,-0.4176,-0.2307,-0.1048,-0.0186,-0.0062,0.0,0.0,0.0,0.0,0.0,0.0,0.0,0.0,0.0,0.0,0.0,0.0,0.0,0.0,0.0,0.0,0.0,0.0,0.0,0.0,0.0,0.0,0.0,0.0,-0.1118,-0.1758,-0.1803,-0.2383,-0.294,-0.3572,-0.4194,-0.4458,-0.4475,-0.5033,-0.436,-0.2629,-0.1456,-0.0616,0.0,0.0,0.0,0.0,0.0,0.0,0.0,0.0,0.0,0.0,0.0,0.0,0.0,0.0,0.0,0.0,0.0,0.0,0.0,0.0,0.0,0.0,0.0,0.0,0.0,0.0,0.0,0.0,0.0,0.0,0.0,0.0,0.0,0.0,0.0,0.0,0.0,0.0,0.0,0.0,0.0,0.0,0.0,0.0,0.0,0.0,0.0,0.0,0.0,0.0,0.0,0.0,0.0,0.0,0.0,0.0,0.0,0.0,0.0,0.0,0.0,0.0,0.0,0.0,0.0,0.0,0.0,-0.6409,-0.4588,-0.2371,-0.081,-0.0187,0.0,0.0,0.0,0.0,0.0,0.0,0.0,0.0,0.0,0.0,0.0,0.0,0.0,0.0,0.0,0.0,0.0,0.0,0.0,0.0,0.0,0.0,0.0,0.0,0.0,-0.035,-0.2391,-0.3244,-0.2458,-0.337,-0.4027,-0.4195,-0.52,-0.5706,-0.5706,-0.6485,-0.5757,-0.3525,-0.1288,-0.0224,0.0,0.0,0.0,0.0,0.0,0.0,0.0,0.0,0.0,0.0,0.0,0.0,0.0,0.0,0.0,0.0,0.0,0.0,0.0,0.0,0.0,0.0,0.0,0.0,0.0,0.0,0.0,0.0,0.0,0.0,0.0,0.0,0.0,0.0,0.0,0.0,0.0,0.0,0.0,0.0,0.0,0.0,0.0,0.0,0.0,0.0,0.0,0.0,0.0,0.0,0.0,0.0,0.0,0.0,0.0,0.0,0.0,0.0,0.0,0.0,0.0,0.0,0.0,0.0,0.0,0.0,0.0,-0.5328,-0.299,-0.0737,-0.0182,-0.0062,0.0,0.0,0.0,0.0,0.0,0.0,0.0,0.0,0.0,0.0,0.0,0.0,0.0,0.0,0.0,0.0,0.0,0.0,0.0,0.0,0.0,0.0,0.0,0.0,0.0,-0.1578,-0.2872,-0.3994,-0.4884,-0.5052,-0.5661,-0.6707,-0.6874,-0.6988,-0.6932,-0.604,-0.4921,-0.358,-0.2183,-0.1009,0.0,0.0,0.0,0.0,0.0,0.0,0.0,0.0,0.0,0.0,0.0,0.0,0.0,0.0,0.0,0.0,0.0,0.0,0.0,0.0,0.0,0.0,0.0,0.0,0.0,0.0,0.0,0.0,0.0,0.0,0.0,0.0,0.0,0.0,0.0,0.0,0.0,0.0,0.0,0.0,0.0,0.0,0.0,0.0,0.0,0.0,0.0,0.0,0.0,0.0,0.0,0.0,0.0,0.0,0.0,0.0,0.0,0.0,0.0,0.0,0.0,0.0,0.0,0.0,0.0,0.0,0.0,-0.2897,-0.1325,-0.0177,-0.0061,0.0,0.0,0.0,0.0,0.0,0.0,0.0,0.0,0.0,0.0,0.0,0.0,0.0,0.0,0.0,0.0,0.0,0.0,0.0,0.0,0.0,0.0,0.0,0.0,0.0,-0.2519,-0.1847,-0.4249,-0.5534,-0.5427,-0.604,-0.6652,-0.721,-0.721,-0.721,-0.721,-0.5984,-0.4756,-0.358,-0.2351,-0.112,0.0,0.0,0.0,0.0,0.0,0.0,0.0,0.0,0.0,0.0,0.0,0.0,0.0,0.0,0.0,0.0,0.0,0.0,0.0,0.0,0.0,0.0,0.0,0.0,0.0,0.0,0.0,0.0,0.0,0.0,0.0,0.0,0.0,0.0,0.0,0.0,0.0,0.0,0.0,0.0,0.0,0.0,0.0,0.0,0.0,0.0,0.0,0.0,0.0,0.0,0.0,0.0,0.0,0.0,0.0,0.0,0.0,0.0,0.0,0.0,0.0,0.0,0.0,0.0,0.0,0.0,0.0,-0.1104,-0.0224,0.0,0.0,0.0,0.0,0.0,0.0,0.0,0.0,0.0,0.0,0.0,0.0,0.0,0.0,0.0,0.0,0.0,0.0,0.0,0.0,0.0,0.0,0.0,0.0,0.0,0.0,0.0,-0.3183,-0.228,-0.5331,-0.6709,-0.5799,-0.6654,-0.7152,-0.7119,-0.7119,-0.7136,-0.7111,-0.6224,-0.5014,-0.358,-0.2686,-0.1456,0.0,0.0,0.0,0.0,0.0,0.0,0.0,0.0,0.0,0.0,0.0,0.0,0.0,0.0,0.0,0.0,0.0,0.0,0.0,0.0,0.0,0.0,0.0,0.0,0.0,0.0,0.0,0.0,0.0,0.0,0.0,0.0,0.0,0.0,0.0,0.0,0.0,0.0,0.0,0.0,0.0,0.0,0.0,0.0,0.0,0.0,0.0,0.0,0.0,0.0,0.0,0.0,0.0,0.0,0.0,0.0,0.0,0.0,0.0,0.0,0.0,0.0,0.0,0.0,0.0,0.0,0.0,-0.0986,-0.0216,0.0,0.0,0.0,0.0,0.0,0.0,0.0,0.0,0.0,0.0,0.0,0.0,0.0,0.0,0.0,0.0,0.0,0.0,0.0,0.0,0.0,0.0,0.0,0.0,0.0,0.0,0.0,-0.3499,-0.3334,-0.5678,-0.694,-0.6719,-0.6934,-0.694,-0.6823,-0.682,-0.6877,-0.6994,-0.694,-0.5729,-0.358,-0.3525,-0.2239,0.0,0.0,0.0,0.0,0.0,0.0,0.0,0.0,0.0,0.0,0.0,0.0,0.0,0.0,0.0,0.0,0.0,0.0,0.0,0.0,0.0,0.0,0.0,0.0,0.0,0.0,0.0,0.0,0.0,0.0,0.0,0.0,0.0,0.0,0.0,0.0,0.0,0.0,0.0,0.0,0.0,0.0,0.0,0.0,0.0,0.0,0.0,0.0,0.0,0.0,0.0,0.0,0.0,0.0,0.0,0.0,0.0,0.0,0.0,0.0,0.0,0.0,0.0,0.0,0.0,0.0,0.0,-0.0723,-0.0053,0.0,0.0,0.0,0.0,0.0,0.0,0.0,0.0,0.0,0.0,0.0,0.0,0.0,0.0,0.0,0.0,0.0,0.0,0.0,0.0,0.0,0.0,0.0,0.0,0.0,0.0,0.0,0.0,-0.3383,-0.5671,-0.6929,-0.6806,-0.6844,-0.6847,-0.6801,-0.6801,-0.6825,-0.6869,-0.6185,-0.5033,-0.3468,-0.2784,-0.1567,0.0,0.0,0.0,0.0,0.0,0.0,0.0,0.0,0.0,0.0,0.0,0.0,0.0,0.0,0.0,0.0,0.0,0.0,0.0,0.0,0.0,0.0,0.0,0.0,0.0,0.0,0.0,0.0,0.0,0.0,0.0,0.0,0.0,0.0,0.0,0.0,0.0,0.0,0.0,0.0,0.0,0.0,0.0,0.0,0.0,0.0,0.0,0.0,0.0,0.0,0.0,0.0,0.0,0.0,0.0,0.0,0.0,0.0,0.0,0.0,0.0,0.0,0.0,0.0,0.0,0.0,0.0,-0.1024,-0.0258,0.0,0.0,0.0,0.0,0.0,0.0,0.0,0.0,0.0,0.0,0.0,0.0,0.0,0.0,0.0,0.0,0.0,0.0,0.0,0.0,0.0,0.0,0.0,0.0,0.0,0.0,0.0,0.0,-0.2815,-0.5052,-0.6452,-0.6744,-0.67,-0.67,-0.6741,-0.67,-0.649,-0.6213,-0.5488,-0.4312,-0.2837,-0.2098,-0.117,0.0,0.0,0.0,0.0,0.0,0.0,0.0,0.0,0.0,0.0,0.0,0.0,0.0,0.0,0.0,0.0,0.0,0.0,0.0,0.0,0.0,0.0,0.0,0.0,0.0,0.0,0.0,0.0,0.0,0.0,0.0,0.0,0.0,0.0,0.0,0.0,0.0,0.0,0.0,0.0,0.0,0.0,0.0,0.0,0.0,0.0,0.0,0.0,0.0,0.0,0.0,0.0,0.0,0.0,0.0,0.0,0.0,0.0,0.0,0.0,0.0,0.0,0.0,0.0,0.0,0.0,0.0062,0.0,0.0,0.0,0.0,0.0,0.0,0.0,0.0,0.0,0.0,0.0,0.0,0.0,0.0,0.0,0.0,0.0,0.0,0.0,0.0,0.0,0.0,0.0,0.0,0.0,0.0,0.0,0.0,0.0,-0.1754,-0.1596,-0.3757,-0.5473,-0.6511,-0.6446,-0.6443,-0.6611,-0.6446,-0.5886,-0.5008,-0.4907,-0.3793,-0.1799,-0.1746,-0.1102,0.0,0.0,0.0,0.0,0.0,0.0,0.0,0.0,0.0,0.0,0.0,0.0,0.0,0.0,0.0,0.0,0.0,0.0,0.0,0.0,0.0,0.0,0.0,0.0,0.0,0.0,0.0,0.0,0.0,0.0,0.0,0.0,0.0,0.0,0.0,0.0,0.0,0.0,0.0,0.0,0.0,0.0,0.0,0.0,0.0,0.0,0.0,0.0,0.0,0.0,0.0,0.0,0.0,0.0,0.0,0.0,0.0,0.0,0.0,0.0,0.0,0.0,0.0,0.0,0.0,0.0,0.0185,-0.1915,0.0,0.0,0.0,0.0,0.0,0.0,0.0,0.0,0.0,0.0,0.0,0.0,0.0,0.0,0.0,0.0,0.0,0.0,0.0,0.0,0.0,0.0,0.0,0.0,0.0,0.0,0.0,-0.1113,-0.1745,-0.162,-0.369,-0.497,-0.5275,-0.6002,-0.6403,-0.6435,-0.5651,-0.5098,-0.4819,-0.3292,-0.2254,-0.1609,-0.087,-0.0331,0.0,0.0,0.0,0.0,0.0,0.0,0.0,0.0,0.0,0.0,0.0,0.0,0.0,0.0,0.0,0.0,0.0,0.0,0.0,0.0,0.0,0.0,0.0,0.0,0.0,0.0,0.0,0.0,0.0,0.0,0.0,0.0,0.0,0.0,0.0,0.0,0.0,0.0,0.0,0.0,0.0,0.0,0.0,0.0,0.0,0.0,0.0,0.0,0.0,0.0,0.0,0.0,0.0,0.0,0.0,0.0,0.0,0.0,0.0,0.0,0.0128,0.0383,0.0125,0.0123,0.037,0.0617,0.0803,-0.2569,-0.1462,-0.0558,0.0,0.0,0.0,0.0,0.0,0.0,0.0,0.0,0.0,0.0,0.0,0.0,0.0,0.0,0.0,0.0,0.0,0.0,0.0,0.0,0.0,0.0,0.0,0.0,0.0,-0.0634,-0.1201,-0.159,-0.2787,-0.3676,-0.413,-0.473,-0.5081,-0.5081,-0.4429,-0.3929,-0.3425,-0.2191,-0.1351,-0.0906,-0.027,0.0,0.0,0.0,0.0,0.0,0.0,0.0,0.0,0.0,0.0,0.0,0.0,0.0,0.0,0.0,0.0,0.0,0.0,0.0,0.0,0.0,0.0,0.0,0.0,0.0,0.0,0.0,0.0,0.0,0.0,0.0,0.0,0.0,0.0,0.0,0.0,0.0,0.0,0.0,0.0,0.0,0.0,0.0,0.0,0.0,0.0,0.0,0.0,0.0,0.0,0.0,0.0,0.0,0.0,0.0,0.0,0.0,0.0,0.0066,0.0198,0.0196,0.0389,0.0774,0.0378,0.0373,0.0741,0.0932,0.106,-0.3624,-0.2519,-0.1367,0.0,0.0,0.0,0.0,0.0,0.0,0.0,0.0,0.0,0.0,0.0,0.0,0.0,0.0,0.0,0.0,0.0,0.0,0.0,0.0,0.0,0.0,0.0,0.0,0.0,0.0,-0.0412,-0.1367,-0.1515,-0.2016,-0.2972,-0.3123,-0.3224,-0.3224,-0.3073,-0.2519,-0.1613,-0.1462,-0.0926,0.0,0.0,0.0,0.0,0.0,0.0,0.0,0.0,0.0,0.0,0.0,0.0,0.0,0.0,0.0,0.0,0.0,0.0,0.0,0.0,0.0,0.0,0.0,0.0,0.0,0.0,0.0,0.0,0.0,0.0,0.0,0.0,0.0,0.0,0.0,0.0,0.0,0.0,0.0,0.0,0.0,0.0,0.0,0.0,0.0,0.0,0.0,0.0,0.0,0.0,0.0,0.0,0.0,0.0,0.0,0.0,0.0,0.0,0.0,0.0,0.0134,0.0462,0.0594,0.0787,0.1163,0.0765,0.0754,0.1055,0.1132,0.1265,0.0,0.0,0.0,0.0,0.0,0.0,0.0,0.0,0.0,0.0,0.0,0.0,0.0,0.0,0.0,0.0,0.0,0.0,0.0,0.0,0.0,0.0,0.0,0.0,0.0,0.0,0.0,0.0,0.0,-0.0104,-0.031,-0.1119,-0.1714,-0.1915,-0.2771,-0.3224,-0.3224,-0.2368,-0.1815,-0.1613,-0.0706,-0.0206,0.0,0.0,0.0,0.0,0.0,0.0,0.0,0.0,0.0,0.0,0.0,0.0,0.0,0.0,0.0,0.0,0.0,0.0,0.0,0.0,0.0,0.0,0.0,0.0,0.0,0.0,0.0,0.0,0.0,0.0,0.0,0.0,0.0,0.0,0.0,0.0,0.0,0.0,0.0,0.0,0.0,0.0,0.0,0.0,0.0,0.0,0.0,0.0,0.0,0.0,0.0,0.0,0.0,0.0,0.0,0.0,0.0,0.0,0.0,0.0,0.0134,0.0469,0.1073,0.1398,0.1509,0.1423,0.1411,0.1471,0.1732,0.1927,0.0,0.0,0.0,-0.2519,0.0,0.0,0.0,-0.0404,0.0,0.0,0.0,0.0,0.0,0.0,0.0,0.0,0.0,0.0,0.0,0.0,0.0,0.0,0.0,0.0,0.0,0.0,0.0,0.0,0.0,0.0,0.0,-0.051,-0.0807,-0.0807,-0.1311,-0.1613,-0.1613,-0.1059,-0.0807,-0.0807,-0.0252,0.0,0.0,0.0,0.0,0.0,0.0,0.0,0.0,0.0,0.0,0.0,0.0,0.0,0.0,0.0,0.0,0.0,0.0,0.0,0.0,0.0,0.0,0.0,0.0,0.0,0.0,0.0,0.0,0.0,0.0,0.0,0.0,0.0,0.0,0.0,0.0,0.0,0.0,0.0,0.0,0.0,0.0,0.0,0.0,0.0,0.0,0.0,0.0,0.0,0.0,0.0,0.0,0.0,0.0,0.0,0.0,0.0,0.0,0.0,0.0,0.0135,0.0471,0.101,0.1616,0.1878,0.1932,0.1918,0.1897,0.1871,0.2015,0.2086,0.0,0.0,0.0,0.0,0.0,-0.1865,0.0,0.0,0.0,-0.0051,0.0,0.0,0.0,0.0,0.0,0.0,0.0,0.0,0.0,0.0,0.0,0.0,0.0,0.0,0.0,0.0,0.0,0.0,0.0,0.0,0.0,0.0,0.0,0.0,0.0,0.0,0.0,0.0,0.0,0.0,0.0,0.0,0.0,0.0,0.0,0.0,0.0,0.0,0.0,0.0,0.0,0.0,0.0,0.0,0.0,0.0,0.0,0.0,0.0,0.0,0.0,0.0,0.0,0.0,0.0,0.0,0.0,0.0,0.0,0.0,0.0,0.0,0.0,0.0,0.0,0.0,0.0,0.0,0.0,0.0,0.0,0.0,0.0,0.0,0.0,0.0,0.0,0.0,0.0,0.0,0.0,0.0,0.0,0.0,0.0,0.0,0.0,0.0,0.0,0.0,0.0067,0.0471,0.101,0.1616,0.202,0.2222,0.2222,0.2222,0.2196,0.2147,0.2106,0.2118,0.0,0.0,0.0,0.0,-0.3827,0.0,0.0,0.0,-0.116,-0.0202,0.0,0.0,0.0,0.0,0.0,0.0,0.0,0.0,0.0,0.0,0.0,0.0,0.0,0.0,0.0,0.0,0.0,0.0,0.0,0.0,0.0,0.0,0.0,0.0,0.0,0.0,0.0,0.0,0.0,0.0,0.0,0.0,0.0,0.0,0.0,0.0,0.0,0.0,0.0,0.0,0.0,0.0,0.0,0.0,0.0,0.0,0.0,0.0,0.0,0.0,0.0,0.0,0.0,0.0,0.0,0.0,0.0,0.0,0.0,0.0,0.0,0.0,0.0,0.0,0.0,0.0,0.0,0.0,0.0,0.0,0.0,0.0,0.0,0.0,0.0,0.0,0.0,0.0,0.0,0.0,0.0,0.0,0.0,0.0,0.0,0.0,0.0,0.0,0.0,0.0135,0.0404,0.1077,0.1481,0.1616,0.202,0.2222,0.2222,0.2222,0.2218,0.2211,0.2215,0.2216,0.0,0.0,0.0,0.0,0.0,0.0,-0.3566,0.0,-0.2418,0.0,0.0,0.0,0.0,0.0,0.0,0.0,0.0,0.0,0.0,0.0,0.0,0.0,0.0,0.0,0.0,0.0,0.0,0.0,0.0,0.0,0.0,0.0,0.0,0.0,0.0,0.0,0.0,0.0,0.0,0.0,0.0,0.0,0.0,0.0,0.0,0.0,0.0,0.0,0.0,0.0,0.0,0.0,0.0,0.0,0.0,0.0,0.0,0.0,0.0,0.0,0.0,0.0,0.0,0.0,0.0,0.0,0.0,0.0,0.0,0.0,0.0,0.0,0.0,0.0,0.0,0.0,0.0,0.0,0.0,0.0,0.0,0.0,0.0,0.0,0.0,0.0,0.0,0.0,0.0,0.0,0.0,0.0,0.0,0.0,0.0,0.0,0.0,0.0,0.0203,0.0613,0.1158,0.1511,0.1718,0.1977,0.2112,0.2172,0.2222,0.2222,0.2222,0.2222,0.2222,0.2222,-0.635,0.0,0.0,0.0,0.0,0.0,0.0,0.0,0.0,0.0,0.0,0.0,0.0,0.0,0.0,0.0,0.0,0.0,0.0,0.0,0.0,0.0,0.0,0.0,0.0,0.0,0.0,0.0,0.0,0.0,0.0,0.0,0.0,0.0,0.0,0.0,0.0,0.0,0.0,0.0,0.0,0.0,0.0,0.0,0.0,0.0,0.0,0.0,0.0,0.0,0.0,0.0,0.0,0.0,0.0,0.0,0.0,0.0,0.0,0.0,0.0,0.0,0.0,0.0,0.0,0.0,0.0,0.0,0.0,0.0,0.0,0.0,0.0,0.0,0.0,0.0,0.0,0.0,0.0,0.0,0.0,0.0,0.0,0.0,0.0,0.0,0.0,0.0,0.0,0.0,0.0,0.0,0.0,0.0,0.0,0.0,0.0067,0.0135,0.0549,0.1037,0.1659,0.1814,0.1955,0.2213,0.2213,0.2198,0.2167,0.2167,0.223,0.2222,0.2222,0.2222,0.0,0.0,0.0,-0.6357,0.0,0.0,0.0,0.0,-0.4431,0.0,0.0,0.0,0.0,0.0,-0.2772,-0.1716,-0.1537,0.0,0.0,0.0,0.0,0.0,0.0,0.0,0.0,0.0,0.0,0.0,0.0,0.0,0.0,0.0,0.0,0.0,0.0,0.0,0.0,0.0,0.0,0.0,0.0,0.0,0.0,0.0,0.0,0.0,0.0,0.0,0.0,0.0,0.0,0.0,0.0,0.0,0.0,0.0,0.0,0.0,0.0,0.0,0.0,0.0,0.0,0.0,0.0,0.0,0.0,0.0,0.0,0.0,0.0,0.0,0.0,0.0,0.0,0.0,0.0,0.0,0.0,0.0,0.0,0.0,0.0,0.0,0.0,0.0,0.0,0.0,0.0,0.0,0.0,0.0,0.0,0.0,0.0,0.0,0.0135,0.0549,0.0905,0.1262,0.1683,0.2034,0.2175,0.2174,0.2174,0.2229,0.2199,0.2199,0.2183,0.2222,0.2222,0.2222,0.0,0.0,-0.6075,-0.6276,0.0,0.0,0.0,0.0,0.0,0.0,0.0,0.0,0.0,0.0,-0.3073,-0.272,-0.2634,-0.229,0.0,0.0,0.0,0.0,0.0,0.0,0.0,0.0,0.0,0.0,0.0,0.0,0.0,0.0,0.0,0.0,0.0,0.0,0.0,0.0,0.0,0.0,0.0,0.0,0.0,0.0,0.0,0.0,0.0,0.0,0.0,0.0,0.0,0.0,0.0,0.0,0.0,0.0,0.0,0.0,0.0,0.0,0.0,0.0,0.0,0.0,0.0,0.0,0.0,0.0,0.0,0.0,0.0,0.0,0.0,0.0,0.0,0.0,0.0,0.0,0.0,0.0,0.0,0.0,0.0,0.0,0.0,0.0,0.0,0.0,0.0,0.0,0.0,0.0,0.0,0.0,0.0,0.0275,0.0555,0.0905,0.1341,0.1706,0.2062,0.2221,0.2294,0.2276,0.2275,0.2251,0.22,0.22,0.2185,0.2222,0.2222,0.2222,-0.5863,-0.5839,0.0,-0.6029,-0.6048,0.0,-0.6265,0.0,0.0,0.0,0.0,0.0,0.0,0.0,-0.4218,-0.3793,-0.376,-0.3274,0.0,-0.1009,0.0,0.0,0.0,0.0,0.0,0.0,0.0,0.0,0.0,0.0,0.0,0.0,0.0,0.0,0.0,0.0,0.0,0.0,0.0,0.0,0.0,0.0,0.0,0.0,0.0,0.0,0.0,0.0,0.0,0.0,0.0,0.0,0.0,0.0,0.0,0.0,0.0,0.0,0.0,0.0,0.0,0.0,0.0,0.0,0.0,0.0,0.0,0.0,0.0,0.0,0.0,0.0,0.0,0.0,0.0,0.0,0.0,0.0,0.0,0.0,0.0,0.0,0.0,0.0,0.0,0.0,0.0,0.0,0.0,0.0,0.0,0.0,0.0,0.0069,0.0208,0.0421,0.0848,0.1342,0.1645,0.1945,0.2306,0.2323,0.2324,0.2306,0.2306,0.2281,0.2232,0.2221,0.22,0.217,0.2227,0.2222]},{"header":{"parameterUnit":"m.s-1","parameterCategory":1,"la1":30.6,"la2":29.2853,"lo1":-89.7004,"lo2":-87.6739,"dy":0.0162,"dx":0.0183,"nx":112,"ny":82,"refTime":"2023-10-03T06:00:00:Z","depth":0,"parameterNumber":3,"parameterNumberName":"V-component_of_WINDS"},"data":[0.0,0.0,0.0,0.0,0.0,0.0,0.0,0.0,0.0,0.0,0.0,0.0,0.0,0.0,0.0,0.0,0.0,0.0,0.0,0.0,0.0,0.0,0.0,0.0,0.0,0.0,0.0,0.0,0.0,0.0,0.0,0.0,0.0,0.0,0.0,0.0,0.0,0.0,0.0,0.0,0.0,0.0,0.0,0.0,0.0,0.0,0.0,0.0,0.0,0.0,0.0,0.0,0.0,0.0,0.0,0.0,0.0,0.0,0.0,0.0,0.0,0.0,0.0,0.0,0.0,0.0,0.0,0.0,0.0,0.0,0.0,0.0,0.0,0.0,0.0,0.0,0.0,0.0,0.0,0.0,0.0,0.0,0.0,0.0,0.0,0.0,0.0,0.0,0.0,0.0,0.0,2.9135,2.8666,2.8513,2.8592,2.895,2.7917,2.4941,0.0,0.0,0.0,0.0,0.0,0.0,0.0,0.0,0.0,0.0,0.0,0.0,0.0,0.0,0.0,0.0,0.0,0.0,0.0,0.0,0.0,0.0,0.0,0.0,0.0,0.0,0.0,0.0,0.0,0.0,0.0,0.0,0.0,0.0,0.0,0.0,0.0,0.0,0.0,0.0,0.0,0.0,0.0,0.0,0.0,0.0,0.0,0.0,0.0,0.0,0.0,0.0,0.0,0.0,0.0,0.0,0.0,0.0,0.0,0.0,0.0,0.0,0.0,0.0,0.0,0.0,0.0,0.0,0.0,0.0,0.0,0.0,0.0,0.0,0.0,0.0,0.0,0.0,0.0,0.0,0.0,0.0,0.0,0.0,0.0,0.0,0.0,0.0,0.0,0.0,0.0,0.0,0.0,0.0,0.0,0.0,0.0,0.0,0.0,0.0,0.0,0.0,0.0,0.0,3.0171,2.9697,2.8619,2.8106,2.8547,2.867,2.777,2.56,0.0,0.0,0.0,0.0,0.0,0.0,0.0,0.0,0.0,0.0,0.0,0.0,0.0,0.0,0.0,0.0,0.0,0.0,0.0,0.0,0.0,0.0,0.0,0.0,0.0,0.0,0.0,0.0,0.0,0.0,0.0,0.0,0.0,0.0,0.0,0.0,0.0,0.0,0.0,0.0,0.0,0.0,0.0,0.0,0.0,0.0,0.0,0.0,0.0,0.0,0.0,0.0,0.0,0.0,0.0,0.0,0.0,0.0,0.0,0.0,0.0,0.0,0.0,0.0,0.0,0.0,0.0,0.0,0.0,0.0,0.0,0.0,0.0,0.0,0.0,0.0,0.0,0.0,0.0,0.0,0.0,0.0,0.0,0.0,0.0,0.0,0.0,0.0,0.0,0.0,0.0,0.0,0.0,0.0,0.0,0.0,0.0,0.0,0.0,0.0,0.0,0.0,0.0,2.9756,2.9498,2.9368,2.8363,2.7935,2.8547,2.8921,2.8128,2.5749,2.6662,0.0,0.0,0.0,0.0,0.0,0.0,0.0,0.0,0.0,0.0,0.0,0.0,0.0,0.0,0.0,0.0,0.0,0.0,0.0,0.0,0.0,0.0,0.0,0.0,0.0,0.0,0.0,0.0,0.0,0.0,0.0,0.0,0.0,0.0,0.0,0.0,0.0,0.0,0.0,0.0,0.0,0.0,0.0,0.0,0.0,0.0,0.0,0.0,0.0,0.0,0.0,0.0,0.0,0.0,0.0,0.0,0.0,0.0,0.0,0.0,0.0,0.0,0.0,0.0,0.0,0.0,0.0,0.0,0.0,0.0,0.0,0.0,0.0,0.0,0.0,0.0,0.0,0.0,0.0,0.0,0.0,0.0,0.0,0.0,0.0,0.0,0.0,0.0,0.0,0.0,0.0,0.0,0.0,0.0,0.0,0.0,0.0,0.0,0.0,0.0,0.0,0.0,3.0,2.925,2.9073,2.8258,2.8056,2.8862,2.9117,2.8325,2.6261,2.6771,0.0,0.0,0.0,0.0,0.0,0.0,0.0,0.0,0.0,0.0,0.0,0.0,0.0,0.0,0.0,0.0,0.0,0.0,0.0,0.0,0.0,0.0,0.0,0.0,0.0,0.0,0.0,0.0,0.0,0.0,0.0,0.0,0.0,0.0,0.0,0.0,0.0,0.0,0.0,0.0,0.0,0.0,0.0,0.0,0.0,0.0,0.0,0.0,0.0,0.0,0.0,0.0,0.0,0.0,0.0,0.0,0.0,0.0,0.0,0.0,0.0,0.0,0.0,0.0,0.0,0.0,0.0,0.0,0.0,0.0,0.0,0.0,0.0,0.0,0.0,0.0,0.0,0.0,0.0,0.0,0.0,0.0,0.0,0.0,0.0,0.0,0.0,0.0,0.0,0.0,0.0,0.0,0.0,0.0,0.0,0.0,0.0,0.0,0.0,0.0,0.0,0.0,3.0002,3.0001,2.9256,2.8559,2.8646,2.98,2.8788,2.7991,2.767,2.6561,0.0,0.0,0.0,0.0,0.0,0.0,0.0,0.0,0.0,0.0,0.0,0.0,0.0,0.0,0.0,0.0,0.0,0.0,0.0,0.0,0.0,0.0,0.0,0.0,0.0,0.0,0.0,0.0,0.0,0.0,0.0,0.0,0.0,0.0,0.0,0.0,0.0,0.0,0.0,0.0,0.0,0.0,0.0,0.0,0.0,0.0,0.0,0.0,0.0,0.0,0.0,0.0,0.0,0.0,0.0,0.0,0.0,0.0,0.0,0.0,0.0,0.0,0.0,0.0,0.0,0.0,0.0,0.0,0.0,0.0,0.0,0.0,0.0,0.0,0.0,0.0,0.0,0.0,0.0,0.0,0.0,0.0,0.0,0.0,0.0,0.0,0.0,0.0,0.0,0.0,0.0,0.0,0.0,0.0,0.0,0.0,0.0,0.0,0.0,0.0,0.0,0.0,2.929,2.9368,0.0,2.8646,2.9057,2.9932,2.9932,2.9314,2.8006,0.0,0.0,0.0,0.0,0.0,0.0,0.0,0.0,0.0,0.0,0.0,0.0,0.0,0.0,0.0,0.0,0.0,0.0,0.0,0.0,0.0,0.0,0.0,0.0,0.0,0.0,0.0,0.0,0.0,0.0,0.0,0.0,0.0,0.0,0.0,0.0,0.0,0.0,0.0,0.0,0.0,0.0,0.0,0.0,0.0,0.0,0.0,0.0,0.0,0.0,0.0,0.0,0.0,0.0,0.0,0.0,0.0,0.0,0.0,0.0,0.0,0.0,0.0,0.0,0.0,0.0,0.0,0.0,0.0,0.0,0.0,0.0,0.0,0.0,0.0,0.0,0.0,0.0,0.0,0.0,0.0,0.0,0.0,0.0,0.0,0.0,0.0,0.0,0.0,0.0,0.0,0.0,0.0,0.0,0.0,0.0,0.0,0.0,0.0,0.0,0.0,0.0,2.8885,2.9279,2.9367,0.0,2.891,2.9408,3.0079,3.0171,2.9565,2.8145,0.0,0.0,0.0,0.0,0.0,0.0,0.0,0.0,0.0,0.0,0.0,0.0,0.0,0.0,0.0,0.0,0.0,0.0,0.0,0.0,0.0,0.0,0.0,0.0,0.0,0.0,0.0,0.0,0.0,0.0,0.0,0.0,0.0,0.0,0.0,0.0,0.0,0.0,0.0,0.0,0.0,0.0,0.0,0.0,0.0,0.0,0.0,0.0,0.0,0.0,0.0,0.0,0.0,0.0,0.0,0.0,0.0,0.0,0.0,0.0,0.0,0.0,0.0,0.0,0.0,0.0,0.0,0.0,0.0,0.0,0.0,0.0,0.0,0.0,0.0,0.0,0.0,0.0,0.0,0.0,0.0,0.0,0.0,0.0,0.0,0.0,0.0,0.0,0.0,0.0,0.0,0.0,0.0,0.0,0.0,0.0,0.0,0.0,0.0,0.0,0.0,0.0,2.9714,3.0185,3.032,2.9489,2.9427,2.972,3.0356,2.9212,2.8378,0.0,0.0,0.0,0.0,0.0,0.0,0.0,0.0,0.0,0.0,0.0,0.0,0.0,0.0,0.0,0.0,0.0,0.0,0.0,0.0,0.0,0.0,0.0,0.0,0.0,0.0,0.0,0.0,0.0,0.0,0.0,0.0,0.0,0.0,0.0,0.0,0.0,0.0,0.0,0.0,0.0,0.0,0.0,0.0,0.0,0.0,0.0,0.0,0.0,0.0,0.0,0.0,0.0,0.0,0.0,0.0,0.0,0.0,0.0,0.0,0.0,0.0,0.0,0.0,0.0,0.0,0.0,0.0,0.0,0.0,0.0,0.0,0.0,0.0,0.0,0.0,0.0,0.0,0.0,0.0,0.0,0.0,0.0,0.0,0.0,0.0,0.0,0.0,0.0,0.0,0.0,0.0,0.0,0.0,0.0,0.0,0.0,0.0,0.0,0.0,0.0,0.0,0.0,2.9846,3.0756,3.1182,3.0447,3.0804,3.1177,3.1379,3.1021,3.0384,2.9397,0.0,0.0,0.0,0.0,0.0,0.0,0.0,0.0,0.0,0.0,0.0,0.0,0.0,0.0,0.0,0.0,0.0,0.0,0.0,0.0,0.0,0.0,0.0,0.0,0.0,0.0,0.0,0.0,0.0,0.0,0.0,0.0,0.0,0.0,0.0,0.0,0.0,0.0,0.0,0.0,0.0,0.0,0.0,0.0,0.0,0.0,0.0,0.0,0.0,0.0,0.0,0.0,0.0,0.0,0.0,0.0,0.0,0.0,0.0,0.0,0.0,0.0,0.0,0.0,0.0,0.0,0.0,0.0,0.0,0.0,0.0,0.0,0.0,0.0,0.0,0.0,0.0,0.0,0.0,0.0,0.0,0.0,0.0,0.0,0.0,0.0,0.0,0.0,0.0,0.0,0.0,0.0,0.0,0.0,0.0,0.0,0.0,0.0,0.0,0.0,0.0,0.0,3.0704,3.1383,3.1717,3.1243,3.1545,3.1794,3.1836,3.1836,3.1154,2.969,0.0,0.0,0.0,0.0,0.0,0.0,0.0,0.0,0.0,0.0,0.0,0.0,0.0,0.0,0.0,0.0,0.0,0.0,0.0,0.0,0.0,0.0,0.0,0.0,0.0,0.0,0.0,0.0,0.0,0.0,0.0,0.0,0.0,0.0,0.0,0.0,0.0,0.0,0.0,0.0,0.0,0.0,0.0,0.0,0.0,0.0,0.0,0.0,0.0,0.0,0.0,0.0,0.0,0.0,0.0,0.0,0.0,0.0,0.0,0.0,0.0,0.0,0.0,0.0,0.0,0.0,0.0,0.0,0.0,0.0,0.0,0.0,0.0,0.0,0.0,0.0,0.0,0.0,0.0,0.0,0.0,0.0,0.0,0.0,0.0,0.0,0.0,0.0,0.0,0.0,0.0,0.0,0.0,0.0,0.0,0.0,0.0,0.0,0.0,0.0,0.0,0.0,3.2054,3.2227,3.2222,3.206,3.1972,3.1956,3.2013,3.1935,3.1181,2.9644,0.0,0.0,0.0,0.0,0.0,0.0,0.0,0.0,0.0,0.0,0.0,0.0,0.0,0.0,0.0,0.0,0.0,0.0,0.0,0.0,0.0,0.0,0.0,0.0,0.0,0.0,0.0,0.0,0.0,0.0,0.0,0.0,0.0,0.0,0.0,0.0,0.0,0.0,0.0,0.0,0.0,0.0,0.0,0.0,0.0,0.0,0.0,0.0,0.0,0.0,0.0,0.0,0.0,0.0,0.0,0.0,0.0,0.0,0.0,0.0,4.091,0.0,0.0,0.0,0.0,0.0,0.0,0.0,0.0,0.0,0.0,0.0,0.0,0.0,0.0,0.0,0.0,0.0,0.0,0.0,0.0,0.0,0.0,0.0,0.0,0.0,0.0,0.0,0.0,0.0,0.0,0.0,0.0,0.0,0.0,0.0,0.0,0.0,0.0,0.0,0.0,0.0,3.3003,3.3519,3.3808,3.3765,3.3308,3.3009,3.3009,3.2504,3.1949,3.1379,3.0245,0.0,0.0,0.0,0.0,0.0,0.0,0.0,0.0,0.0,0.0,0.0,0.0,0.0,0.0,0.0,0.0,0.0,0.0,0.0,0.0,0.0,0.0,0.0,0.0,0.0,0.0,0.0,0.0,0.0,0.0,0.0,0.0,0.0,0.0,0.0,0.0,0.0,0.0,0.0,0.0,0.0,0.0,0.0,0.0,0.0,0.0,0.0,0.0,0.0,0.0,0.0,0.0,0.0,0.0,0.0,0.0,0.0,0.0,0.0,0.0,4.2477,0.0,0.0,0.0,0.0,0.0,0.0,0.0,0.0,0.0,0.0,0.0,0.0,0.0,0.0,0.0,0.0,0.0,0.0,0.0,0.0,0.0,0.0,0.0,0.0,0.0,0.0,0.0,0.0,0.0,0.0,0.0,0.0,0.0,0.0,0.0,0.0,0.0,0.0,0.0,0.0,3.5129,3.557,3.5678,3.531,3.4951,3.4568,3.4202,3.3852,3.3383,3.2746,3.2188,0.0,0.0,0.0,0.0,0.0,0.0,0.0,0.0,0.0,0.0,0.0,0.0,0.0,0.0,0.0,0.0,0.0,0.0,0.0,0.0,0.0,0.0,0.0,0.0,0.0,0.0,0.0,0.0,0.0,0.0,0.0,0.0,0.0,0.0,0.0,0.0,0.0,0.0,0.0,0.0,0.0,0.0,0.0,0.0,0.0,0.0,0.0,0.0,0.0,0.0,0.0,0.0,0.0,5.0979,5.1742,5.2233,5.2723,5.2753,5.2236,4.8496,4.6601,4.6,0.0,0.0,0.0,0.0,0.0,0.0,0.0,0.0,0.0,0.0,0.0,0.0,0.0,0.0,0.0,0.0,0.0,0.0,0.0,0.0,0.0,0.0,0.0,0.0,0.0,4.6966,4.6231,0.0,0.0,0.0,0.0,0.0,0.0,0.0,0.0,0.0,0.0,0.0,0.0,3.7351,3.76,3.7364,3.6561,3.6377,3.5968,3.5174,3.5107,3.4718,3.3847,3.4083,3.3485,0.0,0.0,0.0,0.0,0.0,0.0,0.0,0.0,0.0,0.0,0.0,0.0,0.0,0.0,0.0,0.0,0.0,0.0,0.0,0.0,0.0,0.0,0.0,0.0,0.0,0.0,0.0,0.0,0.0,0.0,0.0,0.0,4.3224,4.3446,0.0,0.0,0.0,0.0,0.0,0.0,0.0,0.0,0.0,0.0,0.0,0.0,0.0,4.9196,5.1694,5.3616,5.4498,5.4388,5.7038,5.7995,5.7483,5.6936,5.6645,5.6526,5.5281,0.0,4.9018,4.845,0.0,0.0,0.0,0.0,0.0,0.0,0.0,0.0,0.0,0.0,0.0,0.0,0.0,0.0,0.0,0.0,0.0,0.0,0.0,0.0,0.0,0.0,4.8188,4.7143,4.7517,4.7713,0.0,4.507,4.3617,4.1326,0.0,0.0,0.0,0.0,0.0,0.0,0.0,0.0,3.8321,3.8355,3.8053,3.7257,3.6638,3.5968,3.5174,3.5107,3.4976,3.4652,3.4682,3.4772,3.4907,3.4418,0.0,0.0,0.0,0.0,0.0,0.0,0.0,0.0,0.0,0.0,0.0,0.0,0.0,0.0,0.0,0.0,0.0,0.0,0.0,0.0,0.0,0.0,0.0,0.0,0.0,0.0,0.0,0.0,0.0,4.2856,4.4812,4.3622,4.4617,4.4599,0.0,0.0,0.0,0.0,0.0,0.0,0.0,0.0,0.0,5.3123,5.3571,5.4828,5.7018,5.7838,5.8363,5.8633,5.9955,6.0491,6.029,5.9975,5.9706,5.9478,5.9127,5.7333,5.4524,5.2196,5.0431,4.9048,0.0,0.0,0.0,0.0,4.8622,4.8636,5.0753,5.129,0.0,0.0,0.0,0.0,0.0,0.0,0.0,0.0,0.0,0.0,0.0,0.0,0.0,4.8447,4.9116,4.9395,4.8301,4.7571,4.6472,0.0,4.3289,4.2451,4.1029,0.0,0.0,0.0,0.0,3.9656,4.0068,4.0191,3.9772,3.8544,3.8171,3.7499,3.6276,3.6151,3.6136,3.6044,3.6047,3.5936,3.5675,3.6184,3.6278,0.0,0.0,0.0,0.0,0.0,0.0,0.0,0.0,0.0,0.0,0.0,0.0,0.0,0.0,0.0,0.0,0.0,0.0,0.0,0.0,0.0,0.0,0.0,0.0,0.0,0.0,0.0,0.0,4.5303,4.727,4.5098,4.7865,4.8463,0.0,0.0,0.0,0.0,0.0,0.0,5.1412,5.2607,5.455,5.7455,5.8007,5.9143,6.1011,6.075,6.0924,6.1524,6.1735,6.1828,6.1832,6.1605,6.1262,6.0772,6.0576,5.9809,5.8456,5.5374,5.355,5.2528,5.1228,5.0515,5.041,5.1858,5.1953,5.1702,5.4383,5.4927,5.4345,5.3419,0.0,5.0958,4.7317,0.0,0.0,0.0,0.0,4.5982,4.8051,4.8167,4.7995,4.913,4.9844,4.9945,4.8739,4.8267,4.7552,0.0,4.5147,4.44,4.2939,0.0,0.0,0.0,0.0,4.0841,4.1378,4.1362,4.0797,3.9424,3.9108,3.8444,3.7112,3.7007,3.7027,3.7085,3.7085,3.6841,3.628,3.7355,3.7503,3.6504,0.0,0.0,0.0,0.0,0.0,0.0,0.0,0.0,0.0,0.0,0.0,0.0,0.0,0.0,0.0,0.0,0.0,0.0,0.0,0.0,0.0,0.0,0.0,0.0,0.0,0.0,0.0,0.0,0.0,5.0677,5.4363,0.0,0.0,0.0,0.0,5.249,5.3338,5.5142,5.8142,5.766,5.8749,6.1878,6.0546,6.0528,6.2098,6.2116,6.2103,6.2157,6.2941,6.2905,6.2157,6.139,6.0624,5.9839,5.912,5.8763,5.862,5.7736,5.6443,5.4946,5.4109,5.3788,5.3859,5.3948,5.4402,5.5009,5.544,5.5554,5.5687,5.661,5.4411,5.0903,4.8153,4.6794,0.0,0.0,4.7082,4.7947,4.9357,4.9693,4.9472,4.8734,4.8605,4.8403,4.7555,4.6581,4.5772,0.0,4.4777,4.3844,4.2544,0.0,4.2065,4.1635,4.1547,4.1547,4.1582,4.0972,4.0239,3.9371,3.8638,3.7848,3.7077,3.7007,3.7085,3.7278,3.7278,3.7354,3.7505,3.7576,3.7576,3.7523,3.7523,0.0,0.0,0.0,0.0,0.0,0.0,0.0,0.0,0.0,0.0,0.0,0.0,0.0,0.0,0.0,0.0,0.0,0.0,0.0,0.0,0.0,0.0,0.0,0.0,0.0,0.0,0.0,0.0,5.3891,5.6624,0.0,5.3904,5.4474,5.5294,5.5976,5.7052,5.8762,6.1225,6.1233,6.1887,6.3534,6.3311,6.3457,6.4021,6.3808,6.3553,6.3298,6.2579,6.2054,6.1698,6.039,5.9749,5.9673,5.9385,5.8988,5.8484,5.8222,5.7532,5.6615,5.5847,5.5982,5.6554,5.6034,5.6427,5.7131,5.6187,5.6,5.6006,5.5066,5.313,5.0857,4.9382,4.8393,4.7901,4.849,4.8491,4.8401,4.8864,4.8587,4.8033,4.7375,4.7222,4.7033,4.6411,4.5966,4.5531,4.4931,4.4484,4.407,4.3609,4.3118,4.2755,4.2581,4.242,4.2315,4.2315,4.1472,4.0585,3.9767,3.8968,3.8188,3.7444,3.7392,3.7411,3.7503,3.7503,3.7771,3.8345,3.851,3.8564,3.8582,3.8303,3.8069,0.0,0.0,0.0,0.0,0.0,0.0,0.0,0.0,0.0,0.0,0.0,0.0,0.0,0.0,0.0,0.0,0.0,0.0,0.0,0.0,0.0,0.0,0.0,0.0,0.0,0.0,5.8153,5.6577,5.9822,6.0945,5.7898,5.9177,6.0245,6.0362,6.1666,6.2801,6.3659,6.3861,6.4044,6.4278,6.4346,6.435,6.435,6.4134,6.388,6.363,6.2321,6.1549,6.1171,5.9846,5.9205,5.9144,5.9144,5.8877,5.8367,5.8367,5.8126,5.7714,5.6966,5.7091,5.7672,5.7286,5.7402,5.7569,5.6345,5.6081,5.5904,5.3711,5.2338,5.1268,4.9824,4.9103,4.8842,4.938,4.9157,4.8749,4.8819,4.8206,4.7456,4.6815,4.6436,4.6053,4.5429,4.5303,4.5153,4.4594,4.4389,4.4244,4.4087,4.3647,4.3282,4.3123,4.2941,4.2828,4.2828,4.1971,4.1172,4.0632,3.9859,3.9068,3.8312,3.824,3.8275,3.8345,3.8093,3.8326,3.9208,3.9364,3.9432,3.9436,3.9242,3.9294,3.958,0.0,0.0,0.0,0.0,0.0,0.0,0.0,0.0,0.0,0.0,0.0,0.0,0.0,0.0,0.0,0.0,0.0,0.0,0.0,0.0,0.0,0.0,0.0,5.5181,5.9063,6.123,5.9051,6.42,6.6433,6.2623,6.5075,6.6544,6.5669,6.7055,6.7215,6.5595,6.5546,6.5158,6.4327,6.3532,6.3149,6.3149,6.3149,6.3131,6.307,6.2271,6.1459,6.0646,5.9829,5.9036,5.8301,5.8301,5.8301,5.8301,5.8301,5.8301,5.8235,5.7516,5.7257,5.7325,5.7655,5.7206,5.6392,5.5936,5.5766,5.5341,5.2945,5.2362,5.2084,4.9436,4.8802,4.9027,4.9027,4.9027,4.9094,4.9352,4.8795,4.795,4.7124,4.6279,4.5453,4.467,4.4501,4.4501,4.4501,4.4501,4.435,4.3915,4.3818,4.3654,4.3212,4.3141,0.0,4.3141,4.2429,4.1936,4.1936,4.1204,4.0399,3.9615,3.9561,3.9626,3.9803,3.9087,3.9108,4.0104,4.0119,4.0119,4.017,4.0337,4.0864,4.1716,0.0,0.0,0.0,0.0,0.0,0.0,0.0,0.0,0.0,0.0,0.0,0.0,0.0,0.0,0.0,0.0,0.0,0.0,0.0,0.0,0.0,0.0,6.0562,5.9907,6.1531,6.3441,6.5184,6.587,6.5998,6.5536,6.6322,6.6469,6.5587,6.5942,6.5976,6.5528,6.4948,6.4559,6.4316,6.4091,6.396,6.396,6.396,6.3515,6.2658,6.184,6.0892,5.9811,5.8999,5.85,5.8301,5.8301,5.8301,5.8301,5.8301,5.8301,5.8279,5.8078,5.8336,5.8722,5.7678,5.6356,5.5146,5.5254,5.4909,5.4148,5.2505,5.2029,5.1726,4.9824,4.9295,4.9361,4.9361,4.9361,4.9096,4.7992,4.7519,4.6974,4.5533,4.4989,4.4763,4.4538,4.4501,4.4501,4.4501,4.4501,4.4454,4.4335,4.4321,4.4258,4.4136,4.3949,0.0,4.382,4.2938,4.2327,4.2327,4.1606,4.1051,4.0812,4.0812,4.0588,4.0062,3.9822,4.0077,4.0938,4.0548,4.0682,4.1469,4.139,4.153,0.0,0.0,0.0,0.0,0.0,0.0,0.0,0.0,0.0,0.0,0.0,0.0,0.0,0.0,0.0,0.0,0.0,0.0,0.0,0.0,0.0,0.0,6.1134,6.3622,6.4104,6.4803,6.5985,6.7904,6.7263,6.6847,6.7272,6.7372,6.7035,6.6105,6.6368,6.6087,6.5054,6.4866,6.4641,6.4323,6.4284,6.4284,6.4284,6.4284,6.3791,6.2743,6.1902,6.0959,5.9931,5.9115,5.8725,0.0,5.8725,5.8725,5.8725,5.8725,5.8725,0.0,0.0,0.0,0.0,0.0,5.6262,5.5489,5.4988,5.4501,5.3864,5.2388,5.1912,5.1611,4.9997,4.9509,4.9509,4.9509,4.9509,4.9189,4.7856,4.7256,4.6674,4.5322,4.4745,4.4501,4.4501,4.4501,4.4501,4.4501,0.0,0.0,4.4501,4.4501,4.4501,4.4501,4.4383,4.4277,4.4277,4.3711,4.3341,4.3341,4.291,4.2497,4.2162,4.2143,0.0,0.0,0.0,4.1272,4.211,4.1861,0.0,0.0,0.0,4.3098,4.3221,0.0,0.0,0.0,4.4046,4.4084,0.0,0.0,0.0,0.0,0.0,0.0,0.0,0.0,0.0,0.0,0.0,0.0,0.0,0.0,0.0,0.0,6.3707,6.5844,6.754,6.7958,6.8108,6.8183,6.8106,6.797,6.7785,6.8023,6.7706,6.6527,6.7278,6.6731,6.4324,0.0,0.0,0.0,0.0,6.4284,6.4284,6.4284,6.389,6.3101,6.2219,6.1374,6.0567,5.9703,5.929,5.929,5.929,5.9309,5.9327,5.9327,5.9364,5.9309,5.8663,5.8298,5.8008,5.681,5.6482,5.6434,5.495,0.0,0.0,5.2615,5.2017,5.1662,5.0122,4.958,4.9509,4.9509,4.9505,4.9333,4.8435,4.7698,4.6924,4.5951,4.5181,4.4655,4.4556,4.4524,4.4528,4.4537,4.4556,4.4537,4.4528,4.4515,4.4501,4.4501,4.4501,4.4501,4.4501,4.4501,4.4501,4.4501,0.0,0.0,4.3528,4.3466,4.3442,4.3348,4.2621,4.2527,4.331,4.3554,4.3983,4.4706,4.4833,4.4895,4.4895,4.4926,4.4919,4.4919,4.4919,4.4919,0.0,0.0,0.0,0.0,0.0,0.0,0.0,0.0,0.0,0.0,0.0,0.0,0.0,0.0,0.0,6.3321,6.5715,6.7684,6.8747,6.7669,6.6948,6.7448,6.6918,6.6521,6.6484,6.7089,6.6578,6.4366,6.5614,6.5596,6.3597,6.4313,0.0,6.4323,6.4284,6.4284,6.4284,6.4284,6.389,6.3101,0.0,0.0,6.0567,5.9703,5.929,5.929,5.929,5.9401,5.9544,5.9544,5.9631,5.9734,5.9271,5.8315,5.7136,5.6873,5.6057,5.5002,5.4662,5.4664,5.464,5.36,5.2768,5.1944,5.0945,5.0105,0.0,4.9509,4.9582,4.9431,4.8446,4.8254,4.7878,4.6245,4.5779,4.5555,4.4947,4.4751,4.4699,4.4796,4.4821,4.4802,4.4685,4.4565,4.4501,4.4501,4.4501,4.4501,4.4501,4.4501,4.4501,4.4501,4.4592,4.4597,4.4446,4.4531,4.431,4.366,4.3452,4.3452,4.3622,4.4259,4.4707,4.4858,4.4883,4.4895,4.4895,4.5022,4.5049,4.5049,4.5049,4.5049,0.0,0.0,0.0,0.0,0.0,0.0,0.0,0.0,0.0,0.0,0.0,5.9109,0.0,0.0,6.3465,6.5165,6.6827,6.7897,6.7935,6.749,6.7074,6.6868,6.611,6.5581,6.5514,6.5565,6.5222,6.432,6.4208,6.4172,6.4102,6.4102,6.4236,6.4577,6.4596,6.4596,6.4596,6.4162,6.3559,6.2728,6.1879,6.1031,6.0238,5.9804,5.9597,5.9597,5.9597,5.9649,5.9753,5.9753,5.9803,5.9869,5.9683,5.9106,5.8312,5.7446,5.6663,5.5876,5.5044,5.4822,5.4769,5.3892,5.3266,5.2733,5.1901,5.1011,5.0296,5.0296,5.0052,4.9566,4.8645,4.8502,4.8274,4.6959,4.6359,4.6007,4.5622,4.5168,4.4808,4.4883,4.4895,4.487,4.4808,4.4732,4.4685,4.4605,4.4659,4.4712,4.4712,4.4712,4.4712,4.4712,4.4745,4.4796,4.4796,4.4858,4.4724,4.4339,4.4301,4.4301,4.4301,4.4759,4.4991,4.4991,4.5068,4.5103,4.5103,4.517,4.5192,4.5192,4.5192,4.5192,0.0,0.0,0.0,0.0,0.0,0.0,0.0,5.6454,5.7772,5.93,6.1459,6.3197,6.3579,6.4344,6.5356,6.6713,6.7343,6.7439,6.6789,6.7114,6.7105,6.6293,6.5438,6.4875,6.4763,6.4103,6.3927,6.4461,6.3211,6.3097,6.4619,6.405,6.4051,6.4869,6.4737,6.4737,6.4907,6.3884,6.3107,6.2614,6.1591,6.0759,6.0132,5.9961,5.9902,5.9902,5.9934,5.9934,5.995,5.9982,5.9998,5.9998,5.9998,5.9903,5.9545,5.7984,5.721,5.6747,5.5401,5.496,5.4876,5.4188,5.3832,5.35,5.2684,5.1802,5.1068,5.0916,5.0418,4.9768,4.904,4.889,4.8707,4.7878,4.7049,4.6423,4.6296,4.5563,4.4943,4.4967,4.4986,4.4967,4.4931,4.4823,4.4718,4.4739,4.4821,4.4895,4.4895,4.4895,4.4895,4.4895,4.4919,4.4943,4.4986,4.4986,4.4986,4.4986,4.4986,4.4986,4.4986,4.5091,4.5148,4.5148,4.5235,4.5307,4.5307,4.5307,4.5307,4.5307,4.5338,4.5329,4.9598,5.0782,5.3467,5.6454,5.7256,5.8708,0.0,6.4707,6.4554,6.5528,6.7114,6.7916,6.6541,6.6942,6.7553,6.7725,6.7247,6.6808,6.6713,6.612,6.5643,6.5517,6.4806,6.4295,6.4279,6.3497,6.3039,6.3119,6.2947,6.3192,6.3968,6.393,6.417,6.4869,6.4149,6.413,6.4888,6.326,6.2787,6.3448,6.1858,6.1044,6.093,6.0226,5.9902,5.9902,6.0026,6.0087,6.0103,6.027,6.0347,6.0347,6.0347,5.9869,5.9045,5.7833,5.6527,5.5332,5.5142,5.5187,5.5332,5.5236,5.4585,5.371,5.2835,5.1885,5.0954,5.0234,5.0068,5.0038,4.9806,4.993,4.9868,4.8871,4.804,4.7258,4.6606,4.573,4.5114,4.5224,4.5265,4.5213,4.5103,4.4541,4.4282,4.4793,4.4883,4.4895,4.4895,4.4895,4.4895,4.4895,4.5022,4.5125,4.5254,4.5265,4.5265,4.5265,4.5265,4.5265,4.5265,4.5275,4.5286,4.5286,4.5297,4.5307,4.5307,4.5307,4.5307,4.5307,4.541,4.5476,5.4811,5.4963,5.5708,5.8631,6.0083,6.1593,6.4573,6.5719,6.6541,6.7878,6.9082,6.954,6.8375,6.8518,6.8507,0.0,6.7552,6.7403,6.6423,6.6277,6.5948,6.509,6.4536,6.4382,6.484,6.3694,6.3312,6.4286,6.2987,6.292,6.4676,6.3856,6.3901,6.5153,6.4391,6.4124,6.4486,6.327,6.2585,6.2414,6.1252,6.0681,6.0681,6.0334,6.0182,6.0182,6.0256,6.027,6.0285,6.0375,6.0403,6.0403,6.0403,5.9568,5.835,5.7863,5.6967,5.5916,5.5426,5.5332,5.5403,5.5403,5.5116,5.4701,5.4352,5.3226,5.2012,5.1669,5.0926,5.0207,5.0158,5.0219,5.0195,4.9773,4.9067,4.8403,4.8075,4.6907,4.593,4.5993,4.5621,4.5286,4.5243,4.4959,4.4998,4.5719,4.5441,4.4946,4.444,4.522,4.5651,4.5174,4.5181,4.5235,4.5297,4.5307,4.5307,4.5307,4.5307,4.5307,4.5307,4.5307,4.5307,4.5307,4.5307,4.5307,4.5307,4.538,4.5429,4.5429,4.5558,4.5668,5.7155,5.7232,5.7321,6.0114,6.2084,6.3657,6.4991,6.641,6.7848,6.936,7.0107,7.0317,6.9785,6.962,6.9077,6.7596,6.78,6.7645,6.6198,6.6165,6.5903,6.4833,6.4277,6.4301,6.5125,6.3805,6.3532,6.5006,6.3202,6.3049,6.5365,6.4102,6.3944,6.5356,6.4611,6.432,6.4516,6.3446,6.2586,6.1956,6.1115,6.0599,6.0403,6.0403,6.0403,6.0403,6.0403,6.0403,6.0403,6.0403,6.0403,6.037,6.0141,5.9166,5.7867,5.7619,5.6988,5.6186,5.5594,5.5403,5.5403,5.5403,5.5403,5.5307,5.483,5.3798,5.269,5.2231,5.1238,5.0302,5.0302,5.0302,5.0302,5.0302,4.9691,4.9033,4.8793,4.7551,4.65,4.65,4.5851,4.5449,4.5908,4.5602,4.5564,4.6385,4.6214,4.5679,4.4789,4.5564,4.5946,4.5354,4.5307,4.5307,4.5307,4.5307,4.5307,4.5307,4.5307,4.5307,4.5307,4.5307,4.5307,4.5307,4.5348,4.535,4.535,4.5485,4.5558,4.5566,4.57,4.5805,5.397,5.5588,5.762,6.1006,6.3115,6.5013,6.7506,6.8674,6.9517,7.0612,7.0752,7.0747,7.0908,7.0303,6.9505,6.8598,6.7768,6.695,6.6121,6.5288,6.4748,6.4709,6.3946,6.378,0.0,6.3622,6.3322,6.4359,6.3643,6.3892,6.5607,6.4839,6.4668,6.5375,6.4611,6.4554,6.5356,6.3732,6.2892,6.2853,6.1975,6.1153,6.0403,6.0403,6.0403,6.0403,6.0403,6.0403,6.0403,6.0403,6.0403,6.0313,5.9472,5.8631,5.7791,5.695,5.6129,5.5441,5.5422,5.5403,5.5403,5.5403,5.5403,5.5078,5.3397,5.2843,5.2461,5.0837,5.034,5.0302,5.0302,5.0302,5.0302,5.0302,4.9691,4.8869,4.8028,4.7131,4.65,4.65,4.5851,4.5812,4.7436,4.6385,4.5564,4.6385,4.7196,4.7406,4.6538,4.5793,4.5326,4.5307,4.5307,4.5307,4.5307,4.5307,4.5307,4.5307,4.5307,4.5307,4.5307,4.5307,4.5307,4.5307,4.5438,4.5495,4.5495,4.5635,4.568,4.57,4.5826,4.5893,5.4571,5.6616,5.8606,6.1466,6.3427,6.503,6.6479,6.7868,6.8949,6.9295,6.8416,6.7599,6.7675,6.7525,6.7325,6.7016,6.7329,6.7501,6.7238,6.6332,6.5335,6.4343,6.4763,0.0,0.0,0.0,0.0,6.5329,6.4558,6.4552,6.5823,6.4949,6.4768,6.5569,6.47,6.4038,6.3751,6.3178,6.2338,6.123,6.0943,6.0656,6.0403,6.0403,6.0403,6.0403,6.0403,6.0403,6.0403,6.0403,6.0064,5.951,5.921,5.8249,5.6988,5.6715,5.6091,5.5403,5.5403,5.5403,5.5403,5.5403,5.5403,5.5193,5.4027,5.3263,5.2575,5.1467,5.076,5.0302,5.0302,5.0302,5.0302,5.0302,5.0092,4.9824,4.9519,4.8812,4.822,4.822,4.7532,4.715,4.7693,4.733,4.6672,4.5831,4.5946,4.6653,4.8048,4.65,4.5488,4.6042,4.5621,4.5307,4.5307,4.5307,4.5307,4.5307,4.5307,4.5329,4.5438,4.5429,4.5476,4.5566,4.5618,4.5624,4.5624,4.5769,4.5826,4.5826,4.5911,4.5994,5.5496,5.7485,5.9187,6.1737,6.3192,6.4347,6.584,6.6986,6.7859,6.8241,6.7161,6.6078,6.5832,6.5855,6.5805,6.5461,6.626,6.7019,6.733,6.6233,6.5312,6.5006,6.5148,6.4801,0.0,0.0,0.0,6.5541,6.5569,6.5662,6.6054,6.5423,6.5254,6.5697,6.5062,6.4432,6.3809,6.3503,6.251,6.0828,6.0537,6.0403,6.0403,6.0403,6.0403,6.0403,6.0403,6.0425,6.0474,6.0412,5.9915,5.9178,5.8853,5.7896,5.6645,5.6358,5.5954,5.5531,5.5434,5.5403,5.5403,5.5403,5.5193,5.4785,5.3948,5.3111,5.2273,5.1505,5.0875,5.0434,5.0434,5.0434,5.0434,5.0434,5.0434,5.0357,5.007,4.9609,4.9236,4.9236,4.8546,4.8143,4.8727,4.8842,4.8469,4.7386,4.6983,4.6914,4.7248,4.5851,4.5029,4.5553,4.4895,4.4544,4.4881,4.491,4.5064,4.541,4.5428,4.5473,4.556,4.5602,4.5642,4.5708,4.578,4.5801,4.5773,4.5923,4.6019,4.6019,4.6052,4.6093,5.6537,5.8117,5.9432,6.1861,6.2495,6.3155,6.5576,6.6128,6.6388,6.736,6.6763,6.5887,6.5205,6.5138,6.4927,6.4078,6.4791,6.5745,6.6613,6.5271,6.4821,0.0,0.0,0.0,0.0,0.0,0.0,6.5082,0.0,6.7135,6.6332,6.6273,6.6104,6.5737,6.5711,6.5583,6.5276,6.445,6.3188,6.1545,6.0794,6.0431,6.0431,6.0431,6.0431,6.0431,6.0431,6.0514,6.0608,6.0474,6.0015,5.9314,5.845,5.7574,5.671,5.5915,5.5696,5.575,5.5507,5.5428,5.5409,5.5371,5.4778,5.3974,5.3179,5.2419,5.1662,5.0911,5.0705,5.0705,5.0705,5.0705,5.0705,5.0705,5.0705,5.0493,4.974,4.9566,4.9566,4.9566,4.89,4.8822,5.0435,5.0666,5.0636,5.0636,4.9961,4.8216,4.4766,4.4228,4.4171,4.4219,4.3416,4.3235,4.414,4.4215,4.4613,4.5573,4.5675,4.5717,4.5717,4.5783,4.577,4.5731,4.5903,4.5983,4.5931,4.6111,4.6199,4.6199,4.6199,4.6199,5.7274,5.9274,6.1088,6.1747,6.2391,6.3035,6.3694,6.4334,6.4689,6.4294,6.2961,6.1615,6.0855,6.1688,6.263,6.3049,6.5464,0.0,6.843,6.7651,0.0,6.6717,0.0,6.5581,6.4515,6.6657,0.0,0.0,6.7027,6.7473,6.7412,6.7259,6.6825,6.6105,6.5974,6.5223,6.3788,6.226,6.1376,6.1077,6.0866,6.0769,6.0769,6.0769,6.0769,6.0769,6.0769,6.0784,6.0817,6.0792,6.0302,5.9468,5.864,5.7792,5.6925,5.6057,5.5779,5.5779,5.5719,5.5707,5.5591,5.4946,5.458,5.4128,5.2695,5.2117,5.176,5.0938,5.0705,5.0705,5.0705,5.0705,5.0705,5.0705,5.0705,5.0647,5.0435,5.0396,5.0396,5.0396,5.0203,5.0201,5.0692,5.0244,4.9823,4.9863,4.9199,4.8754,4.8948,4.7323,4.6425,4.7119,4.5287,4.4114,4.44,4.4427,4.453,4.4796,4.5422,4.582,4.5928,4.5944,4.5993,4.6074,4.6123,4.6131,4.6119,4.6165,4.6199,4.6199,4.6199,4.6193,5.8397,6.0002,6.1213,6.1601,6.2071,6.2325,6.1954,6.252,6.2794,6.1544,6.0478,5.9511,5.8674,5.9885,6.1288,6.2149,0.0,0.0,6.8505,6.7978,6.7441,0.0,6.6973,0.0,6.5873,6.755,6.8432,0.0,6.8429,6.8547,6.7911,6.7777,6.7289,6.6312,6.6223,6.547,6.3951,6.2601,6.1774,6.1524,6.1128,6.0944,6.0944,6.0944,6.0944,6.0944,0.0,6.0982,6.1074,6.0973,6.0488,5.9697,5.8856,5.8023,5.7171,5.63,5.6009,5.6047,5.6013,5.6009,5.5947,5.5284,5.4574,5.3811,5.2928,5.2133,5.1465,5.1045,5.0925,5.0925,5.0925,5.0925,5.0913,5.0911,5.0918,5.0932,5.0959,5.0966,5.0966,5.0966,5.0966,5.0979,5.1017,5.0602,5.0303,5.0337,4.9959,4.9995,5.0843,4.863,4.7182,4.772,4.5783,4.4633,4.511,4.4799,4.4777,4.522,4.5711,4.602,4.6076,4.6114,4.6148,4.62,4.6234,4.6234,4.6203,4.6234,4.6242,4.6242,4.6242,4.625,5.9592,6.0471,6.0725,6.1369,6.1601,6.1444,6.0451,6.09,6.0995,5.9141,5.8851,5.8656,5.7797,5.9065,6.0561,6.1628,0.0,6.6151,6.7926,6.7594,6.7432,6.8178,6.7611,6.7415,6.8121,6.828,6.8608,6.9173,7.003,6.9786,6.81,6.8003,6.7478,6.6296,6.6243,6.5715,6.4632,6.3859,6.3045,6.2176,6.1431,6.1074,6.1074,6.1074,6.1074,6.1074,0.0,0.0,6.1311,6.1138,6.0655,5.9949,5.9081,5.8245,5.7414,5.6553,5.629,5.6381,5.6269,5.6295,5.6315,5.5726,5.4557,5.3365,5.3228,5.2198,5.1056,5.1183,5.1206,5.1206,5.1206,5.1206,5.1217,5.1211,5.122,5.123,5.1292,5.13,5.13,5.13,5.13,5.13,5.1308,5.1308,5.1308,5.1316,5.1316,5.1316,5.1316,4.9061,4.7501,4.7506,4.5933,4.5206,4.5966,4.5246,4.5052,4.582,4.5983,4.6036,4.6036,4.6212,4.6273,4.6214,4.6273,4.6273,4.6214,4.6273,4.63,4.63,4.6417,4.6475,6.0237,6.0939,6.1349,6.0764,6.1174,6.1288,5.969,6.0002,5.9944,5.7523,5.7562,5.7777,5.6957,5.8187,6.0078,6.2379,6.4347,6.6416,6.882,6.9034,6.9015,0.0,6.9037,6.8995,6.9132,6.9809,0.0,0.0,0.0,6.9896,6.81,6.7998,6.7247,6.562,6.5414,6.4623,6.3178,6.2893,6.2393,6.1645,6.1489,6.1412,6.1412,6.1412,6.1412,6.1412,6.1412,0.0,6.1471,6.1436,6.0949,6.0161,5.929,5.8413,5.7551,5.6699,5.6377,5.6405,5.6372,5.6377,5.6167,5.4699,5.4042,5.3536,5.211,5.1472,5.1243,5.1272,5.1276,5.1276,5.1276,5.1276,5.128,5.1288,5.1288,5.1292,5.1296,5.13,5.13,5.13,5.13,5.1312,5.1362,5.1385,5.1375,5.1379,5.1381,5.1381,5.1381,5.0274,4.9516,4.9568,4.8012,4.6777,4.6279,4.5443,4.4701,4.4163,4.4809,4.5201,4.5201,4.5908,4.6298,4.6277,4.6298,4.6298,4.6277,4.6298,4.63,4.6319,4.7042,4.7372,6.0159,6.0705,6.1037,6.1076,6.1056,6.0568,5.8812,5.8753,5.8441,5.6352,5.6586,5.6918,5.6079,5.766,5.9512,6.0764,6.3184,6.5507,6.7185,6.8161,6.8727,6.8727,6.8727,6.8903,6.9352,6.9372,0.0,0.0,0.0,6.8967,6.8094,6.7212,6.6569,6.6143,6.5199,6.4556,6.4251,6.3288,6.2625,6.2281,6.181,6.1595,6.1595,6.1595,6.1595,6.1595,6.1595,0.0,6.1576,6.1107,6.0698,6.021,5.8887,5.8127,5.7655,5.682,5.6508,5.6508,5.6508,5.6508,5.6293,5.5045,5.4297,5.3732,5.2918,5.2021,5.13,5.13,5.13,5.13,5.13,5.13,5.1304,5.1346,5.1343,5.1358,5.1358,5.1358,5.1358,5.1358,5.1358,5.1361,5.1394,5.1396,5.1401,5.1392,5.1394,5.1394,5.1394,5.1004,5.0739,5.0772,4.9621,4.8708,4.8308,4.7471,4.6807,4.6378,4.6749,4.6788,4.6376,4.6749,4.6768,4.63,4.63,4.63,4.63,4.63,4.63,4.6319,4.7198,4.7606,6.008,6.0549,6.0803,6.131,6.1056,6.0139,5.8011,5.7816,5.7445,5.5201,5.5571,5.6118,5.5435,5.6938,5.8538,5.9261,6.1525,6.375,6.537,6.6873,6.7888,6.8083,6.8435,0.0,6.9352,6.8786,0.0,0.0,0.0,0.0,6.7576,6.6327,6.5722,6.5975,6.4885,6.4453,6.4765,6.3594,6.2911,6.2716,6.2032,6.1698,6.1698,6.1698,6.1698,6.1698,6.1698,0.0,0.0,6.0764,6.0295,5.9963,5.8402,5.7699,5.7465,5.6821,5.6606,5.6606,5.6606,5.6606,5.6489,5.5806,5.4822,5.3896,5.3701,5.2554,5.1326,5.1326,5.1326,5.1326,5.1326,5.1463,5.1665,5.1904,5.1811,5.1726,5.1921,5.196,5.1902,5.1707,5.1687,5.1629,5.1433,5.1394,5.1394,5.1394,5.1394,5.1394,5.1394,5.1394,5.1394,5.1394,5.0789,5.0299,5.0124,4.9306,4.8642,4.8291,4.8252,4.79,4.7079,4.7215,4.7002,4.63,4.63,4.63,4.63,4.63,4.63,4.6319,4.7198,4.7684,6.0568,6.0978,6.1408,6.0705,6.1056,6.0722,5.7445,5.7894,5.7836,5.3778,5.4266,5.5396,5.532,5.5493,5.6665,5.9788,5.9885,6.0998,6.5038,6.6366,6.7205,6.8005,0.0,0.0,6.9469,6.9333,0.0,0.0,0.0,0.0,6.5878,6.5682,6.4902,6.3399,6.3965,6.3574,6.2069,6.2676,6.2598,6.1815,6.1737,6.1698,6.1698,6.1698,6.1698,6.1698,6.1698,0.0,0.0,6.0764,5.9924,5.9124,5.8168,5.7348,5.6704,5.6626,5.6606,5.6606,5.6606,5.6606,5.6586,5.6508,5.5352,5.3847,5.3047,5.2149,5.1388,5.1388,5.1388,5.1388,5.1388,5.1974,5.2776,5.3576,5.3171,5.28,5.358,5.3756,5.3522,5.2724,5.2587,5.2331,5.1531,5.1394,5.1394,5.1394,5.1394,5.1394,5.1394,5.1394,5.1394,5.1394,5.1336,5.0965,5.0163,4.9306,4.8154,4.6632,4.6534,4.6144,4.5264,4.6007,4.6378,4.63,4.63,4.63,4.63,4.63,4.63,4.6319,4.7198,4.7998,6.0217,6.1037,6.162,6.1271,6.0646,5.9631,5.7758,5.7465,5.6801,5.4049,5.4459,5.5142,5.4615,5.4947,5.5747,5.7113,5.7894,5.9104,6.1369,6.3321,6.5038,6.6424,6.7634,0.0,0.0,0.0,0.0,0.0,0.0,0.0,6.4082,6.4531,6.4492,6.3809,6.3106,6.2657,6.2481,6.2306,6.2032,6.1698,6.1698,6.1698,6.1698,6.1698,6.1698,6.1698,6.1698,0.0,0.0,5.9983,5.9104,5.8226,5.7406,5.6879,5.6606,5.6606,5.6606,5.6606,5.6606,5.6606,5.6508,5.5981,5.4986,5.3932,5.358,5.2878,5.2078,5.155,5.1394,5.1394,5.1394,5.2058,5.2919,5.3795,5.3737,5.358,5.3932,5.401,5.3893,5.3541,5.3053,5.2587,5.2234,5.1746,5.1394,5.1394,5.1394,5.1394,5.1394,5.1394,5.1394,5.1394,5.1394,5.1258,5.0906,5.0555,5.0087,4.9403,4.9364,4.8974,4.8113,4.8406,4.8349,4.7822,4.7334,4.7081,4.7081,4.6554,4.6573,4.71,4.7939,4.8486,6.0315,6.1232,6.1757,6.201,6.0764,5.9124,5.7758,5.7192,5.6313,5.4088,5.4517,5.5103,5.4498,5.4888,5.5376,5.563,5.6665,5.7914,5.93,6.1291,6.3164,6.4648,0.0,0.0,0.0,0.0,0.0,0.0,0.0,0.0,0.0,6.3574,6.3809,6.3535,6.2345,6.1991,6.2618,6.201,6.1698,6.1698,6.1698,6.1698,6.1698,6.1698,6.1698,6.1698,0.0,0.0,0.0,5.9183,5.8343,5.7719,5.6918,5.6606,5.6606,5.6606,5.6606,5.6606,5.6606,5.6606,5.6508,5.5884,5.5279,5.4713,5.4459,5.36,5.2626,5.2273,5.198,5.1843,5.2097,5.2429,5.3055,5.4439,5.4576,5.4459,5.4713,5.4771,5.4693,5.4439,5.3678,5.2995,5.2743,5.198,5.1394,5.1394,5.1394,5.1394,5.1394,5.1394,5.1394,5.1394,5.1394,5.1394,5.1394,5.1394,5.1297,5.1023,5.1023,5.0614,4.9753,4.9714,4.9423,4.8818,4.8017,4.7606,4.7606,4.6729,4.6612,4.7237,4.8057,4.8564,6.121,6.1698,6.1913,6.2774,6.1681,5.9729,5.7192,5.7211,5.6821,5.3407,5.409,5.53,5.53,5.53,5.5571,5.645,5.6606,5.7504,6.0022,6.1154,6.2032,0.0,0.0,0.0,0.0,0.0,0.0,0.0,0.0,0.0,0.0,6.3008,6.2618,6.1757,6.1718,6.1698,6.1718,6.1698,6.1698,6.1698,6.1698,6.1698,6.1698,6.1698,6.1698,0.0,0.0,0.0,0.0,5.8538,5.7816,5.7719,5.6918,5.6606,5.6606,5.6606,5.6606,5.6606,5.6606,5.6606,5.6606,5.6586,5.6586,5.6411,5.5552,5.409,5.288,5.3737,5.3346,5.2899,5.3756,5.3346,5.3346,5.5962,5.5903,5.5513,5.6391,5.6567,5.6313,5.5454,5.4576,5.3717,5.286,5.198,5.1394,5.1394,5.1394,5.1394,5.1394,5.1394,5.1394,5.1394,5.1394,5.1394,5.1394,5.1394,5.1023,5.0163,5.0104,4.9714,4.8857,4.8818,4.8818,4.8798,4.8017,4.7606,4.7606,4.6729,4.63,4.6339,4.7217,4.8037,5.8469,5.9377,5.9875,6.0246,5.9065,5.7445,5.602,5.5454,5.4556,5.2273,5.2722,5.3719,5.4303,5.44,5.5064,5.7094,5.7426,5.7914,5.9319,0.0,0.0,6.2891,6.4531,0.0,0.0,0.0,0.0,0.0,0.0,0.0,0.0,6.211,6.1991,6.1718,6.1698,6.1698,6.1698,6.1698,6.1698,6.1698,6.1698,6.1698,6.1698,6.1698,0.0,0.0,0.0,0.0,0.0,5.8265,5.7484,5.6957,5.6704,5.6606,5.6606,5.6606,5.6606,5.6606,5.6606,5.6606,5.6508,5.5903,5.5708,5.5669,5.5376,5.4498,5.3522,5.319,5.3346,5.3795,5.4654,5.4674,5.483,5.6255,5.6391,5.6255,5.6547,5.6606,5.6528,5.6235,5.5474,5.4791,5.4519,5.3756,5.3171,5.3171,5.2663,5.2507,5.3093,5.2136,5.1629,5.2214,5.1765,5.1394,5.1394,5.1394,5.1277,5.1004,5.0984,5.0867,5.0594,5.0575,5.0575,5.0575,4.9733,4.9304,4.9304,4.8427,4.831,4.8894,4.9187,4.944,5.6528,5.7498,5.8058,5.8773,5.7439,5.5824,5.534,5.4546,5.3537,5.2171,5.2585,5.3463,5.4322,5.4498,5.5123,5.7035,5.7348,5.7758,5.8927,0.0,0.0,6.2852,0.0,0.0,0.0,0.0,0.0,0.0,0.0,0.0,0.0,6.1698,6.1698,6.1698,6.1698,6.1698,6.1698,6.1698,6.1698,6.1698,6.1698,6.1698,6.1698,6.1698,0.0,0.0,0.0,0.0,0.0,5.7699,5.7055,5.6606,5.6606,5.6606,5.6606,5.6606,5.6606,5.6606,5.6606,5.6606,5.6508,5.5962,5.5786,5.5728,5.5396,5.5142,5.4791,5.3932,5.4068,5.4615,5.5162,5.53,5.5513,5.6391,5.6606,5.6606,5.6606,5.6606,5.6606,5.6606,5.5903,5.53,5.53,5.4576,5.401,5.401,5.3541,5.3385,5.3932,5.2761,5.2097,5.2646,5.1921,5.1394,5.1394,5.1394,5.1394,5.1394,5.1394,5.1394,5.1394,5.1394,5.1394,5.1394,5.0534,5.0104,5.0104,4.9228,4.9247,5.0085,4.9753,4.9792,0.0,5.5902,5.6375,5.7955,5.6517,5.4752,5.4874,5.4238,0.0,5.2723,5.3244,5.4105,5.5023,5.5142,5.5454,5.6508,5.6645,5.7211,0.0,6.0002,0.0,0.0,0.0,0.0,0.0,0.0,0.0,0.0,0.0,0.0,0.0,6.1698,6.1698,6.1698,6.1698,6.1698,6.1698,6.1698,6.1698,6.1698,6.1698,6.1698,6.1698,6.1698,0.0,0.0,0.0,0.0,0.0,5.6938,5.6606,5.6606,5.6606,5.6606,5.6606,5.6606,5.6606,5.6586,5.6528,5.6547,5.6606,5.6606,5.6606,5.645,5.563,5.5962,5.6411,5.5552,5.5337,5.5396,5.5396,5.5396,5.5591,5.6411,5.6606,5.6606,5.6606,5.6606,5.6606,5.6606,5.5942,5.5396,5.5396,5.4713,5.4186,5.4186,5.4127,5.4108,5.4186,5.3366,5.2782,5.2782,5.2019,5.1472,5.1416,5.1394,5.1394,5.1394,5.1394,5.1394,5.1394,5.1394,5.1394,5.1394,5.0592,5.0182,5.0182,4.9384,4.9403,5.0163,4.9364,4.9423,5.1806,0.0,5.4176,5.4673,5.3843,5.2916,0.0,5.2363,5.1736,5.1449,5.1723,5.2457,5.3894,5.3693,5.4227,5.7055,5.6996,5.7426,5.9768,0.0,0.0,0.0,0.0,0.0,0.0,0.0,0.0,0.0,0.0,0.0,0.0,6.1698,6.1698,6.1698,6.1698,6.1698,6.1698,6.1698,6.1698,6.1698,6.1698,6.1698,6.1698,6.1698,0.0,0.0,0.0,0.0,5.7738,5.6938,5.6606,5.6606,5.6606,5.6606,5.6606,5.6606,5.6606,5.6508,5.5845,5.604,5.6606,5.6606,5.6606,5.6567,5.6352,5.645,5.6411,5.5552,5.5786,5.6294,5.6294,5.6294,5.6352,5.6547,5.6606,5.6606,5.6606,5.6606,5.6606,5.6606,5.643,5.6294,5.6294,5.6118,5.5981,5.5981,5.5415,5.524,5.5903,5.4654,5.3698,5.3698,5.2917,5.212,5.1464,5.14,5.1394,5.1394,5.1394,5.1394,5.1394,5.1402,5.1403,5.1394,5.1199,5.1082,5.1082,5.0887,5.0887,5.1082,5.0876,5.0899,5.0712,5.1674,5.2824,5.3293,5.2748,5.2249,5.2702,5.1903,5.1075,5.1098,5.1207,5.1846,5.3576,5.3562,5.4166,5.6821,5.7192,0.0,0.0,0.0,0.0,0.0,0.0,0.0,0.0,0.0,0.0,0.0,0.0,0.0,0.0,6.1698,6.1698,6.1698,6.1698,6.1698,6.1698,6.1698,6.1698,6.1698,6.1698,6.1483,6.1095,6.1095,6.0412,0.0,0.0,0.0,5.7211,5.6782,5.6606,5.6567,5.6157,5.6255,5.6508,5.5708,5.5669,5.5884,5.5005,5.5279,5.6079,5.6469,5.6608,5.6593,5.6593,5.6596,5.6501,5.6023,5.6235,5.6606,5.6606,5.6606,5.6606,5.6606,5.6606,5.6606,5.6606,5.6606,5.6606,5.6606,5.6606,5.6606,5.6606,5.6606,5.6606,5.6606,5.6196,5.6062,5.6534,5.5423,5.4605,5.461,5.3458,5.2503,5.2038,5.1624,5.1407,5.1407,5.1407,5.1407,5.1407,5.1391,5.1393,5.1407,5.1407,5.1407,5.1407,5.1407,5.1407,5.1407,5.1393,5.1394,5.0654,5.1471,5.2385,5.2741,5.226,5.1934,5.2794,5.1912,5.0951,5.1088,5.1284,5.1938,5.3629,5.4079,5.4771,5.6508,0.0,0.0,6.1193,0.0,0.0,0.0,0.0,0.0,0.0,0.0,0.0,0.0,0.0,0.0,0.0,6.1562,6.1503,6.1503,6.1366,6.1308,6.1308,6.1562,6.1698,6.1698,6.1562,6.1115,6.0393,6.0256,5.9319,0.0,0.0,0.0,5.6606,5.6606,5.6606,5.6528,5.5788,5.5866,5.6237,5.4892,5.4697,5.5011,5.4404,5.468,5.5441,5.6317,5.6596,5.6603,5.6603,5.6607,5.6591,5.6596,5.6608,5.6608,5.6608,5.6606,5.6606,5.6608,5.6606,5.6606,5.6606,5.6606,5.6608,5.6608,5.661,5.6591,5.6591,5.6591,5.6591,5.6591,5.6591,5.6595,5.6602,5.5959,5.5455,5.5305,5.3977,5.304,5.2904,5.222,5.1791,5.1791,5.1555,5.1398,5.1399,5.1398,5.1398,5.1399,5.1398,5.1398,5.1398,5.1398,5.1398,5.1398,5.1399,5.1399,5.05,5.2356,5.3626,5.1587,5.0971,5.0923,5.1077,5.1049,5.094,5.0816,5.1686,5.2707,5.3517,5.4453,5.565,5.7348,0.0,6.0139,0.0,0.0,0.0,0.0,0.0,0.0,0.0,0.0,0.0,0.0,0.0,0.0,0.0,6.0998,6.0607,6.0607,5.9885,5.9493,5.9493,6.0956,6.1698,6.1698,6.0959,6.0529,6.0373,5.9631,5.8753,0.0,0.0,5.7348,5.6606,5.6606,5.6606,5.6586,5.646,5.6032,5.5565,5.6022,5.5359,5.4285,5.489,5.5185,5.5438,5.6317,5.6591,5.6592,5.6592,5.6592,5.6592,5.6591,5.6605,5.6598,5.6598,5.6593,5.6608,5.6596,5.6593,5.6606,5.6606,5.6593,5.6598,5.6598,5.6605,5.6609,5.6609,5.6609,5.6609,5.6609,5.6609,5.661,5.6591,5.6475,5.6123,5.5383,5.5051,5.4604,5.3864,5.3689,5.3592,5.3593,5.2223,5.14,5.1404,5.1401,5.14,5.1404,5.1401,5.1398,5.1398,5.1398,5.1398,5.1398,5.1402,5.1404,4.976,5.0856,5.1779,5.1991,5.2722,5.3435,5.3541,5.3262,5.3007,5.3061,5.3575,5.4258,5.506,5.5653,5.6715,5.8868,0.0,0.0,0.0,0.0,0.0,0.0,0.0,0.0,0.0,0.0,0.0,0.0,0.0,0.0,0.0,0.0,6.0393,6.0393,5.9553,5.9102,5.9102,5.9883,6.0293,6.0293,5.9885,5.9456,5.8987,5.8577,5.7933,5.7153,0.0,5.694,5.6595,5.6595,5.6325,5.5899,5.5905,5.5651,5.5358,5.5752,5.4796,5.3488,5.4835,5.5305,5.5442,5.6319,5.6595,5.6597,5.6597,5.6598,5.6599,5.6597,5.6593,5.6607,5.6607,5.6605,5.6603,5.6606,5.6605,5.6602,5.6602,5.6605,5.6607,5.6607,5.6591,5.6593,5.6593,5.6593,5.6593,5.6593,5.6593,5.6594,5.6597,5.6597,5.6441,5.6053,5.5584,5.5135,5.4746,5.4277,5.4004,5.4004,5.2812,5.2108,5.2109,5.1659,5.1405,5.1406,5.1405,5.1405,5.1405,5.1405,5.1405,5.1405,5.1405,5.1406,4.8856,4.9529,5.0452,5.2414,5.3568,5.4602,5.5975,5.5188,5.4439,5.5449,5.5708,5.5929,5.6454,5.6894,0.0,6.0049,6.0578,0.0,0.0,0.0,0.0,0.0,0.0,0.0,0.0,0.0,0.0,0.0,0.0,0.0,0.0,0.0,6.0011,5.9816,5.8974,5.8506,5.8506,5.8506,5.8718,5.9102,5.8892,5.8348,5.7528,5.751,5.6965,5.6007,5.6417,5.6364,5.6017,5.6429,5.5963,5.5011,5.5228,5.5307,5.5287,5.5073,5.4409,5.3784,5.4917,5.5426,5.5719,5.6382,5.6598,5.66,5.66,5.6601,5.6601,5.6601,5.6599,5.6596,5.6595,5.6594,5.6593,5.6594,5.6594,5.6593,5.6593,5.6594,5.6595,5.6595,5.6596,5.6597,5.6597,5.6597,5.6597,5.6597,5.6597,5.6597,5.66,5.66,5.6601,5.6601,5.5996,5.5605,5.5605,5.498,5.4609,5.4609,5.3594,5.291,5.2715,5.1855,5.1406,5.1406,5.1406,5.1406,5.1406,5.1406,5.1406,5.1406,5.1406,5.1406,4.7971,4.9923,5.175,5.1942,5.0914,5.1135,5.5993,5.4743,5.3466,5.6678,5.7522,5.7444,5.657,5.7785,5.9249,6.0243,0.0,0.0,0.0,0.0,0.0,0.0,0.0,0.0,0.0,0.0,0.0,0.0,0.0,0.0,0.0,0.0,0.0,5.8095,5.7236,5.6787,5.6787,5.6787,5.756,5.9083,5.8275,5.7478,5.6698,5.6686,5.577,5.4286,5.5907,5.5674,5.4307,5.5928,5.5615,5.4171,5.4976,5.5292,5.5195,5.4394,5.5039,5.6211,5.5547,5.582,5.6523,5.6582,5.6601,5.6601,5.6601,5.6601,5.6601,5.6601,5.6601,5.6601,5.66,5.6597,5.6594,5.6598,5.6596,5.6593,5.6593,5.6597,5.6599,5.6599,5.6601,5.6601,5.6601,5.6601,5.6601,5.6601,5.6601,5.6601,5.6601,5.6601,5.6601,5.6601,5.6543,5.6504,5.6504,5.6445,5.6406,5.6406,5.4844,5.3535,5.2734,5.1855,5.1406,5.1406,5.1406,5.1406,5.1406,5.1406,5.1406,5.1406,5.1406,5.1406,4.7124,4.9221,5.1279,5.1769,5.1423,5.2059,5.6308,5.6394,5.628,5.8728,5.9368,5.919,5.8306,0.0,6.0018,6.035,0.0,0.0,0.0,0.0,0.0,0.0,0.0,0.0,0.0,0.0,0.0,0.0,0.0,0.0,0.0,0.0,0.0,5.7901,5.7042,5.6593,5.6593,5.6066,5.6101,5.674,5.6959,5.6609,5.5789,5.5791,5.5147,5.4073,5.5264,5.511,5.4097,5.5308,5.4763,5.328,5.416,5.4492,5.457,5.5332,5.5683,5.582,5.6035,5.6328,5.6601,5.6601,5.6601,5.6601,5.6601,5.6601,5.6601,5.6601,5.6601,5.6601,5.6601,5.6601,5.66,5.6601,5.6601,5.66,5.66,5.6601,5.6601,5.6601,5.6601,5.6601,5.6601,5.6601,5.6601,5.6601,5.6601,5.6601,5.6601,5.6601,5.6601,5.6601,5.6601,5.6601,5.6601,5.6601,5.6601,5.6601,5.5469,5.4414,5.3535,5.2676,5.1953,5.1406,5.1406,5.1406,5.1406,5.1406,5.1406,5.1406,5.1406,5.1406,4.674,4.8567,5.0491,5.1318,5.1732,5.2904,5.6485,5.6991,5.7449,6.0174,6.0354,5.9841,5.9295,5.9648,0.0,0.0,0.0,0.0,0.0,0.0,0.0,0.0,0.0,0.0,0.0,0.0,0.0,0.0,0.0,0.0,0.0,0.0,0.0,0.0,5.691,5.6597,5.6597,5.5738,5.5308,5.5308,5.5621,5.5327,5.4486,5.4761,5.4253,5.3238,5.439,5.4236,5.326,5.4413,5.4023,5.2754,5.3359,5.3769,5.418,5.5644,5.5996,5.5801,5.6387,5.6601,5.6601,5.6601,5.6601,5.6601,5.6601,5.6601,5.6601,5.6601,5.6601,5.6601,5.6601,5.6601,5.6601,5.6601,5.6601,5.6601,5.6601,5.6601,5.6601,5.6601,5.6601,5.6601,5.6601,5.6601,5.6601,5.6601,5.6601,5.6601,5.6601,5.6601,5.6601,5.6601,5.6601,5.6601,5.6601,5.6601,5.6601,5.6601,5.6035,5.5312,5.4453,5.3301,5.2558,5.2226,5.168,5.1543,5.1816,5.1523,5.1406,5.1406,5.1406,5.1406,4.6885,4.8125,4.9606,5.0462,5.1408,5.3042,5.6485,5.6069,5.6219,6.0752,6.0351,5.9199,5.9199,5.9199,0.0,0.0,0.0,0.0,0.0,0.0,0.0,0.0,0.0,0.0,0.0,0.0,0.0,0.0,0.0,0.0,0.0,0.0,0.0,0.0,5.6601,5.6601,5.6582,5.5723,5.5273,5.5254,5.4394,5.3535,5.2732,5.3593,5.3047,5.1504,5.3223,5.3008,5.1523,5.3262,5.3476,5.2695,5.2695,5.3223,5.4101,5.498,5.5859,5.6601,5.6601,5.6601,5.6601,5.6601,5.6601,5.6601,5.6601,5.6601,5.6601,5.6601,5.6601,5.6601,5.6601,5.6601,5.6601,5.6601,5.6601,5.6601,5.6601,5.6601,5.6601,5.6601,5.6601,5.6601,5.6601,5.6601,5.6621,5.6621,5.6621,5.6621,5.6601,5.6601,5.6601,5.6601,5.6601,5.6601,5.6601,5.6601,5.6601,5.6601,5.6601,5.6211,5.5332,5.3633,5.3125,5.3984,5.2305,5.1855,5.2715,5.1855,5.1426,5.1426,5.1426,5.1406,4.6317,4.7663,4.947,4.984,5.1947,5.425,5.5473,5.6336,5.7618,6.0231,5.9941,5.9004,5.8398,5.8281,0.0,0.0,0.0,0.0,0.0,0.0,0.0,0.0,0.0,0.0,0.0,0.0,0.0,0.0,0.0,0.0,0.0,0.0,0.0,0.0,5.6601,5.6308,5.5683,5.4824,5.4082,5.3457,5.2598,5.2363,5.2714,5.2969,5.2461,5.1465,5.2598,5.2441,5.1445,5.1953,5.2012,5.1855,5.2461,5.3223,5.4101,5.498,5.5859,5.6601,5.6601,5.6601,5.6601,5.6601,5.6601,5.6601,5.6601,5.6601,5.6601,5.6601,5.6601,5.6601,5.6601,5.6601,5.6601,5.6601,5.6601,5.6601,5.6601,5.6601,5.6601,5.6601,5.6601,5.6797,5.7402,5.7519,5.7715,5.834,5.8437,5.8203,5.7598,5.6973,5.6601,5.6601,5.6601,5.6601,5.6601,5.6601,5.6601,5.6601,5.6601,5.6211,5.5332,5.4805,5.4355,5.4004,5.3496,5.3359,5.3613,5.3359,5.3223,5.3203,5.2598,5.2305,4.7711,4.9016,5.0656,5.1432,5.3262,5.5102,5.6004,5.7024,5.8188,5.9628,5.9258,5.8515,5.8008,5.789,0.0,0.0,0.0,0.0,0.0,0.0,0.0,0.0,0.0,0.0,0.0,0.0,0.0,0.0,0.0,0.0,0.0,0.0,0.0,0.0,5.6074,5.5664,5.4785,5.3885,5.3179,5.2651,5.1744,5.1607,5.2144,5.2167,5.1894,5.1426,5.1953,5.1894,5.1406,5.1406,5.1406,5.1445,5.1973,5.2715,5.3555,5.4062,5.4824,5.5625,5.5957,5.6074,5.6133,5.6484,5.6601,5.6601,5.6601,5.6601,5.6601,5.6601,5.6601,5.6601,5.6601,5.6601,5.6601,5.6601,5.6601,5.6601,5.6601,5.6601,5.6601,5.6601,5.6601,5.6875,5.7754,5.789,5.8203,5.9062,5.8906,5.8379,5.75,5.6914,5.6601,5.6601,5.6601,5.6601,5.6601,5.6601,5.6601,5.6601,5.6601,5.6367,5.584,5.5488,5.5215,5.5039,5.4355,5.418,5.4512,5.418,5.4004,5.3984,5.3457,5.3223,5.0231,5.1224,5.2222,5.4246,5.4985,5.5706,5.7494,5.7832,5.8027,5.8906,0.0,5.7871,5.7793,0.0,0.0,0.0,0.0,0.0,0.0,0.0,0.0,0.0,0.0,0.0,0.0,0.0,0.0,0.0,0.0,0.0,0.0,0.0,0.0,0.0,5.5175,5.4745,5.3866,5.3029,5.2542,0.0,5.1606,5.1242,5.1299,5.1363,5.1386,5.1406,5.1406,5.1406,5.1406,5.1406,5.1406,5.1406,5.1406,5.1933,5.2695,5.2695,5.3242,5.4121,5.5,5.5293,5.5449,5.6328,5.6601,5.6601,5.6601,5.6601,5.6601,5.6601,5.6601,5.6601,5.6601,5.6601,5.6601,5.6601,5.6601,5.6601,5.6601,5.6601,5.6601,5.6601,5.6601,5.6894,5.7851,5.7949,5.8203,5.9062,5.8457,5.7617,5.6816,5.664,5.6601,5.6601,5.6601,5.6601,5.6601,5.6601,5.6601,5.6601,5.6601,5.6601,5.6601,5.584,5.5781,5.6582,5.5039,5.4629,5.543,5.4629,5.4238,5.4238,5.416,5.4121,5.0347,5.0015,5.0067,5.4032,5.5647,5.6555,5.7656,5.7363,5.7129,5.8008,5.8027,5.7695,5.7012,0.0,0.0,0.0,0.0,0.0,0.0,0.0,0.0,0.0,0.0,0.0,0.0,0.0,0.0,0.0,0.0,0.0,0.0,0.0,0.0,5.4202,5.42,5.3756,5.2834,5.2623,5.2188,0.0,5.1308,5.1242,5.1297,5.1306,5.1359,5.1406,5.1406,5.1406,5.1406,5.1406,5.1406,5.1406,5.1406,5.1933,5.2695,5.2695,5.3242,5.4121,5.5,5.5293,5.5449,5.6328,5.6601,5.6601,5.6601,5.6601,5.6601,5.6601,5.6601,5.6601,5.6601,5.6601,5.6601,5.6601,5.6601,5.6601,5.6601,5.6601,5.6601,5.6601,5.6601,5.709,5.8652,5.8359,5.8203,5.9062,5.8457,5.7832,5.7637,5.7012,5.6601,5.6601,5.6601,5.6601,5.6601,5.6601,5.6601,5.6601,5.6601,5.6601,5.6601,5.6426,5.6406,5.6601,5.623,5.6133,5.6328,5.6133,5.6035,5.6015,5.5332,5.5019,5.0407,5.1224,5.2334,5.5616,5.6514,5.6718,5.7168,5.6601,5.6211,5.7109,5.6953,5.6523,0.0,0.0,0.0,0.0,0.0,0.0,0.0,0.0,0.0,0.0,0.0,0.0,0.0,0.0,0.0,0.0,0.0,0.0,0.0,5.3934,5.3702,5.329,5.3247,5.2789,5.1889,5.1842,5.1605,5.1152,5.11,5.1123,5.1241,5.1327,5.1363,5.1406,5.1406,5.1406,5.1406,5.1406,5.1406,5.1406,5.1406,5.168,5.2129,5.2558,5.2715,5.3008,5.4707,5.5039,5.4883,5.6172,5.6601,5.6601,5.6601,5.6601,5.6601,5.6601,5.6601,5.6601,5.6601,5.6601,5.6601,5.6601,5.6601,5.6601,5.6601,5.6601,5.6601,5.6601,5.6933,5.7519,5.8418,5.8555,5.8535,5.8574,5.8183,5.7754,5.7324,5.6875,5.6601,5.6601,5.6601,5.6601,5.6601,5.6601,5.6601,5.6601,5.6601,5.6601,5.6601,5.6601,5.6601,5.6601,5.6601,5.6601,5.6601,5.6601,5.6601,5.6582,5.6133,5.5918,5.0375,5.3103,5.5692,5.7104,5.7148,5.6777,5.6621,5.6035,5.5723,5.6445,5.5781,0.0,0.0,0.0,0.0,0.0,0.0,0.0,0.0,0.0,0.0,0.0,0.0,0.0,0.0,0.0,0.0,0.0,0.0,0.0,5.3534,5.3423,5.3045,5.2364,5.2294,5.1895,5.1156,5.1084,5.1069,5.1069,5.0976,5.1024,5.1207,5.1331,5.1386,5.1406,5.1406,5.1406,5.1406,5.1406,5.1406,5.1406,5.1406,5.1406,5.1504,5.2383,5.2246,5.1973,5.4453,5.4824,5.4492,5.6074,5.6601,5.6601,5.6601,5.6601,5.6601,5.6601,5.6601,5.6601,5.6601,5.6601,5.6601,5.6601,5.6601,5.6601,5.6601,5.6601,5.6601,5.6601,5.7305,5.7851,5.7695,5.8398,5.8672,5.7812,5.7676,5.7422,5.6699,5.6601,5.666,5.6816,5.6816,5.6816,5.6816,5.6816,5.6758,5.6601,5.6601,5.6601,5.6601,5.6601,5.6601,5.6601,5.6601,5.6601,5.6601,5.6601,5.6601,5.6601,5.6601,5.6601,5.0167,5.3686,5.6284,5.5761,5.6699,5.7539,5.6777,5.6504,5.6465,0.0,0.0,0.0,0.0,0.0,0.0,0.0,0.0,0.0,0.0,0.0,0.0,0.0,0.0,0.0,0.0,0.0,0.0,0.0,0.0,0.0,5.1655,5.158,5.1466,5.1311,5.1295,5.1172,5.0947,5.0925,5.0929,5.0937,5.103,5.1111,5.1203,5.1282,5.1357,5.1406,5.1406,5.1406,5.1406,5.1406,5.1406,5.1406,5.1406,5.1406,5.1504,5.2383,5.2637,5.2793,5.4648,5.5215,5.5293,5.6289,5.6601,5.6601,5.6601,5.6601,5.6601,5.6601,5.6601,5.6601,5.6601,5.6601,5.6601,5.6601,5.6601,5.6601,5.6601,5.6601,5.6601,5.6601,5.7305,5.7656,5.6894,5.75,5.7773,5.6894,5.6777,5.6738,5.6601,5.6601,5.6894,5.7656,5.7734,5.7734,5.7734,5.7734,5.7402,5.664,5.6601,5.6601,5.6601,5.6601,5.6601,5.6601,5.6601,5.6601,5.6601,5.6601,5.6601,5.6601,5.6601,5.6601,5.1011,5.2815,5.4062,5.5644,5.623,5.6465,5.6582,5.6211,5.5879,5.5879,0.0,0.0,0.0,0.0,0.0,0.0,0.0,0.0,0.0,0.0,0.0,0.0,0.0,0.0,0.0,0.0,0.0,0.0,0.0,5.1266,5.1295,5.1132,5.1048,5.1099,5.103,5.0954,5.0898,5.0898,5.0898,5.0898,5.1037,5.1146,5.1203,5.1274,5.1335,5.1406,5.1406,5.1406,5.1406,5.1406,5.1406,5.1406,5.1406,5.1406,5.1562,5.293,5.3125,5.3027,5.5254,5.5703,5.5449,5.6328,5.6601,5.6601,5.6601,5.6601,5.6601,5.6601,5.6601,5.6601,5.6601,5.6601,5.6601,5.6601,5.6601,5.6601,5.6601,5.6601,5.6738,5.7226,5.7246,5.7207,5.7305,5.7656,5.7773,5.7383,5.7734,5.8223,5.8672,5.873,5.8887,5.9258,5.9297,5.8926,5.7988,5.789,5.7539,5.666,5.6601,5.6601,5.6601,5.6601,5.6601,5.6601,5.6601,5.6601,5.6601,5.6601,5.6601,5.6601,5.6601,5.6601,5.0574,5.1406,5.207,5.4902,5.5625,5.5801,5.6445,0.0,5.5566,0.0,0.0,0.0,0.0,0.0,0.0,0.0,0.0,0.0,0.0,0.0,0.0,0.0,0.0,0.0,0.0,0.0,0.0,0.0,0.0,5.1131,5.0945,5.0717,5.0533,5.041,5.054,5.0492,5.026,5.026,5.0376,5.0596,5.0693,5.0906,5.1203,5.1258,5.1327,5.1406,5.1406,5.1406,5.1406,5.1406,5.1406,5.1406,5.1406,5.1406,5.1582,5.3105,5.3398,5.334,5.5527,5.5996,5.5742,5.6387,5.6601,5.6601,5.6601,5.6601,5.6601,5.6601,5.6601,5.6601,5.6601,5.6601,5.6601,5.6601,5.6601,5.6601,5.6601,5.6777,5.7129,5.7773,5.7558,5.7461,5.8125,5.8223,5.8223,5.8223,5.8789,5.9492,6.0293,6.0215,6.0254,6.0683,6.0527,5.9883,5.8633,5.8535,5.8086,5.6992,5.6933,5.6836,5.6601,5.6601,5.6601,5.6601,5.6601,5.6601,5.6601,5.6601,5.6601,5.6601,5.6601,5.6601,4.7548,4.9609,5.1641,5.2656,5.4726,5.6543,5.6582,0.0,0.0,0.0,0.0,0.0,0.0,0.0,0.0,0.0,0.0,0.0,0.0,0.0,0.0,0.0,0.0,0.0,0.0,0.0,0.0,0.0,0.0,5.0837,5.0026,4.9834,4.9378,4.858,4.9339,4.9378,4.8546,4.8527,4.8933,4.9765,4.9772,5.028,5.1203,5.1207,5.1279,5.1406,5.1406,5.1406,5.1406,5.1406,5.1406,5.1406,5.1406,5.1406,5.1504,5.2422,5.3262,5.4062,5.5039,5.5879,5.6543,5.6582,5.6601,5.6601,5.6601,5.6601,5.6601,5.6601,5.6601,5.6601,5.6601,5.6601,5.6601,5.6601,5.6601,5.6601,5.6601,5.7246,5.7851,5.789,5.8535,5.9082,5.9121,5.9121,5.9121,5.9121,5.918,5.9492,6.0293,5.9726,5.9863,6.1465,6.0898,6.0351,6.0273,6.0273,5.957,5.7949,5.7832,5.7461,5.6621,5.6601,5.6601,5.6601,5.6601,5.6601,5.6601,5.6601,5.6601,5.6601,5.6601,5.6601,4.7319,4.8262,4.9433,5.1387,5.2578,5.3555,5.4687,5.4922,5.4687,0.0,0.0,0.0,0.0,0.0,0.0,0.0,0.0,0.0,0.0,0.0,0.0,0.0,0.0,0.0,0.0,0.0,0.0,0.0,0.0,0.0,4.9944,4.9776,4.9301,4.843,4.8701,4.872,4.8392,4.8392,4.8566,4.8875,4.9478,4.9982,5.0388,5.0998,5.1304,5.1406,5.1406,5.1406,5.1406,5.1406,5.1406,5.1406,5.1406,5.1406,5.1504,5.2383,5.2891,5.3379,5.4805,5.5508,5.5859,5.6426,5.6601,5.6601,5.6601,5.6601,5.6601,5.6601,5.6601,5.6601,5.6601,5.7012,5.7578,5.8144,5.7832,5.7598,5.8144,5.8066,5.8066,5.8633,5.8984,5.9199,5.9199,5.9629,5.9961,5.9961,6.0449,6.1113,6.1953,6.1816,6.1875,6.2461,6.2265,6.1621,6.0508,6.039,5.9922,5.8808,5.873,5.8594,5.8281,5.7734,5.7422,5.7422,5.6875,5.6601,5.6601,5.6601,5.6601,5.6601,5.6601,5.6601,4.6942,4.7362,4.8144,5.043,5.0996,5.1523,5.3535,0.0,5.3398,0.0,0.0,0.0,0.0,0.0,0.0,0.0,0.0,0.0,0.0,0.0,0.0,0.0,0.0,0.0,0.0,0.0,0.0,0.0,0.0,0.0,4.9568,4.9096,4.8597,4.7985,4.7676,4.7676,4.7966,4.7676,4.7685,4.7998,4.8637,4.9284,4.9958,5.0581,5.1061,5.1406,5.1406,5.1406,5.1406,5.1406,5.1406,5.1406,5.1406,5.1406,5.1465,5.2051,5.2637,5.3301,5.4453,5.5254,5.582,5.6406,5.6601,5.6601,5.6601,5.6601,5.6601,5.6601,5.6601,5.6601,5.6601,5.7246,5.8125,5.8984,5.8769,5.8574,5.9414,5.914,5.8906,5.9492,5.9844,6.0039,6.0039,6.0488,6.084,6.084,6.1328,6.2012,6.289,6.2734,6.2676,6.2969,6.2734,6.209,6.0937,6.084,6.0488,5.9668,5.9609,5.9473,5.9219,5.8633,5.8203,5.791,5.7324,5.6894,5.6601,5.6601,5.6601,5.6601,5.6601,5.6601,0.0,0.0,0.0,4.9687,5.0117,5.0781,5.3281,0.0,0.0,0.0,0.0,0.0,0.0,0.0,0.0,0.0,0.0,0.0,0.0,0.0,0.0,0.0,0.0,0.0,0.0,0.0,0.0,0.0,0.0,4.8718,4.8763,4.7743,4.7125,4.7071,4.6232,4.6213,4.7038,4.6232,4.6268,4.7157,4.7187,4.8191,4.9967,4.9989,5.0515,5.1406,5.1406,5.1406,5.1406,5.1406,5.1406,5.1406,5.1406,5.1406,5.1406,5.1406,5.248,5.3965,5.3984,5.5117,5.6562,5.6582,5.6601,5.6601,5.6601,5.6601,5.6601,5.6601,5.6601,5.6601,5.666,5.7305,5.8164,5.9062,5.9258,5.9453,6.0254,6.0449,6.0449,6.0449,6.1113,6.1699,6.1699,6.1699,6.1699,6.1699,6.1699,6.2012,6.2851,6.2226,6.2012,6.2871,6.2207,6.1699,6.1699,6.1699,6.1348,6.0488,6.0449,6.0098,5.9316,5.9258,5.8848,5.7988,5.7949,5.7519,5.668,5.6621,5.6601,5.6601,5.6601,5.6601,4.6171,0.0,0.0,0.0,0.0,0.0,0.0,0.0,0.0,0.0,0.0,0.0,0.0,0.0,0.0,0.0,0.0,0.0,0.0,0.0,0.0,0.0,0.0,0.0,0.0,0.0,0.0,0.0,4.8561,4.8445,4.7883,4.6886,4.6316,4.6302,4.5977,4.5923,4.6155,4.6021,4.6086,4.6332,4.7072,4.8013,4.9153,4.9836,5.0604,5.1406,5.1406,5.1406,5.1406,5.1406,5.1406,5.1406,5.1406,5.1406,5.1406,5.1406,5.2109,5.3144,5.3789,5.4726,5.5762,5.6406,5.6601,5.6601,5.6601,5.6601,5.6601,5.6601,5.6601,5.6894,5.8144,5.8652,5.9219,6.0664,6.0527,6.0293,6.1152,6.1348,6.1348,6.1348,6.1543,6.1699,6.1699,6.1699,6.1699,6.1699,6.1699,6.1797,6.2031,6.1855,6.1797,6.2031,6.1836,6.1699,6.1699,6.1699,6.1601,6.1367,6.1348,6.123,6.1015,6.039,5.9941,5.9707,5.914,5.8711,5.8475,5.7207,5.6601,5.66,5.6598,5.6596,4.6139,4.6207,4.6461,0.0,0.0,0.0,4.8613,4.8613,0.0,0.0,0.0,0.0,0.0,0.0,0.0,0.0,0.0,0.0,0.0,0.0,0.0,0.0,0.0,0.0,0.0,0.0,0.0,4.8711,4.8414,4.7875,4.7004,4.6401,4.6064,4.6046,4.5968,4.5931,4.5931,4.5998,4.6063,4.6084,4.6687,4.7617,4.8859,4.9413,5.0293,5.1406,5.1406,5.1406,5.1406,5.1406,5.1406,5.1406,5.1406,5.1406,5.1445,5.1816,5.2266,5.2871,5.4101,5.4863,5.5449,5.6328,5.6601,5.6601,5.6601,5.6601,5.6601,5.6601,5.6855,5.7461,5.8848,5.9453,6.0039,6.1387,6.1308,6.1074,6.1582,6.1699,6.1699,6.1699,6.1699,6.1699,6.1699,6.1699,6.1699,6.1699,6.1699,6.1699,6.1699,6.1699,6.1699,6.1699,6.1699,6.1699,6.1699,6.1699,6.1699,6.1699,6.1699,6.1699,6.1699,6.1211,6.0762,6.041,5.9941,5.951,5.9155,5.7792,5.6952,5.6616,5.6965,5.7138,4.6049,4.6142,4.6406,0.0,0.0,0.0,4.8262,4.8008,4.7695,0.0,0.0,0.0,0.0,0.0,0.0,0.0,0.0,0.0,0.0,0.0,0.0,0.0,0.0,0.0,0.0,5.0254,5.0156,5.0058,4.8535,4.7244,4.6406,4.6264,4.6167,4.6115,4.6105,4.6098,4.6098,4.6109,4.6142,4.6202,4.6207,4.7159,4.8906,4.8906,4.9805,5.1406,5.1406,5.1406,5.1406,5.1406,5.1406,5.1406,5.1406,5.1406,5.1484,5.2266,5.2676,5.3066,5.4629,5.5273,5.5566,5.6348,5.6601,5.6601,5.6601,5.6601,5.6601,5.6601,5.7226,5.8105,5.8965,5.9805,6.0625,6.1484,6.1699,6.1699,6.1699,6.1699,6.1699,6.1699,6.1699,6.1699,6.1699,6.1699,6.1699,6.1699,6.1699,6.1699,6.1699,6.1699,6.1699,6.1699,6.1699,6.1699,6.1699,6.1699,6.1699,6.1699,6.1699,6.1699,6.1699,6.1699,6.1347,6.0564,6.0544,6.0112,5.9246,5.8432,5.7632,5.6904,5.7665,5.7994,0.0,0.0,0.0,0.0,0.0,0.0,4.6738,4.668,4.6797,0.0,0.0,0.0,0.0,0.0,0.0,0.0,0.0,0.0,0.0,0.0,0.0,0.0,0.0,0.0,0.0,5.0586,4.9902,4.9219,4.8183,4.7519,4.7343,4.6608,4.6199,4.6171,4.6128,4.6098,4.6098,4.615,4.6195,4.6202,4.6245,4.7206,4.8906,4.8906,4.9805,5.1406,5.1406,5.1406,5.1406,5.1406,5.1406,5.1406,5.1406,5.1406,5.1426,5.1582,5.2539,5.3789,5.4141,5.5176,5.6367,5.6543,5.6601,5.6601,5.6601,5.6601,5.6601,5.6601,5.7226,5.8105,5.8965,5.9805,6.0625,6.1484,6.1699,6.1699,6.1699,6.1699,6.1699,6.1699,6.1699,6.1699,6.1699,6.1699,6.1699,6.1699,6.1699,6.1699,6.1699,6.1699,6.1699,6.1699,6.1699,6.1699,6.1699,6.1699,6.1699,6.1699,6.1699,6.1699,6.1699,6.1699,6.1621,6.1443,6.1455,6.1019,6.0137,5.928,5.8772,5.8614,5.8783,5.8855,0.0,0.0,0.0,4.6142,0.0,0.0,0.0,4.6287,4.6426,4.6855,0.0,0.0,0.0,0.0,0.0,0.0,0.0,0.0,0.0,0.0,0.0,0.0,0.0,0.0,0.0,5.1289,5.0449,4.9609,4.873,4.8066,4.7617,4.6735,4.6243,4.6243,4.6212,4.6202,4.6202,4.6238,4.6243,4.6243,4.6288,4.7207,4.8906,4.8906,4.9805,5.1406,5.1406,5.1406,5.1406,5.1406,5.1406,5.1406,5.1406,5.1406,5.1445,5.1894,5.2598,5.3476,5.4355,5.5215,5.6015,5.6465,5.6601,5.6601,5.6601,5.6601,5.6601,5.6601,5.7539,5.8652,5.9082,6.0117,6.1152,6.1601,6.1699,6.1699,6.1699,6.1699,6.1699,6.1699,6.1699,6.1699,6.1699,6.1699,6.1699,6.1699,6.1699,6.1699,6.1699,6.1699,6.1699,6.1699,6.1699,6.1699,6.1699,6.1699,6.1699,6.1699,6.1699,6.1699,6.1699,6.1699,6.1697,6.1691,6.1697,6.1475,6.1044,6.0614,5.995,5.9111,5.9556,5.9749,0.0,0.0,0.0,0.0,0.0,4.6173,0.0,0.0,0.0,4.6308,0.0,0.0,0.0,0.0,0.0,0.0,0.0,0.0,0.0,0.0,0.0,0.0,0.0,0.0,0.0,5.1914,5.1133,5.0488,4.9648,4.8769,4.7891,4.7012,4.6465,4.6308,4.6308,4.6308,4.6308,4.6308,4.6308,4.6308,4.6308,4.7129,4.8652,4.8828,4.9726,5.1172,5.1328,5.1406,5.1406,5.1406,5.1406,5.1406,5.1406,5.1406,5.1484,5.2187,5.2656,5.3144,5.4551,5.5273,5.5664,5.6367,5.6601,5.6601,5.6601,5.6601,5.6601,5.6601,5.7734,5.8984,5.916,6.0312,6.1484,6.166,6.1699,6.1699,6.1699,6.1699,6.1699,6.1699,6.1699,6.1699,6.1699,6.1699,6.1699,6.1699,6.1699,6.1699,6.1699,6.1699,6.1699,6.1699,6.1699,6.1699,6.1699,6.1699,6.1699,6.1699,6.1699,6.1699,6.1699,6.1697,6.1691,6.1697,6.1705,6.1698,6.1698,6.1698,6.0976,5.961,6.0315,6.0646,0.0,0.0,0.0,0.0,4.6052,0.0,0.0,0.0,4.6235,4.6289,0.0,0.0,0.0,0.0,0.0,0.0,0.0,0.0,0.0,0.0,0.0,0.0,0.0,0.0,0.0,0.0,5.1367,5.1269,5.0508,4.9668,4.8808,4.793,4.7109,4.6328,4.6308,4.6308,4.6308,4.6308,4.6308,4.6308,4.6308,4.6816,4.7773,4.8555,4.9433,5.0371,5.1094,5.1406,5.1406,5.1406,5.1406,5.1406,5.1406,5.1406,5.1406,5.1504,5.2539,5.3887,5.4082,5.5156,5.6465,5.6562,5.6601,5.6601,5.6601,5.6601,5.6601,5.6601,5.7305,5.8223,5.9004,5.9863,6.0742,6.1523,6.1699,6.1699,6.1699,6.1699,6.1699,6.1699,6.1699,6.1699,6.1699,6.1699,6.1699,6.1699,6.1699,6.1699,6.1699,6.1699,6.1699,6.1699,6.1699,6.1699,6.1699,6.1699,6.1699,6.1699,6.1699,6.1699,6.1698,6.1709,6.1701,6.1697,6.1705,6.1698,6.1698,6.1698,6.1601,6.1405,6.1503,6.1542,0.0,0.0,0.0,0.0,0.0,0.0,4.5955,0.0,4.6147,0.0,0.0,0.0,0.0,0.0,0.0,0.0,0.0,0.0,0.0,0.0,0.0,0.0,0.0,0.0,0.0,0.0,0.0,0.0,0.0,4.9609,4.8223,4.7793,4.7207,4.6328,4.6308,4.6308,4.6308,4.6308,4.6308,4.6308,4.6308,4.6758,4.7637,4.8496,4.9375,5.0234,5.1055,5.1406,5.1406,5.1406,5.1406,5.1406,5.1406,5.1406,5.1406,5.1406,5.25,5.4004,5.4004,5.5137,5.6601,5.6601,5.6601,5.6601,5.6601,5.6953,5.7344,5.7344,5.832,5.9433,5.9805,6.0527,6.125,6.1601,6.1699,6.1699,6.1699,6.1699,6.1699,6.1699,6.1699,6.1699,6.1699,6.1699,6.1699,6.1699,6.1699,6.1699,6.1699,6.1699,6.1699,6.1699,6.1699,6.1699,6.1699,6.1699,6.1699,6.1699,6.2167,6.2458,6.245,6.2931,6.2965,6.2469,6.2445,6.2208,6.1698,6.1698,6.1698,6.1698,6.1698,6.1698,4.5181,0.0,0.0,0.0,0.0,0.0,0.0,0.0,0.0,0.0,0.0,0.0,0.0,0.0,0.0,0.0,0.0,0.0,0.0,0.0,0.0,0.0,0.0,0.0,0.0,0.0,0.0,0.0,0.0,0.0,4.7695,4.7598,4.7207,4.6328,4.6308,4.6308,4.6308,4.6308,4.6308,4.6308,4.6308,4.6621,4.7266,4.8144,4.9023,4.9883,5.0703,5.1191,5.1406,5.1406,5.1406,5.1406,5.1406,5.1406,5.1426,5.168,5.2715,5.4023,5.4277,5.5332,5.6601,5.6601,5.6601,5.6601,5.6601,5.7031,5.7598,5.7832,5.8945,6.0117,6.0332,6.1055,6.1699,6.1699,6.1699,6.1699,6.1699,6.1699,6.1699,6.1699,6.1699,6.1699,6.1699,6.1699,6.1699,6.1699,6.1699,6.1699,6.1699,6.1699,6.1699,6.1699,6.1699,6.1699,6.1699,6.1699,6.1797,6.2031,6.2869,6.3351,6.3357,6.3958,6.3993,6.336,6.336,6.293,6.2052,6.2052,6.1932,6.1698,6.1698,6.1698,0.0,0.0,0.0,4.5594,0.0,0.0,0.0,0.0,4.6018,0.0,0.0,0.0,0.0,0.0,4.6147,4.6238,4.6947,0.0,0.0,0.0,0.0,0.0,0.0,0.0,0.0,0.0,0.0,0.0,0.0,0.0,4.7695,4.7598,4.7207,4.6328,4.6308,4.6308,4.6308,4.6308,4.6308,4.6308,4.6308,4.6308,4.6367,4.7246,4.8125,4.8984,4.9863,5.0683,5.1406,5.1406,5.1406,5.1406,5.1406,5.1406,5.1504,5.2344,5.3223,5.4121,5.4961,5.5859,5.6601,5.6601,5.6601,5.6601,5.6601,5.6621,5.6816,5.7656,5.8555,5.9414,6.0195,6.1055,6.1699,6.1699,6.1699,6.1699,6.1699,6.1699,6.1699,6.1699,6.1699,6.1699,6.1699,6.1699,6.1699,6.1699,6.1699,6.1699,6.1699,6.1699,6.1699,6.1699,6.1699,6.1699,6.1699,6.1699,6.205,6.2908,6.3783,6.4265,6.4255,6.4284,6.4299,6.426,6.426,6.3828,6.2969,6.2969,6.252,6.1698,6.1698,6.1698,0.0,0.0,4.3227,4.4659,0.0,0.0,0.0,0.0,0.0,0.0,0.0,0.0,0.0,0.0,4.6109,4.6131,4.639,4.6604,0.0,0.0,0.0,0.0,0.0,0.0,0.0,0.0,0.0,0.0,0.0,0.0,0.0,4.7285,4.7207,4.6328,4.6308,4.6308,4.6308,4.6308,4.6308,4.6308,4.6308,4.6308,4.6328,4.7207,4.8086,4.8945,4.9824,5.0664,5.1406,5.1406,5.1406,5.1406,5.1406,5.1406,5.1504,5.2383,5.3242,5.4219,5.5664,5.6348,5.6601,5.6601,5.6601,5.6601,5.6601,5.7402,5.8379,5.8672,5.9765,6.0918,6.1191,6.1484,6.1699,6.1699,6.1699,6.1699,6.1699,6.1699,6.1699,6.1699,6.1699,6.1699,6.1699,6.1699,6.1699,6.1699,6.1699,6.1699,6.1699,6.1699,6.1699,6.1699,6.2226,6.2558,6.2558,6.3085,6.3552,6.3841,6.4673,6.5153,6.5163,6.5665,6.5702,6.5175,6.5155,6.4453,6.3008,6.3008,6.2559,6.1698,6.1698,6.1698,4.1719,4.1545,0.0,4.2899,4.3034,0.0,4.4581,0.0,0.0,0.0,0.0,0.0,0.0,0.0,4.59,4.5643,4.5862,4.6095,0.0,4.6239,0.0,0.0,0.0,0.0,0.0,0.0,0.0,0.0,0.0,0.0,0.0,0.0,4.6875,4.6328,4.6308,4.6308,4.6308,4.6308,4.6308,4.6308,4.6308,4.6308,4.6328,4.6875,4.7617,4.8496,4.9355,5.0215,5.0996,5.1289,5.1406,5.1406,5.1406,5.1406,5.1543,5.2734,5.3906,5.5098,5.6211,5.6601,5.6601,5.6601,5.6601,5.666,5.6973,5.7851,5.8808,5.9101,6.0176,6.123,6.123,6.1465,6.1699,6.1699,6.1699,6.1699,6.1699,6.1699,6.1699,6.1699,6.1699,6.1699,6.1699,6.1699,6.1699,6.1699,6.1699,6.1816,6.2129,6.2168,6.2285,6.2598,6.3125,6.3457,6.3457,6.4256,6.476,6.4752,6.5565,6.6026,6.6034,6.6522,6.6561,6.6034,6.6034,6.5331,6.3926,6.3613,6.3008,6.2149,6.1835,6.1698]}]]